Darstellungsparameter: Aktuell verwendete Einstellungen:
Skalierung der Graphiken ... ?
xyx+y,   Skalierungsfaktor:      Skalierung: Modus: x, Faktor: 1
Darstellungszeitraum ... ?
Vom - - bis: - -   Zeitraum: 26.02.2021 - 04.03.2021
Min/Max/Avg-Anzeige ... ?
Zeige MMA aktuell
Zeige MMA Monat
Zeige MMA alles
Zeige --A aktuell
Zeige --A Monat
Zeige --A alles
Keine MMA-Anzeige
MMA:
Minimum Maximum Average (ber die Originaldaten)
MMA-Basis: 26.02.2021 - 04.03.2021
Quicknavigation für Darstellung... ?
Tage:      1T, 2T, 3T, 5T -1T -2T -3T -5T +1T +2T +3T +5T
Wochen: 1W, 2W, 3W -1W -2W -3W +1W +2W +3W
Monate: 1M, 3M, 6M -1M -3M -6M +1M +3M +6M
Jahre:    1J, 3J, 5J, 10J -1J -3J -5J -10J +1J +3J +5J +10J
Nutze für die Darstellung ... ?
Originaldaten oder Mittelwerte auf ...
Stundenbasis Tagesbasis Wochenbasis
Monatsbasis Jahresbasis      Datenbasis: Original-Daten
Darstellen als:
Statistik (Auto) Statistik J:M      Darstellung:
Zur Graphik,    zurück zur Übersicht aller Sensoren.
 
Tabellarische Datenbersicht: ?
 
Sensor: Nr:Datum:Temp:Abs-Feuchte:Windchill:Wind:
Aussen-T/F 1 26-02-2021 00:00:00 6.7 C 6.61 g/m*3 6.7 C 1.6 km/h
2 26-02-2021 00:05:00 6.8 C 6.65 g/m*3 6.8 C 1.6 km/h
3 26-02-2021 00:10:00 6.7 C 6.61 g/m*3 5.56 C 6.4 km/h
4 26-02-2021 00:15:00 6.7 C 6.61 g/m*3 6.7 C 1.6 km/h
5 26-02-2021 00:20:00 6.7 C 6.61 g/m*3 6.7 C 1.6 km/h
6 26-02-2021 00:25:00 6.7 C 6.61 g/m*3 6.7 C 0 km/h
7 26-02-2021 00:30:00 6.7 C 6.61 g/m*3 6.7 C 1.6 km/h
8 26-02-2021 00:35:00 6.6 C 6.57 g/m*3 6.6 C 3.2 km/h
9 26-02-2021 00:40:00 6.5 C 6.52 g/m*3 6.5 C 0 km/h
10 26-02-2021 00:45:00 6.4 C 6.56 g/m*3 6.4 C 0 km/h
11 26-02-2021 00:50:00 6.4 C 6.56 g/m*3 6.4 C 1.6 km/h
12 26-02-2021 00:55:00 6.4 C 6.56 g/m*3 6.4 C 1.6 km/h
13 26-02-2021 01:00:00 6.5 C 6.67 g/m*3 6.5 C 3.2 km/h
14 26-02-2021 01:05:00 6.5 C 6.67 g/m*3 6.5 C 1.6 km/h
15 26-02-2021 01:10:00 6.5 C 6.67 g/m*3 6.5 C 1.6 km/h
16 26-02-2021 01:15:00 6.5 C 6.67 g/m*3 6.5 C 0 km/h
17 26-02-2021 01:20:00 6.5 C 6.67 g/m*3 6.5 C 4.8 km/h
18 26-02-2021 01:25:00 6.5 C 6.67 g/m*3 6.5 C 3.2 km/h
19 26-02-2021 01:30:00 6.4 C 6.56 g/m*3 6.4 C 3.2 km/h
20 26-02-2021 01:35:00 6.3 C 6.51 g/m*3 6.3 C 1.6 km/h
21 26-02-2021 01:40:00 6.2 C 6.47 g/m*3 6.2 C 1.6 km/h
22 26-02-2021 01:45:00 6.3 C 6.66 g/m*3 6.3 C 3.2 km/h
23 26-02-2021 01:50:00 6.4 C 6.71 g/m*3 6.4 C 3.2 km/h
24 26-02-2021 01:55:00 6.5 C 6.67 g/m*3 6.5 C 3.2 km/h
25 26-02-2021 02:00:00 6.4 C 6.63 g/m*3 6.4 C 3.2 km/h
Sensor: Nr:Datum:Temp:Abs-Feuchte:Windchill:Wind:
Aussen-T/F 26 26-02-2021 02:05:00 6.4 C 6.63 g/m*3 6.4 C 3.2 km/h
27 26-02-2021 02:10:00 6.3 C 6.59 g/m*3 6.3 C 0 km/h
28 26-02-2021 02:15:00 6.3 C 6.59 g/m*3 6.3 C 0 km/h
29 26-02-2021 02:20:00 6.3 C 6.59 g/m*3 6.3 C 1.6 km/h
30 26-02-2021 02:25:00 6.3 C 6.66 g/m*3 6.3 C 0 km/h
31 26-02-2021 02:30:00 6.3 C 6.66 g/m*3 6.3 C 0 km/h
32 26-02-2021 02:35:00 6.4 C 6.71 g/m*3 6.4 C 0 km/h
33 26-02-2021 02:40:00 6.4 C 6.71 g/m*3 6.4 C 0 km/h
34 26-02-2021 02:45:00 6.4 C 6.71 g/m*3 6.4 C 1.6 km/h
35 26-02-2021 02:50:00 6.5 C 6.75 g/m*3 6.5 C 0 km/h
36 26-02-2021 02:55:00 6.6 C 6.79 g/m*3 6.6 C 0 km/h
37 26-02-2021 03:00:00 6.8 C 6.96 g/m*3 6.8 C 0 km/h
38 26-02-2021 03:05:00 6.8 C 6.88 g/m*3 6.8 C 0 km/h
39 26-02-2021 03:10:00 6.9 C 6.93 g/m*3 6.9 C 0 km/h
40 26-02-2021 03:15:00 6.9 C 6.85 g/m*3 6.9 C 0 km/h
41 26-02-2021 03:20:00 7 C 6.9 g/m*3 7 C 0 km/h
42 26-02-2021 03:25:00 7 C 6.9 g/m*3 7 C 0 km/h
43 26-02-2021 03:30:00 7.1 C 6.94 g/m*3 7.1 C 0 km/h
44 26-02-2021 03:35:00 7.1 C 6.94 g/m*3 7.1 C 0 km/h
45 26-02-2021 03:40:00 7.1 C 6.86 g/m*3 7.1 C 0 km/h
46 26-02-2021 03:45:00 7.1 C 6.86 g/m*3 7.1 C 0 km/h
47 26-02-2021 03:50:00 7.1 C 6.86 g/m*3 7.1 C 0 km/h
48 26-02-2021 03:55:00 7.1 C 6.86 g/m*3 7.1 C 0 km/h
49 26-02-2021 04:00:00 7.1 C 6.86 g/m*3 7.1 C 0 km/h
50 26-02-2021 04:05:00 7.1 C 6.86 g/m*3 7.1 C 0 km/h
Sensor: Nr:Datum:Temp:Abs-Feuchte:Windchill:Wind:
Aussen-T/F 51 26-02-2021 04:10:00 7.2 C 6.99 g/m*3 7.2 C 0 km/h
52 26-02-2021 04:15:00 7.3 C 7.03 g/m*3 7.3 C 0 km/h
53 26-02-2021 04:20:00 7.3 C 6.95 g/m*3 7.3 C 0 km/h
54 26-02-2021 04:25:00 7.3 C 6.95 g/m*3 7.3 C 0 km/h
55 26-02-2021 04:30:00 7.2 C 6.91 g/m*3 7.2 C 0 km/h
56 26-02-2021 04:35:00 7.2 C 6.91 g/m*3 7.2 C 0 km/h
57 26-02-2021 04:40:00 7.2 C 6.91 g/m*3 7.2 C 0 km/h
58 26-02-2021 04:45:00 7.2 C 6.91 g/m*3 7.2 C 0 km/h
59 26-02-2021 04:50:00 7.3 C 6.95 g/m*3 7.3 C 0 km/h
60 26-02-2021 04:55:00 7.3 C 7.03 g/m*3 7.3 C 1.6 km/h
61 26-02-2021 05:00:00 7.4 C 7.08 g/m*3 7.4 C 4.8 km/h
62 26-02-2021 05:05:00 7.5 C 7.12 g/m*3 7.5 C 0 km/h
63 26-02-2021 05:10:00 7.6 C 7.17 g/m*3 7.6 C 4.8 km/h
64 26-02-2021 05:15:00 7.6 C 7.09 g/m*3 7.6 C 4.8 km/h
65 26-02-2021 05:20:00 7.7 C 7.14 g/m*3 6.71 C 6.4 km/h
66 26-02-2021 05:25:00 7.7 C 7.14 g/m*3 7.7 C 1.6 km/h
67 26-02-2021 05:30:00 7.7 C 7.05 g/m*3 6.28 C 8.1 km/h
68 26-02-2021 05:35:00 7.7 C 7.14 g/m*3 7.7 C 3.2 km/h
69 26-02-2021 05:40:00 7.7 C 7.05 g/m*3 7.7 C 0 km/h
70 26-02-2021 05:45:00 7.7 C 7.05 g/m*3 7.7 C 0 km/h
71 26-02-2021 05:50:00 7.7 C 7.14 g/m*3 7.7 C 1.6 km/h
72 26-02-2021 05:55:00 7.7 C 7.05 g/m*3 7.7 C 1.6 km/h
73 26-02-2021 06:00:00 7.7 C 7.14 g/m*3 7.7 C 0 km/h
74 26-02-2021 06:05:00 7.8 C 7.18 g/m*3 7.8 C 1.6 km/h
75 26-02-2021 06:10:00 7.8 C 7.18 g/m*3 7.8 C 1.6 km/h
Sensor: Nr:Datum:Temp:Abs-Feuchte:Windchill:Wind:
Aussen-T/F 76 26-02-2021 06:15:00 7.8 C 7.1 g/m*3 7.8 C 0 km/h
77 26-02-2021 06:20:00 7.8 C 7.1 g/m*3 7.8 C 0 km/h
78 26-02-2021 06:25:00 7.8 C 7.1 g/m*3 7.8 C 0 km/h
79 26-02-2021 06:30:00 7.8 C 7.1 g/m*3 7.8 C 0 km/h
80 26-02-2021 06:35:00 7.7 C 7.05 g/m*3 6.71 C 6.4 km/h
81 26-02-2021 06:40:00 8.1 C 7.57 g/m*3 6.75 C 8.1 km/h
82 26-02-2021 06:45:00 8.6 C 7.91 g/m*3 5.86 C 17.7 km/h
83 26-02-2021 06:50:00 8.7 C 7.96 g/m*3 6.17 C 16.1 km/h
84 26-02-2021 06:55:00 8.8 C 7.92 g/m*3 6.3 C 16.1 km/h
85 26-02-2021 07:00:00 8.8 C 7.83 g/m*3 6.97 C 11.3 km/h
86 26-02-2021 07:05:00 8.7 C 7.78 g/m*3 6.6 C 12.9 km/h
87 26-02-2021 07:10:00 8.7 C 7.78 g/m*3 6.17 C 16.1 km/h
88 26-02-2021 07:15:00 8.6 C 7.73 g/m*3 7.01 C 9.7 km/h
89 26-02-2021 07:20:00 8.5 C 7.68 g/m*3 7.22 C 8.1 km/h
90 26-02-2021 07:25:00 8.4 C 7.63 g/m*3 6.49 C 11.3 km/h
91 26-02-2021 07:30:00 8.3 C 7.59 g/m*3 6.37 C 11.3 km/h
92 26-02-2021 07:35:00 8.3 C 7.59 g/m*3 7.41 C 6.4 km/h
93 26-02-2021 07:40:00 8.2 C 7.54 g/m*3 6.87 C 8.1 km/h
94 26-02-2021 07:45:00 8.1 C 7.49 g/m*3 6.13 C 11.3 km/h
95 26-02-2021 07:50:00 8 C 7.44 g/m*3 5.3 C 16.1 km/h
96 26-02-2021 07:55:00 8 C 7.44 g/m*3 8 C 4.8 km/h
97 26-02-2021 08:00:00 7.9 C 7.39 g/m*3 6.18 C 9.7 km/h
98 26-02-2021 08:05:00 7.9 C 7.39 g/m*3 6.18 C 9.7 km/h
99 26-02-2021 08:10:00 7.8 C 7.35 g/m*3 6.4 C 8.1 km/h
100 26-02-2021 08:15:00 7.8 C 7.35 g/m*3 6.4 C 8.1 km/h
Sensor: Nr:Datum:Temp:Abs-Feuchte:Windchill:Wind:
Aussen-T/F 101 26-02-2021 08:20:00 7.8 C 7.35 g/m*3 6.83 C 6.4 km/h
102 26-02-2021 08:25:00 7.8 C 7.35 g/m*3 6.83 C 6.4 km/h
103 26-02-2021 08:30:00 7.8 C 7.35 g/m*3 6.83 C 6.4 km/h
104 26-02-2021 08:35:00 7.8 C 7.35 g/m*3 6.06 C 9.7 km/h
105 26-02-2021 08:40:00 7.8 C 7.35 g/m*3 7.8 C 3.2 km/h
106 26-02-2021 08:45:00 7.8 C 7.35 g/m*3 6.83 C 6.4 km/h
107 26-02-2021 08:50:00 7.8 C 7.43 g/m*3 5.51 C 12.9 km/h
108 26-02-2021 08:55:00 7.6 C 7.33 g/m*3 5.53 C 11.3 km/h
109 26-02-2021 09:00:00 7.5 C 7.28 g/m*3 4.9 C 14.5 km/h
110 26-02-2021 09:05:00 7.4 C 7.24 g/m*3 5.28 C 11.3 km/h
111 26-02-2021 09:10:00 7.3 C 7.19 g/m*3 7.3 C 1.6 km/h
112 26-02-2021 09:15:00 7.3 C 7.19 g/m*3 5.81 C 8.1 km/h
113 26-02-2021 09:20:00 7.2 C 7.14 g/m*3 5.69 C 8.1 km/h
114 26-02-2021 09:25:00 7 C 6.97 g/m*3 4.29 C 14.5 km/h
115 26-02-2021 09:30:00 6.9 C 6.93 g/m*3 5.79 C 6.4 km/h
116 26-02-2021 09:35:00 6.8 C 6.88 g/m*3 5.67 C 6.4 km/h
117 26-02-2021 09:40:00 6.7 C 6.84 g/m*3 6.7 C 4.8 km/h
118 26-02-2021 09:45:00 6.6 C 6.79 g/m*3 5.44 C 6.4 km/h
119 26-02-2021 09:50:00 6.6 C 6.79 g/m*3 6.6 C 3.2 km/h
120 26-02-2021 09:55:00 6.6 C 6.87 g/m*3 5.44 C 6.4 km/h
121 26-02-2021 10:00:00 6.6 C 6.87 g/m*3 6.6 C 4.8 km/h
122 26-02-2021 10:05:00 6.6 C 6.87 g/m*3 5.44 C 6.4 km/h
123 26-02-2021 10:10:00 6.6 C 6.95 g/m*3 6.6 C 1.6 km/h
124 26-02-2021 10:15:00 6.6 C 6.95 g/m*3 6.6 C 3.2 km/h
125 26-02-2021 10:20:00 6.6 C 6.95 g/m*3 6.6 C 1.6 km/h
Sensor: Nr:Datum:Temp:Abs-Feuchte:Windchill:Wind:
Aussen-T/F 126 26-02-2021 10:25:00 6.6 C 6.95 g/m*3 6.6 C 1.6 km/h
127 26-02-2021 10:30:00 6.6 C 6.95 g/m*3 6.6 C 3.2 km/h
128 26-02-2021 10:35:00 6.6 C 6.95 g/m*3 6.6 C 0 km/h
129 26-02-2021 10:40:00 6.7 C 6.99 g/m*3 6.7 C 0 km/h
130 26-02-2021 10:45:00 6.7 C 7.07 g/m*3 6.7 C 1.6 km/h
131 26-02-2021 10:50:00 6.7 C 7.07 g/m*3 6.7 C 3.2 km/h
132 26-02-2021 10:55:00 6.7 C 7.07 g/m*3 6.7 C 0 km/h
133 26-02-2021 11:00:00 6.8 C 7.11 g/m*3 6.8 C 1.6 km/h
134 26-02-2021 11:05:00 6.8 C 7.11 g/m*3 6.8 C 3.2 km/h
135 26-02-2021 11:10:00 6.8 C 7.11 g/m*3 6.8 C 4.8 km/h
136 26-02-2021 11:15:00 6.8 C 7.11 g/m*3 4.56 C 11.3 km/h
137 26-02-2021 11:20:00 6.8 C 7.11 g/m*3 5.22 C 8.1 km/h
138 26-02-2021 11:25:00 6.8 C 7.04 g/m*3 6.8 C 4.8 km/h
139 26-02-2021 11:30:00 6.8 C 7.11 g/m*3 6.8 C 3.2 km/h
140 26-02-2021 11:35:00 6.8 C 7.11 g/m*3 6.8 C 1.6 km/h
141 26-02-2021 11:40:00 6.8 C 7.11 g/m*3 6.8 C 1.6 km/h
142 26-02-2021 11:45:00 6.8 C 7.11 g/m*3 6.8 C 1.6 km/h
143 26-02-2021 11:50:00 6.8 C 7.11 g/m*3 6.8 C 0 km/h
144 26-02-2021 11:55:00 6.9 C 7.16 g/m*3 6.9 C 4.8 km/h
145 26-02-2021 12:00:00 6.8 C 7.11 g/m*3 6.8 C 3.2 km/h
146 26-02-2021 12:05:00 6.8 C 7.11 g/m*3 5.67 C 6.4 km/h
147 26-02-2021 12:10:00 6.8 C 7.11 g/m*3 6.8 C 3.2 km/h
148 26-02-2021 12:15:00 6.8 C 7.11 g/m*3 6.8 C 1.6 km/h
149 26-02-2021 12:20:00 6.9 C 7.16 g/m*3 5.79 C 6.4 km/h
150 26-02-2021 12:25:00 7.1 C 7.33 g/m*3 7.1 C 0 km/h
Sensor: Nr:Datum:Temp:Abs-Feuchte:Windchill:Wind:
Aussen-T/F 151 26-02-2021 12:30:00 7.2 C 7.38 g/m*3 7.2 C 1.6 km/h
152 26-02-2021 12:35:00 7.2 C 7.3 g/m*3 7.2 C 0 km/h
153 26-02-2021 12:40:00 7.3 C 7.43 g/m*3 7.3 C 3.2 km/h
154 26-02-2021 12:45:00 7.2 C 7.3 g/m*3 7.2 C 4.8 km/h
155 26-02-2021 12:50:00 7.1 C 7.25 g/m*3 5.23 C 9.7 km/h
156 26-02-2021 12:55:00 7.1 C 7.18 g/m*3 7.1 C 3.2 km/h
157 26-02-2021 13:00:00 7 C 7.13 g/m*3 7 C 3.2 km/h
158 26-02-2021 13:05:00 7 C 7.13 g/m*3 7 C 4.8 km/h
159 26-02-2021 13:10:00 7.1 C 7.18 g/m*3 7.1 C 0 km/h
160 26-02-2021 13:15:00 7.2 C 7.22 g/m*3 7.2 C 0 km/h
161 26-02-2021 13:20:00 7.3 C 7.35 g/m*3 7.3 C 0 km/h
162 26-02-2021 13:25:00 7.4 C 7.32 g/m*3 7.4 C 0 km/h
163 26-02-2021 13:30:00 7.6 C 7.41 g/m*3 7.6 C 0 km/h
164 26-02-2021 13:35:00 7.8 C 7.51 g/m*3 7.8 C 0 km/h
165 26-02-2021 13:40:00 7.8 C 7.43 g/m*3 7.8 C 0 km/h
166 26-02-2021 13:45:00 7.9 C 7.56 g/m*3 7.9 C 0 km/h
167 26-02-2021 13:50:00 8 C 7.61 g/m*3 8 C 0 km/h
168 26-02-2021 13:55:00 8 C 7.44 g/m*3 8 C 0 km/h
169 26-02-2021 14:00:00 8 C 7.44 g/m*3 8 C 3.2 km/h
170 26-02-2021 14:05:00 8 C 7.36 g/m*3 8 C 0 km/h
171 26-02-2021 14:10:00 8.1 C 7.41 g/m*3 8.1 C 1.6 km/h
172 26-02-2021 14:15:00 8.2 C 7.54 g/m*3 8.2 C 1.6 km/h
173 26-02-2021 14:20:00 8.3 C 7.59 g/m*3 8.3 C 4.8 km/h
174 26-02-2021 14:25:00 8.4 C 7.55 g/m*3 8.4 C 3.2 km/h
175 26-02-2021 14:30:00 8.4 C 7.47 g/m*3 8.4 C 0 km/h
Sensor: Nr:Datum:Temp:Abs-Feuchte:Windchill:Wind:
Aussen-T/F 176 26-02-2021 14:35:00 8.6 C 7.65 g/m*3 8.6 C 1.6 km/h
177 26-02-2021 14:40:00 8.7 C 7.7 g/m*3 8.7 C 0 km/h
178 26-02-2021 14:45:00 8.8 C 7.75 g/m*3 8.8 C 0 km/h
179 26-02-2021 14:50:00 8.9 C 7.8 g/m*3 8.9 C 0 km/h
180 26-02-2021 14:55:00 8.9 C 7.8 g/m*3 8.9 C 3.2 km/h
181 26-02-2021 15:00:00 8.9 C 7.71 g/m*3 8.9 C 0 km/h
182 26-02-2021 15:05:00 8.8 C 7.66 g/m*3 8.8 C 0 km/h
183 26-02-2021 15:10:00 8.7 C 7.7 g/m*3 8.7 C 0 km/h
184 26-02-2021 15:15:00 8.7 C 7.7 g/m*3 8.7 C 0 km/h
185 26-02-2021 15:20:00 8.7 C 7.7 g/m*3 8.7 C 0 km/h
186 26-02-2021 15:25:00 8.7 C 7.7 g/m*3 8.7 C 0 km/h
187 26-02-2021 15:30:00 8.7 C 7.7 g/m*3 8.7 C 0 km/h
188 26-02-2021 15:35:00 8.8 C 7.75 g/m*3 8.8 C 0 km/h
189 26-02-2021 15:40:00 8.8 C 7.75 g/m*3 8.8 C 0 km/h
190 26-02-2021 15:45:00 8.8 C 7.75 g/m*3 8.8 C 0 km/h
191 26-02-2021 15:50:00 8.8 C 7.75 g/m*3 7.98 C 6.4 km/h
192 26-02-2021 15:55:00 8.8 C 7.66 g/m*3 8.8 C 3.2 km/h
193 26-02-2021 16:00:00 8.8 C 7.66 g/m*3 8.8 C 0 km/h
194 26-02-2021 16:05:00 8.8 C 7.66 g/m*3 8.8 C 1.6 km/h
195 26-02-2021 16:10:00 8.9 C 7.62 g/m*3 8.9 C 4.8 km/h
196 26-02-2021 16:15:00 9.1 C 7.63 g/m*3 9.1 C 4.8 km/h
197 26-02-2021 16:20:00 9.1 C 7.36 g/m*3 8.33 C 6.4 km/h
198 26-02-2021 16:25:00 9.3 C 7.37 g/m*3 8.56 C 6.4 km/h
199 26-02-2021 16:30:00 9.3 C 7.19 g/m*3 8.16 C 8.1 km/h
200 26-02-2021 16:35:00 9.5 C 7.19 g/m*3 9.5 C 4.8 km/h
Sensor: Nr:Datum:Temp:Abs-Feuchte:Windchill:Wind:
Aussen-T/F 201 26-02-2021 16:40:00 9.5 C 7.01 g/m*3 8.79 C 6.4 km/h
202 26-02-2021 16:45:00 9.6 C 7.05 g/m*3 9.6 C 4.8 km/h
203 26-02-2021 16:50:00 9.8 C 7.05 g/m*3 9.8 C 4.8 km/h
204 26-02-2021 16:55:00 9.8 C 7.05 g/m*3 9.8 C 4.8 km/h
205 26-02-2021 17:00:00 10 C 7.33 g/m*3 9.37 C 6.4 km/h
206 26-02-2021 17:05:00 9.9 C 7 g/m*3 8.87 C 8.1 km/h
207 26-02-2021 17:10:00 9.9 C 7.19 g/m*3 9.9 C 1.6 km/h
208 26-02-2021 17:15:00 9.8 C 7.05 g/m*3 8.75 C 8.1 km/h
209 26-02-2021 17:20:00 9.6 C 6.87 g/m*3 8.91 C 6.4 km/h
210 26-02-2021 17:25:00 9.5 C 6.74 g/m*3 9.5 C 4.8 km/h
211 26-02-2021 17:30:00 9.3 C 6.56 g/m*3 9.3 C 4.8 km/h
212 26-02-2021 17:35:00 9.1 C 6.21 g/m*3 8.33 C 6.4 km/h
213 26-02-2021 17:40:00 9 C 6.61 g/m*3 9 C 0 km/h
214 26-02-2021 17:45:00 8.8 C 6.35 g/m*3 8.8 C 1.6 km/h
215 26-02-2021 17:50:00 8.7 C 6.23 g/m*3 7.46 C 8.1 km/h
216 26-02-2021 17:55:00 8.6 C 6.27 g/m*3 8.6 C 4.8 km/h
217 26-02-2021 18:00:00 8.4 C 6.36 g/m*3 7.11 C 8.1 km/h
218 26-02-2021 18:05:00 8.2 C 6.2 g/m*3 8.2 C 4.8 km/h
219 26-02-2021 18:10:00 8.1 C 6.24 g/m*3 8.1 C 0 km/h
220 26-02-2021 18:15:00 7.8 C 6.2 g/m*3 7.8 C 0 km/h
221 26-02-2021 18:20:00 7.4 C 6.04 g/m*3 7.4 C 0 km/h
222 26-02-2021 18:25:00 7.3 C 6 g/m*3 7.3 C 4.8 km/h
223 26-02-2021 18:30:00 7.1 C 6.01 g/m*3 7.1 C 3.2 km/h
224 26-02-2021 18:35:00 7.1 C 6.08 g/m*3 7.1 C 1.6 km/h
225 26-02-2021 18:40:00 7 C 6.12 g/m*3 7 C 3.2 km/h
Sensor: Nr:Datum:Temp:Abs-Feuchte:Windchill:Wind:
Aussen-T/F 226 26-02-2021 18:45:00 6.9 C 6.16 g/m*3 6.9 C 4.8 km/h
227 26-02-2021 18:50:00 6.9 C 6.24 g/m*3 6.9 C 3.2 km/h
228 26-02-2021 18:55:00 6.8 C 6.19 g/m*3 6.8 C 4.8 km/h
229 26-02-2021 19:00:00 6.8 C 6.27 g/m*3 6.8 C 3.2 km/h
230 26-02-2021 19:05:00 6.8 C 6.27 g/m*3 6.8 C 4.8 km/h
231 26-02-2021 19:10:00 6.7 C 6.15 g/m*3 6.7 C 1.6 km/h
232 26-02-2021 19:15:00 6.6 C 6.11 g/m*3 6.6 C 0 km/h
233 26-02-2021 19:20:00 6.6 C 6.19 g/m*3 6.6 C 0 km/h
234 26-02-2021 19:25:00 6.5 C 6.22 g/m*3 6.5 C 0 km/h
235 26-02-2021 19:30:00 6.5 C 6.3 g/m*3 6.5 C 4.8 km/h
236 26-02-2021 19:35:00 6.4 C 6.18 g/m*3 6.4 C 3.2 km/h
237 26-02-2021 19:40:00 6.3 C 6.14 g/m*3 5.1 C 6.4 km/h
238 26-02-2021 19:45:00 6.3 C 6.14 g/m*3 6.3 C 4.8 km/h
239 26-02-2021 19:50:00 6.3 C 6.29 g/m*3 6.3 C 4.8 km/h
240 26-02-2021 19:55:00 6.3 C 6.29 g/m*3 6.3 C 3.2 km/h
241 26-02-2021 20:00:00 6.3 C 6.37 g/m*3 6.3 C 4.8 km/h
242 26-02-2021 20:05:00 6.3 C 6.37 g/m*3 6.3 C 1.6 km/h
243 26-02-2021 20:10:00 6.3 C 6.37 g/m*3 6.3 C 0 km/h
244 26-02-2021 20:15:00 6.2 C 6.32 g/m*3 6.2 C 0 km/h
245 26-02-2021 20:20:00 6.2 C 6.32 g/m*3 6.2 C 0 km/h
246 26-02-2021 20:25:00 6.2 C 6.4 g/m*3 6.2 C 4.8 km/h
247 26-02-2021 20:30:00 6.2 C 6.4 g/m*3 6.2 C 3.2 km/h
248 26-02-2021 20:35:00 6.2 C 6.4 g/m*3 6.2 C 0 km/h
249 26-02-2021 20:40:00 6.2 C 6.4 g/m*3 6.2 C 0 km/h
250 26-02-2021 20:45:00 6.2 C 6.47 g/m*3 6.2 C 0 km/h
Sensor: Nr:Datum:Temp:Abs-Feuchte:Windchill:Wind:
Aussen-T/F 251 26-02-2021 20:50:00 6.2 C 6.47 g/m*3 6.2 C 0 km/h
252 26-02-2021 20:55:00 6.2 C 6.47 g/m*3 6.2 C 0 km/h
253 26-02-2021 21:00:00 6.1 C 6.43 g/m*3 6.1 C 1.6 km/h
254 26-02-2021 21:05:00 6.1 C 6.36 g/m*3 6.1 C 0 km/h
255 26-02-2021 21:10:00 6.1 C 6.36 g/m*3 6.1 C 0 km/h
256 26-02-2021 21:15:00 5.9 C 6.27 g/m*3 5.9 C 0 km/h
257 26-02-2021 21:20:00 5.8 C 6.23 g/m*3 5.8 C 3.2 km/h
258 26-02-2021 21:25:00 5.7 C 6.19 g/m*3 4.4 C 6.4 km/h
259 26-02-2021 21:30:00 5.4 C 6.07 g/m*3 4.06 C 6.4 km/h
260 26-02-2021 21:35:00 5.3 C 6.03 g/m*3 5.3 C 4.8 km/h
261 26-02-2021 21:40:00 5.1 C 5.95 g/m*3 5.1 C 4.8 km/h
262 26-02-2021 21:45:00 4.9 C 5.87 g/m*3 4.9 C 4.8 km/h
263 26-02-2021 21:50:00 4.7 C 5.86 g/m*3 4.7 C 4.8 km/h
264 26-02-2021 21:55:00 4.6 C 5.82 g/m*3 4.6 C 4.8 km/h
265 26-02-2021 22:00:00 4.5 C 5.85 g/m*3 4.5 C 4.8 km/h
266 26-02-2021 22:05:00 4.4 C 5.81 g/m*3 4.4 C 1.6 km/h
267 26-02-2021 22:10:00 4.2 C 5.73 g/m*3 4.2 C 3.2 km/h
268 26-02-2021 22:15:00 4.1 C 5.7 g/m*3 4.1 C 0 km/h
269 26-02-2021 22:20:00 3.9 C 5.62 g/m*3 3.9 C 0 km/h
270 26-02-2021 22:25:00 3.8 C 5.58 g/m*3 3.8 C 0 km/h
271 26-02-2021 22:30:00 3.6 C 5.51 g/m*3 3.6 C 0 km/h
272 26-02-2021 22:35:00 3.4 C 5.5 g/m*3 3.4 C 0 km/h
273 26-02-2021 22:40:00 3.3 C 5.46 g/m*3 3.3 C 1.6 km/h
274 26-02-2021 22:45:00 3.2 C 5.42 g/m*3 3.2 C 1.6 km/h
275 26-02-2021 22:50:00 3.2 C 5.48 g/m*3 3.2 C 0 km/h
Sensor: Nr:Datum:Temp:Abs-Feuchte:Windchill:Wind:
Aussen-T/F 276 26-02-2021 22:55:00 3.2 C 5.48 g/m*3 3.2 C 3.2 km/h
277 26-02-2021 23:00:00 3.2 C 5.48 g/m*3 3.2 C 1.6 km/h
278 26-02-2021 23:05:00 3.1 C 5.45 g/m*3 3.1 C 0 km/h
279 26-02-2021 23:10:00 2.9 C 5.37 g/m*3 2.9 C 0 km/h
280 26-02-2021 23:15:00 2.8 C 5.34 g/m*3 2.8 C 0 km/h
281 26-02-2021 23:20:00 2.6 C 5.27 g/m*3 2.6 C 0 km/h
282 26-02-2021 23:25:00 2.5 C 5.23 g/m*3 2.5 C 0 km/h
283 26-02-2021 23:30:00 2.4 C 5.2 g/m*3 2.4 C 0 km/h
284 26-02-2021 23:35:00 2.4 C 5.25 g/m*3 2.4 C 0 km/h
285 26-02-2021 23:40:00 2.3 C 5.22 g/m*3 2.3 C 0 km/h
286 26-02-2021 23:45:00 2.2 C 5.18 g/m*3 2.2 C 0 km/h
287 26-02-2021 23:50:00 2.2 C 5.18 g/m*3 2.2 C 0 km/h
288 26-02-2021 23:55:00 2.1 C 5.15 g/m*3 2.1 C 0 km/h
289 27-02-2021 00:00:00 2 C 5.11 g/m*3 2 C 0 km/h
290 27-02-2021 00:05:00 1.9 C 5.13 g/m*3 1.9 C 0 km/h
291 27-02-2021 00:10:00 1.9 C 5.13 g/m*3 1.9 C 0 km/h
292 27-02-2021 00:15:00 1.9 C 5.13 g/m*3 1.9 C 0 km/h
293 27-02-2021 00:20:00 1.8 C 5.1 g/m*3 1.8 C 0 km/h
294 27-02-2021 00:25:00 1.8 C 5.1 g/m*3 1.8 C 0 km/h
295 27-02-2021 00:30:00 1.7 C 5.06 g/m*3 1.7 C 0 km/h
296 27-02-2021 00:35:00 1.7 C 5.06 g/m*3 1.7 C 0 km/h
297 27-02-2021 00:40:00 1.7 C 5.06 g/m*3 1.7 C 1.6 km/h
298 27-02-2021 00:45:00 1.7 C 5.12 g/m*3 1.7 C 0 km/h
299 27-02-2021 00:50:00 1.7 C 5.12 g/m*3 1.7 C 0 km/h
300 27-02-2021 00:55:00 1.7 C 5.12 g/m*3 1.7 C 0 km/h
Sensor: Nr:Datum:Temp:Abs-Feuchte:Windchill:Wind:
Aussen-T/F 301 27-02-2021 01:00:00 1.7 C 5.12 g/m*3 1.7 C 0 km/h
302 27-02-2021 01:05:00 1.6 C 5.08 g/m*3 1.6 C 0 km/h
303 27-02-2021 01:10:00 1.6 C 5.08 g/m*3 1.6 C 1.6 km/h
304 27-02-2021 01:15:00 1.5 C 5.05 g/m*3 1.5 C 0 km/h
305 27-02-2021 01:20:00 1.4 C 5.01 g/m*3 1.4 C 0 km/h
306 27-02-2021 01:25:00 1.4 C 5.01 g/m*3 1.4 C 0 km/h
307 27-02-2021 01:30:00 1.3 C 4.98 g/m*3 1.3 C 0 km/h
308 27-02-2021 01:35:00 1.3 C 4.98 g/m*3 1.3 C 0 km/h
309 27-02-2021 01:40:00 1.3 C 4.98 g/m*3 1.3 C 0 km/h
310 27-02-2021 01:45:00 1.2 C 4.95 g/m*3 1.2 C 0 km/h
311 27-02-2021 01:50:00 1.2 C 4.95 g/m*3 1.2 C 0 km/h
312 27-02-2021 01:55:00 1.1 C 4.91 g/m*3 1.1 C 0 km/h
313 27-02-2021 02:00:00 1.1 C 4.91 g/m*3 1.1 C 0 km/h
314 27-02-2021 02:05:00 1 C 4.88 g/m*3 1 C 0 km/h
315 27-02-2021 02:10:00 0.9 C 4.85 g/m*3 0.9 C 0 km/h
316 27-02-2021 02:15:00 0.9 C 4.85 g/m*3 0.9 C 1.6 km/h
317 27-02-2021 02:20:00 0.9 C 4.85 g/m*3 0.9 C 0 km/h
318 27-02-2021 02:25:00 0.9 C 4.85 g/m*3 0.9 C 0 km/h
319 27-02-2021 02:30:00 0.9 C 4.85 g/m*3 0.9 C 0 km/h
320 27-02-2021 02:35:00 0.8 C 4.81 g/m*3 0.8 C 0 km/h
321 27-02-2021 02:40:00 0.8 C 4.81 g/m*3 0.8 C 0 km/h
322 27-02-2021 02:45:00 0.7 C 4.78 g/m*3 0.7 C 0 km/h
323 27-02-2021 02:50:00 0.7 C 4.78 g/m*3 0.7 C 0 km/h
324 27-02-2021 02:55:00 0.7 C 4.78 g/m*3 0.7 C 0 km/h
325 27-02-2021 03:00:00 0.7 C 4.83 g/m*3 0.7 C 0 km/h
Sensor: Nr:Datum:Temp:Abs-Feuchte:Windchill:Wind:
Aussen-T/F 326 27-02-2021 03:05:00 0.7 C 4.83 g/m*3 0.7 C 0 km/h
327 27-02-2021 03:10:00 0.7 C 4.83 g/m*3 0.7 C 0 km/h
328 27-02-2021 03:15:00 0.6 C 4.8 g/m*3 0.6 C 0 km/h
329 27-02-2021 03:20:00 0.6 C 4.75 g/m*3 0.6 C 0 km/h
330 27-02-2021 03:25:00 0.5 C 4.71 g/m*3 0.5 C 0 km/h
331 27-02-2021 03:30:00 0.4 C 4.68 g/m*3 0.4 C 0 km/h
332 27-02-2021 03:35:00 0.3 C 4.65 g/m*3 0.3 C 0 km/h
333 27-02-2021 03:40:00 0.3 C 4.7 g/m*3 0.3 C 0 km/h
334 27-02-2021 03:45:00 0.3 C 4.7 g/m*3 0.3 C 0 km/h
335 27-02-2021 03:50:00 0.3 C 4.7 g/m*3 0.3 C 0 km/h
336 27-02-2021 03:55:00 0.2 C 4.67 g/m*3 0.2 C 0 km/h
337 27-02-2021 04:00:00 0.2 C 4.67 g/m*3 0.2 C 0 km/h
338 27-02-2021 04:05:00 0.2 C 4.67 g/m*3 0.2 C 0 km/h
339 27-02-2021 04:10:00 0.1 C 4.63 g/m*3 0.1 C 1.6 km/h
340 27-02-2021 04:15:00 0.1 C 4.63 g/m*3 0.1 C 0 km/h
341 27-02-2021 04:20:00 0.1 C 4.63 g/m*3 0.1 C 0 km/h
342 27-02-2021 04:25:00 0.1 C 4.63 g/m*3 0.1 C 0 km/h
343 27-02-2021 04:30:00 0.1 C 4.63 g/m*3 0.1 C 0 km/h
344 27-02-2021 04:35:00 0 C 4.6 g/m*3 0 C 0 km/h
345 27-02-2021 04:40:00 -0.1 C 4.57 g/m*3 -0.1 C 0 km/h
346 27-02-2021 04:45:00 -0.1 C 4.57 g/m*3 -0.1 C 0 km/h
347 27-02-2021 04:50:00 -0.1 C 4.57 g/m*3 -0.1 C 0 km/h
348 27-02-2021 04:55:00 -0.1 C 4.57 g/m*3 -0.1 C 0 km/h
349 27-02-2021 05:00:00 0 C 4.6 g/m*3 0 C 0 km/h
350 27-02-2021 05:05:00 -0.1 C 4.57 g/m*3 -0.1 C 0 km/h
Sensor: Nr:Datum:Temp:Abs-Feuchte:Windchill:Wind:
Aussen-T/F 351 27-02-2021 05:10:00 -0.1 C 4.57 g/m*3 -0.1 C 0 km/h
352 27-02-2021 05:15:00 -0.1 C 4.57 g/m*3 -0.1 C 0 km/h
353 27-02-2021 05:20:00 -0.1 C 4.57 g/m*3 -0.1 C 0 km/h
354 27-02-2021 05:25:00 -0.2 C 4.54 g/m*3 -0.2 C 0 km/h
355 27-02-2021 05:30:00 -0.2 C 4.54 g/m*3 -0.2 C 0 km/h
356 27-02-2021 05:35:00 -0.2 C 4.54 g/m*3 -0.2 C 0 km/h
357 27-02-2021 05:40:00 -0.2 C 4.54 g/m*3 -0.2 C 0 km/h
358 27-02-2021 05:45:00 -0.3 C 4.51 g/m*3 -0.3 C 0 km/h
359 27-02-2021 05:50:00 -0.3 C 4.51 g/m*3 -0.3 C 0 km/h
360 27-02-2021 05:55:00 -0.3 C 4.51 g/m*3 -0.3 C 0 km/h
361 27-02-2021 06:00:00 -0.3 C 4.51 g/m*3 -0.3 C 0 km/h
362 27-02-2021 06:05:00 -0.3 C 4.51 g/m*3 -0.3 C 0 km/h
363 27-02-2021 06:10:00 -0.3 C 4.51 g/m*3 -0.3 C 0 km/h
364 27-02-2021 06:15:00 -0.3 C 4.51 g/m*3 -0.3 C 0 km/h
365 27-02-2021 06:20:00 -0.3 C 4.51 g/m*3 -0.3 C 0 km/h
366 27-02-2021 06:25:00 -0.4 C 4.48 g/m*3 -0.4 C 0 km/h
367 27-02-2021 06:30:00 -0.4 C 4.48 g/m*3 -0.4 C 0 km/h
368 27-02-2021 06:35:00 -0.4 C 4.48 g/m*3 -0.4 C 0 km/h
369 27-02-2021 06:40:00 -0.5 C 4.45 g/m*3 -0.5 C 0 km/h
370 27-02-2021 06:45:00 -0.5 C 4.45 g/m*3 -0.5 C 0 km/h
371 27-02-2021 06:50:00 -0.6 C 4.42 g/m*3 -0.6 C 0 km/h
372 27-02-2021 06:55:00 -0.6 C 4.42 g/m*3 -0.6 C 0 km/h
373 27-02-2021 07:00:00 -0.6 C 4.42 g/m*3 -0.6 C 0 km/h
374 27-02-2021 07:05:00 -0.6 C 4.42 g/m*3 -0.6 C 0 km/h
375 27-02-2021 07:10:00 -0.6 C 4.42 g/m*3 -0.6 C 0 km/h
Sensor: Nr:Datum:Temp:Abs-Feuchte:Windchill:Wind:
Aussen-T/F 376 27-02-2021 07:15:00 -0.5 C 4.45 g/m*3 -0.5 C 0 km/h
377 27-02-2021 07:20:00 -0.4 C 4.48 g/m*3 -0.4 C 0 km/h
378 27-02-2021 07:25:00 -0.3 C 4.56 g/m*3 -0.3 C 0 km/h
379 27-02-2021 07:30:00 -0.2 C 4.59 g/m*3 -0.2 C 0 km/h
380 27-02-2021 07:35:00 -0.1 C 4.62 g/m*3 -0.1 C 0 km/h
381 27-02-2021 07:40:00 0 C 4.65 g/m*3 0 C 0 km/h
382 27-02-2021 07:45:00 0.2 C 4.72 g/m*3 0.2 C 3.2 km/h
383 27-02-2021 07:50:00 0.3 C 4.75 g/m*3 0.3 C 0 km/h
384 27-02-2021 07:55:00 0.5 C 4.81 g/m*3 0.5 C 0 km/h
385 27-02-2021 08:00:00 0.7 C 4.88 g/m*3 0.7 C 0 km/h
386 27-02-2021 08:05:00 0.7 C 4.88 g/m*3 0.7 C 0 km/h
387 27-02-2021 08:10:00 0.8 C 4.91 g/m*3 0.8 C 0 km/h
388 27-02-2021 08:15:00 0.9 C 4.95 g/m*3 0.9 C 0 km/h
389 27-02-2021 08:20:00 1 C 4.98 g/m*3 1 C 1.6 km/h
390 27-02-2021 08:25:00 1.2 C 5.05 g/m*3 1.2 C 1.6 km/h
391 27-02-2021 08:30:00 1.3 C 5.09 g/m*3 1.3 C 0 km/h
392 27-02-2021 08:35:00 1.4 C 5.12 g/m*3 1.4 C 0 km/h
393 27-02-2021 08:40:00 1.6 C 5.25 g/m*3 1.6 C 0 km/h
394 27-02-2021 08:45:00 1.7 C 5.23 g/m*3 1.7 C 1.6 km/h
395 27-02-2021 08:50:00 1.8 C 5.32 g/m*3 1.8 C 0 km/h
396 27-02-2021 08:55:00 1.9 C 5.35 g/m*3 1.9 C 0 km/h
397 27-02-2021 09:00:00 2 C 5.33 g/m*3 2 C 0 km/h
398 27-02-2021 09:05:00 2.1 C 5.37 g/m*3 2.1 C 0 km/h
399 27-02-2021 09:10:00 2.2 C 5.46 g/m*3 2.2 C 1.6 km/h
400 27-02-2021 09:15:00 2.2 C 5.46 g/m*3 2.2 C 3.2 km/h
Sensor: Nr:Datum:Temp:Abs-Feuchte:Windchill:Wind:
Aussen-T/F 401 27-02-2021 09:20:00 2.3 C 5.44 g/m*3 2.3 C 0 km/h
402 27-02-2021 09:25:00 2.3 C 5.44 g/m*3 2.3 C 0 km/h
403 27-02-2021 09:30:00 2.3 C 5.44 g/m*3 2.3 C 0 km/h
404 27-02-2021 09:35:00 2.4 C 5.54 g/m*3 2.4 C 0 km/h
405 27-02-2021 09:40:00 2.5 C 5.52 g/m*3 2.5 C 0 km/h
406 27-02-2021 09:45:00 2.6 C 5.56 g/m*3 2.6 C 0 km/h
407 27-02-2021 09:50:00 2.7 C 5.59 g/m*3 2.7 C 0 km/h
408 27-02-2021 09:55:00 2.7 C 5.65 g/m*3 2.7 C 1.6 km/h
409 27-02-2021 10:00:00 2.8 C 5.63 g/m*3 2.8 C 0 km/h
410 27-02-2021 10:05:00 2.8 C 5.63 g/m*3 2.8 C 0 km/h
411 27-02-2021 10:10:00 2.8 C 5.63 g/m*3 2.8 C 0 km/h
412 27-02-2021 10:15:00 2.8 C 5.63 g/m*3 2.8 C 0 km/h
413 27-02-2021 10:20:00 2.9 C 5.67 g/m*3 2.9 C 0 km/h
414 27-02-2021 10:25:00 3 C 5.71 g/m*3 3 C 1.6 km/h
415 27-02-2021 10:30:00 3.1 C 5.75 g/m*3 3.1 C 0 km/h
416 27-02-2021 10:35:00 3.1 C 5.75 g/m*3 3.1 C 1.6 km/h
417 27-02-2021 10:40:00 3.2 C 5.79 g/m*3 3.2 C 0 km/h
418 27-02-2021 10:45:00 3.4 C 5.86 g/m*3 3.4 C 1.6 km/h
419 27-02-2021 10:50:00 3.6 C 5.94 g/m*3 3.6 C 3.2 km/h
420 27-02-2021 10:55:00 3.7 C 5.98 g/m*3 3.7 C 0 km/h
421 27-02-2021 11:00:00 3.8 C 6.02 g/m*3 3.8 C 0 km/h
422 27-02-2021 11:05:00 3.9 C 6.06 g/m*3 3.9 C 3.2 km/h
423 27-02-2021 11:10:00 4 C 6.1 g/m*3 4 C 3.2 km/h
424 27-02-2021 11:15:00 4 C 6.1 g/m*3 4 C 4.8 km/h
425 27-02-2021 11:20:00 4.1 C 6.14 g/m*3 4.1 C 0 km/h
Sensor: Nr:Datum:Temp:Abs-Feuchte:Windchill:Wind:
Aussen-T/F 426 27-02-2021 11:25:00 4.3 C 6.23 g/m*3 4.3 C 1.6 km/h
427 27-02-2021 11:30:00 4.4 C 6.27 g/m*3 4.4 C 4.8 km/h
428 27-02-2021 11:35:00 4.4 C 6.14 g/m*3 4.4 C 3.2 km/h
429 27-02-2021 11:40:00 4.6 C 6.22 g/m*3 4.6 C 0 km/h
430 27-02-2021 11:45:00 4.7 C 6.26 g/m*3 4.7 C 0 km/h
431 27-02-2021 11:50:00 4.8 C 6.24 g/m*3 4.8 C 0 km/h
432 27-02-2021 11:55:00 4.8 C 6.24 g/m*3 4.8 C 0 km/h
433 27-02-2021 12:00:00 4.9 C 6.28 g/m*3 4.9 C 1.6 km/h
434 27-02-2021 12:05:00 5.1 C 6.36 g/m*3 5.1 C 1.6 km/h
435 27-02-2021 12:10:00 5.2 C 6.33 g/m*3 5.2 C 0 km/h
436 27-02-2021 12:15:00 5.4 C 6.35 g/m*3 5.4 C 3.2 km/h
437 27-02-2021 12:20:00 5.7 C 6.48 g/m*3 5.7 C 1.6 km/h
438 27-02-2021 12:25:00 5.9 C 6.49 g/m*3 5.9 C 0 km/h
439 27-02-2021 12:30:00 6.2 C 6.55 g/m*3 6.2 C 1.6 km/h
440 27-02-2021 12:35:00 6.6 C 6.72 g/m*3 6.6 C 3.2 km/h
441 27-02-2021 12:40:00 6.8 C 6.65 g/m*3 6.8 C 1.6 km/h
442 27-02-2021 12:45:00 7.1 C 6.71 g/m*3 7.1 C 1.6 km/h
443 27-02-2021 12:50:00 7.3 C 6.72 g/m*3 7.3 C 4.8 km/h
444 27-02-2021 12:55:00 7.6 C 6.77 g/m*3 7.6 C 1.6 km/h
445 27-02-2021 13:00:00 7.7 C 6.73 g/m*3 6.71 C 6.4 km/h
446 27-02-2021 13:05:00 7.9 C 6.65 g/m*3 6.94 C 6.4 km/h
447 27-02-2021 13:10:00 7.9 C 6.41 g/m*3 6.52 C 8.1 km/h
448 27-02-2021 13:15:00 8.1 C 6.57 g/m*3 7.17 C 6.4 km/h
449 27-02-2021 13:20:00 8.3 C 6.66 g/m*3 7.41 C 6.4 km/h
450 27-02-2021 13:25:00 8.4 C 6.45 g/m*3 5.8 C 16.1 km/h
Sensor: Nr:Datum:Temp:Abs-Feuchte:Windchill:Wind:
Aussen-T/F 451 27-02-2021 13:30:00 8.3 C 6.41 g/m*3 6.66 C 9.7 km/h
452 27-02-2021 13:35:00 8.3 C 6.57 g/m*3 8.3 C 4.8 km/h
453 27-02-2021 13:40:00 8.4 C 6.53 g/m*3 8.4 C 4.8 km/h
454 27-02-2021 13:45:00 8.6 C 6.62 g/m*3 7.01 C 9.7 km/h
455 27-02-2021 13:50:00 8.7 C 6.49 g/m*3 7.13 C 9.7 km/h
456 27-02-2021 13:55:00 8.9 C 6.48 g/m*3 8.1 C 6.4 km/h
457 27-02-2021 14:00:00 9 C 6.44 g/m*3 7.81 C 8.1 km/h
458 27-02-2021 14:05:00 9.1 C 6.57 g/m*3 9.1 C 4.8 km/h
459 27-02-2021 14:10:00 9.2 C 6.52 g/m*3 9.2 C 3.2 km/h
460 27-02-2021 14:15:00 9.4 C 6.6 g/m*3 9.4 C 4.8 km/h
461 27-02-2021 14:20:00 9.5 C 6.46 g/m*3 8.79 C 6.4 km/h
462 27-02-2021 14:25:00 9.6 C 6.5 g/m*3 8.91 C 6.4 km/h
463 27-02-2021 14:30:00 9.5 C 6.37 g/m*3 9.5 C 4.8 km/h
464 27-02-2021 14:35:00 9.4 C 6.42 g/m*3 9.4 C 0 km/h
465 27-02-2021 14:40:00 9.4 C 6.33 g/m*3 7.97 C 9.7 km/h
466 27-02-2021 14:45:00 9.4 C 6.42 g/m*3 9.4 C 4.8 km/h
467 27-02-2021 14:50:00 9.4 C 6.33 g/m*3 8.28 C 8.1 km/h
468 27-02-2021 14:55:00 9.4 C 6.24 g/m*3 9.4 C 3.2 km/h
469 27-02-2021 15:00:00 9.5 C 6.37 g/m*3 9.5 C 4.8 km/h
470 27-02-2021 15:05:00 9.6 C 6.32 g/m*3 8.91 C 6.4 km/h
471 27-02-2021 15:10:00 9.7 C 6.45 g/m*3 9.7 C 4.8 km/h
472 27-02-2021 15:15:00 9.8 C 6.4 g/m*3 9.8 C 4.8 km/h
473 27-02-2021 15:20:00 9.8 C 6.22 g/m*3 9.14 C 6.4 km/h
474 27-02-2021 15:25:00 9.7 C 6.27 g/m*3 9.02 C 6.4 km/h
475 27-02-2021 15:30:00 9.7 C 6.27 g/m*3 9.7 C 3.2 km/h
Sensor: Nr:Datum:Temp:Abs-Feuchte:Windchill:Wind:
Aussen-T/F 476 27-02-2021 15:35:00 9.8 C 6.31 g/m*3 9.8 C 4.8 km/h
477 27-02-2021 15:40:00 10.1 C 6.43 g/m*3 9.48 C 6.4 km/h
478 27-02-2021 15:45:00 10.2 C 6.38 g/m*3 9.6 C 6.4 km/h
479 27-02-2021 15:50:00 10.2 C 6.38 g/m*3 10.2 C 4.8 km/h
480 27-02-2021 15:55:00 10.2 C 6.28 g/m*3 8.92 C 9.7 km/h
481 27-02-2021 16:00:00 10.2 C 6.28 g/m*3 9.6 C 6.4 km/h
482 27-02-2021 16:05:00 10.3 C 6.32 g/m*3 10.3 C 4.8 km/h
483 27-02-2021 16:10:00 10.3 C 6.32 g/m*3 10.3 C 4.8 km/h
484 27-02-2021 16:15:00 10.4 C 6.26 g/m*3 10.4 C 3.2 km/h
485 27-02-2021 16:20:00 10.6 C 6.34 g/m*3 9.4 C 9.7 km/h
486 27-02-2021 16:25:00 10.7 C 6.29 g/m*3 9.81 C 8.1 km/h
487 27-02-2021 16:30:00 10.7 C 6.29 g/m*3 9.52 C 9.7 km/h
488 27-02-2021 16:35:00 10.7 C 6.19 g/m*3 9.52 C 9.7 km/h
489 27-02-2021 16:40:00 10.8 C 6.23 g/m*3 9.93 C 8.1 km/h
490 27-02-2021 16:45:00 10.8 C 6.23 g/m*3 10.8 C 4.8 km/h
491 27-02-2021 16:50:00 10.8 C 6.23 g/m*3 10.8 C 1.6 km/h
492 27-02-2021 16:55:00 10.8 C 6.23 g/m*3 9.93 C 8.1 km/h
493 27-02-2021 17:00:00 10.9 C 6.27 g/m*3 10.9 C 4.8 km/h
494 27-02-2021 17:05:00 10.9 C 6.27 g/m*3 10.9 C 4.8 km/h
495 27-02-2021 17:10:00 11.1 C 6.35 g/m*3 11.1 C 0 km/h
496 27-02-2021 17:15:00 11.1 C 6.35 g/m*3 11.1 C 4.8 km/h
497 27-02-2021 17:20:00 11.1 C 6.45 g/m*3 11.1 C 3.2 km/h
498 27-02-2021 17:25:00 11.3 C 6.83 g/m*3 11.3 C 0 km/h
499 27-02-2021 17:30:00 11.2 C 6.69 g/m*3 11.2 C 0 km/h
500 27-02-2021 17:35:00 11.1 C 6.75 g/m*3 11.1 C 0 km/h
Sensor: Nr:Datum:Temp:Abs-Feuchte:Windchill:Wind:
Aussen-T/F 501 27-02-2021 17:40:00 10.9 C 6.76 g/m*3 10.9 C 1.6 km/h
502 27-02-2021 17:45:00 10.7 C 6.78 g/m*3 10.7 C 3.2 km/h
503 27-02-2021 17:50:00 10.3 C 6.7 g/m*3 9.72 C 6.4 km/h
504 27-02-2021 17:55:00 9.8 C 6.59 g/m*3 9.14 C 6.4 km/h
505 27-02-2021 18:00:00 9.3 C 6.56 g/m*3 9.3 C 4.8 km/h
506 27-02-2021 18:05:00 8.8 C 6.44 g/m*3 7.98 C 6.4 km/h
507 27-02-2021 18:10:00 8.3 C 6.41 g/m*3 8.3 C 4.8 km/h
508 27-02-2021 18:15:00 7.9 C 6.32 g/m*3 6.94 C 6.4 km/h
509 27-02-2021 18:20:00 7.5 C 6.24 g/m*3 7.5 C 4.8 km/h
510 27-02-2021 18:25:00 7.2 C 6.2 g/m*3 6.13 C 6.4 km/h
511 27-02-2021 18:30:00 6.8 C 6.12 g/m*3 5.67 C 6.4 km/h
512 27-02-2021 18:35:00 6.6 C 6.11 g/m*3 6.6 C 4.8 km/h
513 27-02-2021 18:40:00 6.4 C 6.11 g/m*3 6.4 C 3.2 km/h
514 27-02-2021 18:45:00 6.2 C 6.03 g/m*3 6.2 C 1.6 km/h
515 27-02-2021 18:50:00 6.1 C 5.99 g/m*3 6.1 C 0 km/h
516 27-02-2021 18:55:00 5.9 C 5.98 g/m*3 5.9 C 3.2 km/h
517 27-02-2021 19:00:00 5.7 C 5.91 g/m*3 5.7 C 4.8 km/h
518 27-02-2021 19:05:00 5.6 C 5.94 g/m*3 5.6 C 4.8 km/h
519 27-02-2021 19:10:00 5.6 C 6.01 g/m*3 5.6 C 4.8 km/h
520 27-02-2021 19:15:00 5.4 C 5.93 g/m*3 5.4 C 4.8 km/h
521 27-02-2021 19:20:00 5.3 C 5.89 g/m*3 5.3 C 4.8 km/h
522 27-02-2021 19:25:00 5.3 C 5.89 g/m*3 5.3 C 4.8 km/h
523 27-02-2021 19:30:00 5.2 C 5.92 g/m*3 5.2 C 4.8 km/h
524 27-02-2021 19:35:00 5.1 C 5.88 g/m*3 3.71 C 6.4 km/h
525 27-02-2021 19:40:00 5 C 5.91 g/m*3 5 C 4.8 km/h
Sensor: Nr:Datum:Temp:Abs-Feuchte:Windchill:Wind:
Aussen-T/F 526 27-02-2021 19:45:00 4.9 C 5.87 g/m*3 4.9 C 4.8 km/h
527 27-02-2021 19:50:00 4.8 C 5.83 g/m*3 4.8 C 4.8 km/h
528 27-02-2021 19:55:00 4.8 C 5.9 g/m*3 4.8 C 4.8 km/h
529 27-02-2021 20:00:00 4.7 C 5.86 g/m*3 4.7 C 3.2 km/h
530 27-02-2021 20:05:00 4.6 C 5.89 g/m*3 4.6 C 3.2 km/h
531 27-02-2021 20:10:00 4.5 C 5.78 g/m*3 4.5 C 4.8 km/h
532 27-02-2021 20:15:00 4.4 C 5.81 g/m*3 4.4 C 0 km/h
533 27-02-2021 20:20:00 4.3 C 5.77 g/m*3 4.3 C 3.2 km/h
534 27-02-2021 20:25:00 4.2 C 5.73 g/m*3 4.2 C 1.6 km/h
535 27-02-2021 20:30:00 4.3 C 5.84 g/m*3 2.29 C 8.1 km/h
536 27-02-2021 20:35:00 4.5 C 5.92 g/m*3 3.02 C 6.4 km/h
537 27-02-2021 20:40:00 4.7 C 6 g/m*3 4.7 C 1.6 km/h
538 27-02-2021 20:45:00 4.8 C 5.97 g/m*3 4.8 C 0 km/h
539 27-02-2021 20:50:00 5.1 C 6.09 g/m*3 3.71 C 6.4 km/h
540 27-02-2021 20:55:00 5.4 C 6.14 g/m*3 3.58 C 8.1 km/h
541 27-02-2021 21:00:00 5.6 C 6.15 g/m*3 4.29 C 6.4 km/h
542 27-02-2021 21:05:00 5.7 C 6.19 g/m*3 4.4 C 6.4 km/h
543 27-02-2021 21:10:00 5.9 C 6.13 g/m*3 4.17 C 8.1 km/h
544 27-02-2021 21:15:00 5.9 C 6.13 g/m*3 5.9 C 4.8 km/h
545 27-02-2021 21:20:00 5.9 C 6.13 g/m*3 5.9 C 0 km/h
546 27-02-2021 21:25:00 5.9 C 6.13 g/m*3 5.9 C 4.8 km/h
547 27-02-2021 21:30:00 5.9 C 6.13 g/m*3 5.9 C 1.6 km/h
548 27-02-2021 21:35:00 5.9 C 6.13 g/m*3 5.9 C 0 km/h
549 27-02-2021 21:40:00 5.9 C 6.13 g/m*3 5.9 C 1.6 km/h
550 27-02-2021 21:45:00 5.9 C 6.13 g/m*3 5.9 C 1.6 km/h
Sensor: Nr:Datum:Temp:Abs-Feuchte:Windchill:Wind:
Aussen-T/F 551 27-02-2021 21:50:00 5.8 C 6.09 g/m*3 5.8 C 3.2 km/h
552 27-02-2021 21:55:00 5.8 C 6.09 g/m*3 5.8 C 3.2 km/h
553 27-02-2021 22:00:00 5.9 C 6.13 g/m*3 4.63 C 6.4 km/h
554 27-02-2021 22:05:00 5.9 C 6.13 g/m*3 5.9 C 1.6 km/h
555 27-02-2021 22:10:00 5.9 C 6.06 g/m*3 4.63 C 6.4 km/h
556 27-02-2021 22:15:00 6 C 6.1 g/m*3 4.75 C 6.4 km/h
557 27-02-2021 22:20:00 6 C 6.1 g/m*3 4.75 C 6.4 km/h
558 27-02-2021 22:25:00 5.9 C 6.06 g/m*3 3.8 C 9.7 km/h
559 27-02-2021 22:30:00 5.9 C 5.98 g/m*3 4.17 C 8.1 km/h
560 27-02-2021 22:35:00 5.9 C 5.98 g/m*3 4.17 C 8.1 km/h
561 27-02-2021 22:40:00 5.9 C 5.98 g/m*3 4.17 C 8.1 km/h
562 27-02-2021 22:45:00 5.8 C 5.95 g/m*3 5.8 C 3.2 km/h
563 27-02-2021 22:50:00 5.8 C 5.95 g/m*3 5.8 C 3.2 km/h
564 27-02-2021 22:55:00 5.8 C 5.95 g/m*3 5.8 C 3.2 km/h
565 27-02-2021 23:00:00 5.8 C 5.95 g/m*3 5.8 C 3.2 km/h
566 27-02-2021 23:05:00 5.8 C 5.95 g/m*3 5.8 C 1.6 km/h
567 27-02-2021 23:10:00 5.8 C 5.95 g/m*3 5.8 C 0 km/h
568 27-02-2021 23:15:00 5.8 C 5.95 g/m*3 5.8 C 1.6 km/h
569 27-02-2021 23:20:00 5.8 C 5.95 g/m*3 5.8 C 1.6 km/h
570 27-02-2021 23:25:00 5.8 C 5.95 g/m*3 5.8 C 0 km/h
571 27-02-2021 23:30:00 5.8 C 5.95 g/m*3 5.8 C 3.2 km/h
572 27-02-2021 23:35:00 5.8 C 5.95 g/m*3 5.8 C 1.6 km/h
573 27-02-2021 23:40:00 5.8 C 5.95 g/m*3 5.8 C 4.8 km/h
574 27-02-2021 23:45:00 5.8 C 5.87 g/m*3 4.52 C 6.4 km/h
575 27-02-2021 23:50:00 5.8 C 5.95 g/m*3 5.8 C 3.2 km/h
Sensor: Nr:Datum:Temp:Abs-Feuchte:Windchill:Wind:
Aussen-T/F 576 27-02-2021 23:55:00 5.8 C 5.95 g/m*3 5.8 C 4.8 km/h
577 28-02-2021 00:00:00 5.8 C 5.87 g/m*3 5.8 C 1.6 km/h
578 28-02-2021 00:05:00 5.8 C 5.87 g/m*3 5.8 C 1.6 km/h
579 28-02-2021 00:10:00 5.8 C 5.8 g/m*3 4.05 C 8.1 km/h
580 28-02-2021 00:15:00 5.8 C 5.87 g/m*3 5.8 C 0 km/h
581 28-02-2021 00:20:00 5.9 C 5.91 g/m*3 3.8 C 9.7 km/h
582 28-02-2021 00:25:00 5.9 C 5.91 g/m*3 5.9 C 0 km/h
583 28-02-2021 00:30:00 5.9 C 5.91 g/m*3 5.9 C 1.6 km/h
584 28-02-2021 00:35:00 5.8 C 5.8 g/m*3 5.8 C 3.2 km/h
585 28-02-2021 00:40:00 5.8 C 5.8 g/m*3 5.8 C 0 km/h
586 28-02-2021 00:45:00 5.8 C 5.87 g/m*3 5.8 C 1.6 km/h
587 28-02-2021 00:50:00 5.8 C 5.87 g/m*3 5.8 C 0 km/h
588 28-02-2021 00:55:00 5.8 C 5.8 g/m*3 4.05 C 8.1 km/h
589 28-02-2021 01:00:00 5.8 C 5.8 g/m*3 5.8 C 3.2 km/h
590 28-02-2021 01:05:00 5.8 C 5.8 g/m*3 5.8 C 4.8 km/h
591 28-02-2021 01:10:00 5.8 C 5.8 g/m*3 5.8 C 4.8 km/h
592 28-02-2021 01:15:00 5.8 C 5.8 g/m*3 4.52 C 6.4 km/h
593 28-02-2021 01:20:00 5.8 C 5.73 g/m*3 5.8 C 0 km/h
594 28-02-2021 01:25:00 5.8 C 5.8 g/m*3 5.8 C 3.2 km/h
595 28-02-2021 01:30:00 5.8 C 5.73 g/m*3 4.05 C 8.1 km/h
596 28-02-2021 01:35:00 5.8 C 5.73 g/m*3 3.68 C 9.7 km/h
597 28-02-2021 01:40:00 5.8 C 5.73 g/m*3 5.8 C 4.8 km/h
598 28-02-2021 01:45:00 5.9 C 5.7 g/m*3 4.17 C 8.1 km/h
599 28-02-2021 01:50:00 5.9 C 5.77 g/m*3 5.9 C 4.8 km/h
600 28-02-2021 01:55:00 5.9 C 5.77 g/m*3 5.9 C 4.8 km/h
Sensor: Nr:Datum:Temp:Abs-Feuchte:Windchill:Wind:
Aussen-T/F 601 28-02-2021 02:00:00 5.8 C 5.73 g/m*3 4.52 C 6.4 km/h
602 28-02-2021 02:05:00 5.8 C 5.73 g/m*3 5.8 C 1.6 km/h
603 28-02-2021 02:10:00 5.8 C 5.73 g/m*3 5.8 C 3.2 km/h
604 28-02-2021 02:15:00 5.7 C 5.69 g/m*3 5.7 C 3.2 km/h
605 28-02-2021 02:20:00 5.7 C 5.69 g/m*3 5.7 C 1.6 km/h
606 28-02-2021 02:25:00 5.7 C 5.76 g/m*3 5.7 C 0 km/h
607 28-02-2021 02:30:00 5.7 C 5.76 g/m*3 5.7 C 0 km/h
608 28-02-2021 02:35:00 5.6 C 5.73 g/m*3 3.81 C 8.1 km/h
609 28-02-2021 02:40:00 5.6 C 5.59 g/m*3 3.81 C 8.1 km/h
610 28-02-2021 02:45:00 5.6 C 5.59 g/m*3 5.6 C 3.2 km/h
611 28-02-2021 02:50:00 5.6 C 5.66 g/m*3 4.29 C 6.4 km/h
612 28-02-2021 02:55:00 5.6 C 5.66 g/m*3 5.6 C 4.8 km/h
613 28-02-2021 03:00:00 5.6 C 5.66 g/m*3 5.6 C 4.8 km/h
614 28-02-2021 03:05:00 5.6 C 5.59 g/m*3 5.6 C 4.8 km/h
615 28-02-2021 03:10:00 5.5 C 5.55 g/m*3 5.5 C 4.8 km/h
616 28-02-2021 03:15:00 5.5 C 5.55 g/m*3 5.5 C 3.2 km/h
617 28-02-2021 03:20:00 5.4 C 5.51 g/m*3 3.2 C 9.7 km/h
618 28-02-2021 03:25:00 5.4 C 5.44 g/m*3 3.58 C 8.1 km/h
619 28-02-2021 03:30:00 5.4 C 5.44 g/m*3 4.06 C 6.4 km/h
620 28-02-2021 03:35:00 5.4 C 5.37 g/m*3 3.2 C 9.7 km/h
621 28-02-2021 03:40:00 5.4 C 5.44 g/m*3 5.4 C 3.2 km/h
622 28-02-2021 03:45:00 5.4 C 5.44 g/m*3 5.4 C 3.2 km/h
623 28-02-2021 03:50:00 5.3 C 5.41 g/m*3 5.3 C 1.6 km/h
624 28-02-2021 03:55:00 5.3 C 5.41 g/m*3 5.3 C 1.6 km/h
625 28-02-2021 04:00:00 5.2 C 5.37 g/m*3 5.2 C 0 km/h
Sensor: Nr:Datum:Temp:Abs-Feuchte:Windchill:Wind:
Aussen-T/F 626 28-02-2021 04:05:00 5.2 C 5.37 g/m*3 5.2 C 3.2 km/h
627 28-02-2021 04:10:00 5.2 C 5.37 g/m*3 5.2 C 1.6 km/h
628 28-02-2021 04:15:00 5.2 C 5.44 g/m*3 5.2 C 0 km/h
629 28-02-2021 04:20:00 5.1 C 5.4 g/m*3 5.1 C 0 km/h
630 28-02-2021 04:25:00 5.1 C 5.47 g/m*3 5.1 C 0 km/h
631 28-02-2021 04:30:00 5 C 5.44 g/m*3 5 C 0 km/h
632 28-02-2021 04:35:00 4.9 C 5.47 g/m*3 4.9 C 0 km/h
633 28-02-2021 04:40:00 4.9 C 5.4 g/m*3 3.48 C 6.4 km/h
634 28-02-2021 04:45:00 5 C 5.44 g/m*3 5 C 3.2 km/h
635 28-02-2021 04:50:00 5 C 5.44 g/m*3 5 C 0 km/h
636 28-02-2021 04:55:00 5 C 5.44 g/m*3 5 C 1.6 km/h
637 28-02-2021 05:00:00 4.9 C 5.47 g/m*3 4.9 C 0 km/h
638 28-02-2021 05:05:00 4.9 C 5.4 g/m*3 4.9 C 1.6 km/h
639 28-02-2021 05:10:00 4.9 C 5.4 g/m*3 3.48 C 6.4 km/h
640 28-02-2021 05:15:00 5 C 5.44 g/m*3 3.59 C 6.4 km/h
641 28-02-2021 05:20:00 5 C 5.44 g/m*3 5 C 3.2 km/h
642 28-02-2021 05:25:00 5 C 5.44 g/m*3 5 C 0 km/h
643 28-02-2021 05:30:00 4.9 C 5.47 g/m*3 4.9 C 0 km/h
644 28-02-2021 05:35:00 4.7 C 5.4 g/m*3 4.7 C 0 km/h
645 28-02-2021 05:40:00 4.6 C 5.36 g/m*3 4.6 C 1.6 km/h
646 28-02-2021 05:45:00 4.5 C 5.32 g/m*3 4.5 C 3.2 km/h
647 28-02-2021 05:50:00 4.4 C 5.29 g/m*3 4.4 C 3.2 km/h
648 28-02-2021 05:55:00 4.3 C 5.32 g/m*3 4.3 C 0 km/h
649 28-02-2021 06:00:00 4.3 C 5.32 g/m*3 4.3 C 0 km/h
650 28-02-2021 06:05:00 4.2 C 5.35 g/m*3 4.2 C 1.6 km/h
Sensor: Nr:Datum:Temp:Abs-Feuchte:Windchill:Wind:
Aussen-T/F 651 28-02-2021 06:10:00 4.1 C 5.31 g/m*3 4.1 C 0 km/h
652 28-02-2021 06:15:00 3.9 C 5.24 g/m*3 3.9 C 0 km/h
653 28-02-2021 06:20:00 3.6 C 5.14 g/m*3 3.6 C 0 km/h
654 28-02-2021 06:25:00 3.3 C 5.04 g/m*3 3.3 C 0 km/h
655 28-02-2021 06:30:00 3.1 C 5.03 g/m*3 3.1 C 0 km/h
656 28-02-2021 06:35:00 2.9 C 4.96 g/m*3 2.9 C 3.2 km/h
657 28-02-2021 06:40:00 2.7 C 4.95 g/m*3 2.7 C 1.6 km/h
658 28-02-2021 06:45:00 2.6 C 4.92 g/m*3 2.6 C 0 km/h
659 28-02-2021 06:50:00 2.4 C 4.85 g/m*3 2.4 C 1.6 km/h
660 28-02-2021 06:55:00 2.3 C 4.88 g/m*3 2.3 C 0 km/h
661 28-02-2021 07:00:00 2.2 C 4.84 g/m*3 2.2 C 0 km/h
662 28-02-2021 07:05:00 2.1 C 4.87 g/m*3 2.1 C 1.6 km/h
663 28-02-2021 07:10:00 2 C 4.83 g/m*3 2 C 0 km/h
664 28-02-2021 07:15:00 1.9 C 4.86 g/m*3 1.9 C 1.6 km/h
665 28-02-2021 07:20:00 1.8 C 4.77 g/m*3 1.8 C 0 km/h
666 28-02-2021 07:25:00 1.6 C 4.7 g/m*3 1.6 C 0 km/h
667 28-02-2021 07:30:00 1.4 C 4.69 g/m*3 1.4 C 0 km/h
668 28-02-2021 07:35:00 1.3 C 4.66 g/m*3 1.3 C 0 km/h
669 28-02-2021 07:40:00 1.3 C 4.72 g/m*3 1.3 C 0 km/h
670 28-02-2021 07:45:00 1.2 C 4.68 g/m*3 1.2 C 0 km/h
671 28-02-2021 07:50:00 1.1 C 4.65 g/m*3 1.1 C 0 km/h
672 28-02-2021 07:55:00 1.1 C 4.7 g/m*3 1.1 C 0 km/h
673 28-02-2021 08:00:00 1 C 4.67 g/m*3 1 C 0 km/h
674 28-02-2021 08:05:00 1 C 4.67 g/m*3 1 C 0 km/h
675 28-02-2021 08:10:00 0.9 C 4.64 g/m*3 0.9 C 0 km/h
Sensor: Nr:Datum:Temp:Abs-Feuchte:Windchill:Wind:
Aussen-T/F 676 28-02-2021 08:15:00 0.9 C 4.69 g/m*3 0.9 C 0 km/h
677 28-02-2021 08:20:00 1 C 4.72 g/m*3 1 C 1.6 km/h
678 28-02-2021 08:25:00 1.1 C 4.76 g/m*3 1.1 C 0 km/h
679 28-02-2021 08:30:00 1.1 C 4.76 g/m*3 1.1 C 0 km/h
680 28-02-2021 08:35:00 1.1 C 4.76 g/m*3 1.1 C 1.6 km/h
681 28-02-2021 08:40:00 1.2 C 4.84 g/m*3 1.2 C 0 km/h
682 28-02-2021 08:45:00 1.2 C 4.84 g/m*3 1.2 C 0 km/h
683 28-02-2021 08:50:00 1.3 C 4.87 g/m*3 1.3 C 0 km/h
684 28-02-2021 08:55:00 1.3 C 4.87 g/m*3 1.3 C 3.2 km/h
685 28-02-2021 09:00:00 1.3 C 4.87 g/m*3 1.3 C 0 km/h
686 28-02-2021 09:05:00 1.4 C 4.91 g/m*3 1.4 C 1.6 km/h
687 28-02-2021 09:10:00 1.4 C 4.91 g/m*3 1.4 C 1.6 km/h
688 28-02-2021 09:15:00 1.5 C 4.94 g/m*3 1.5 C 1.6 km/h
689 28-02-2021 09:20:00 1.6 C 4.97 g/m*3 1.6 C 0 km/h
690 28-02-2021 09:25:00 1.6 C 4.97 g/m*3 1.6 C 1.6 km/h
691 28-02-2021 09:30:00 1.7 C 5.01 g/m*3 1.7 C 1.6 km/h
692 28-02-2021 09:35:00 1.7 C 5.01 g/m*3 1.7 C 3.2 km/h
693 28-02-2021 09:40:00 1.8 C 5.04 g/m*3 1.8 C 3.2 km/h
694 28-02-2021 09:45:00 1.9 C 5.08 g/m*3 1.9 C 4.8 km/h
695 28-02-2021 09:50:00 1.9 C 5.08 g/m*3 1.9 C 1.6 km/h
696 28-02-2021 09:55:00 2.1 C 5.15 g/m*3 2.1 C 0 km/h
697 28-02-2021 10:00:00 2.2 C 5.18 g/m*3 2.2 C 3.2 km/h
698 28-02-2021 10:05:00 2.3 C 5.22 g/m*3 2.3 C 3.2 km/h
699 28-02-2021 10:10:00 2.4 C 5.25 g/m*3 2.4 C 4.8 km/h
700 28-02-2021 10:15:00 2.7 C 5.36 g/m*3 2.7 C 4.8 km/h
Sensor: Nr:Datum:Temp:Abs-Feuchte:Windchill:Wind:
Aussen-T/F 701 28-02-2021 10:20:00 3 C 5.41 g/m*3 1.28 C 6.4 km/h
702 28-02-2021 10:25:00 3.4 C 5.5 g/m*3 3.4 C 3.2 km/h
703 28-02-2021 10:30:00 3.7 C 5.55 g/m*3 3.7 C 4.8 km/h
704 28-02-2021 10:35:00 4.1 C 5.57 g/m*3 2.55 C 6.4 km/h
705 28-02-2021 10:40:00 4.3 C 5.58 g/m*3 4.3 C 1.6 km/h
706 28-02-2021 10:45:00 4.6 C 5.62 g/m*3 4.6 C 3.2 km/h
707 28-02-2021 10:50:00 4.8 C 5.5 g/m*3 4.8 C 1.6 km/h
708 28-02-2021 10:55:00 5.1 C 5.68 g/m*3 5.1 C 1.6 km/h
709 28-02-2021 11:00:00 5.3 C 5.54 g/m*3 5.3 C 4.8 km/h
710 28-02-2021 11:05:00 5.7 C 5.62 g/m*3 5.7 C 4.8 km/h
711 28-02-2021 11:10:00 5.9 C 5.62 g/m*3 4.63 C 6.4 km/h
712 28-02-2021 11:15:00 6.2 C 5.59 g/m*3 4.52 C 8.1 km/h
713 28-02-2021 11:20:00 6.4 C 5.66 g/m*3 6.4 C 3.2 km/h
714 28-02-2021 11:25:00 6.6 C 5.66 g/m*3 6.6 C 3.2 km/h
715 28-02-2021 11:30:00 6.7 C 5.7 g/m*3 6.7 C 1.6 km/h
716 28-02-2021 11:35:00 6.9 C 5.7 g/m*3 4.99 C 9.7 km/h
717 28-02-2021 11:40:00 7.1 C 5.54 g/m*3 5.58 C 8.1 km/h
718 28-02-2021 11:45:00 7.2 C 5.57 g/m*3 5.69 C 8.1 km/h
719 28-02-2021 11:50:00 7.3 C 5.61 g/m*3 7.3 C 1.6 km/h
720 28-02-2021 11:55:00 7.4 C 5.65 g/m*3 7.4 C 3.2 km/h
721 28-02-2021 12:00:00 7.5 C 5.52 g/m*3 7.5 C 4.8 km/h
722 28-02-2021 12:05:00 7.7 C 5.68 g/m*3 7.7 C 4.8 km/h
723 28-02-2021 12:10:00 7.8 C 5.71 g/m*3 7.8 C 3.2 km/h
724 28-02-2021 12:15:00 7.9 C 5.59 g/m*3 7.9 C 4.8 km/h
725 28-02-2021 12:20:00 8.2 C 5.69 g/m*3 8.2 C 1.6 km/h
Sensor: Nr:Datum:Temp:Abs-Feuchte:Windchill:Wind:
Aussen-T/F 726 28-02-2021 12:25:00 8.3 C 5.73 g/m*3 8.3 C 1.6 km/h
727 28-02-2021 12:30:00 8.6 C 5.67 g/m*3 7.34 C 8.1 km/h
728 28-02-2021 12:35:00 8.7 C 5.71 g/m*3 7.87 C 6.4 km/h
729 28-02-2021 12:40:00 8.8 C 5.66 g/m*3 7.98 C 6.4 km/h
730 28-02-2021 12:45:00 8.8 C 5.57 g/m*3 7.98 C 6.4 km/h
731 28-02-2021 12:50:00 8.9 C 5.69 g/m*3 8.9 C 0 km/h
732 28-02-2021 12:55:00 8.9 C 5.69 g/m*3 8.1 C 6.4 km/h
733 28-02-2021 13:00:00 9.1 C 5.77 g/m*3 8.33 C 6.4 km/h
734 28-02-2021 13:05:00 9.2 C 5.8 g/m*3 9.2 C 1.6 km/h
735 28-02-2021 13:10:00 9.3 C 5.75 g/m*3 9.3 C 4.8 km/h
736 28-02-2021 13:15:00 9.5 C 5.73 g/m*3 9.5 C 4.8 km/h
737 28-02-2021 13:20:00 9.6 C 5.77 g/m*3 9.6 C 0 km/h
738 28-02-2021 13:25:00 9.8 C 5.85 g/m*3 9.8 C 0 km/h
739 28-02-2021 13:30:00 9.9 C 5.7 g/m*3 9.9 C 3.2 km/h
740 28-02-2021 13:35:00 10.1 C 5.77 g/m*3 9.48 C 6.4 km/h
741 28-02-2021 13:40:00 10.2 C 5.71 g/m*3 10.2 C 3.2 km/h
742 28-02-2021 13:45:00 10.4 C 5.78 g/m*3 10.4 C 4.8 km/h
743 28-02-2021 13:50:00 10.6 C 5.86 g/m*3 10.6 C 3.2 km/h
744 28-02-2021 13:55:00 10.8 C 5.83 g/m*3 10.8 C 4.8 km/h
745 28-02-2021 14:00:00 11.1 C 5.74 g/m*3 11.1 C 6.4 km/h
746 28-02-2021 14:05:00 11.3 C 5.61 g/m*3 11.3 C 3.2 km/h
747 28-02-2021 14:10:00 11.4 C 5.65 g/m*3 11.4 C 6.4 km/h
748 28-02-2021 14:15:00 11.5 C 5.68 g/m*3 11.5 C 6.4 km/h
749 28-02-2021 14:20:00 11.4 C 5.54 g/m*3 11.4 C 11.3 km/h
750 28-02-2021 14:25:00 11.3 C 5.41 g/m*3 11.3 C 12.9 km/h
Sensor: Nr:Datum:Temp:Abs-Feuchte:Windchill:Wind:
Aussen-T/F 751 28-02-2021 14:30:00 11.3 C 5.3 g/m*3 11.3 C 17.7 km/h
752 28-02-2021 14:35:00 11.2 C 5.27 g/m*3 11.2 C 17.7 km/h
753 28-02-2021 14:40:00 11.3 C 5.51 g/m*3 11.3 C 14.5 km/h
754 28-02-2021 14:45:00 11.3 C 5.41 g/m*3 11.3 C 14.5 km/h
755 28-02-2021 14:50:00 11.3 C 5.3 g/m*3 11.3 C 14.5 km/h
756 28-02-2021 14:55:00 11.3 C 5.51 g/m*3 11.3 C 3.2 km/h
757 28-02-2021 15:00:00 11.3 C 5.2 g/m*3 11.3 C 4.8 km/h
758 28-02-2021 15:05:00 11.4 C 5.23 g/m*3 11.4 C 14.5 km/h
759 28-02-2021 15:10:00 11.4 C 5.34 g/m*3 11.4 C 9.7 km/h
760 28-02-2021 15:15:00 11.5 C 5.16 g/m*3 11.5 C 11.3 km/h
761 28-02-2021 15:20:00 11.5 C 5.27 g/m*3 11.5 C 9.7 km/h
762 28-02-2021 15:25:00 11.5 C 5.68 g/m*3 11.5 C 6.4 km/h
763 28-02-2021 15:30:00 11.6 C 5.3 g/m*3 11.6 C 9.7 km/h
764 28-02-2021 15:35:00 11.7 C 5.33 g/m*3 11.7 C 0 km/h
765 28-02-2021 15:40:00 11.8 C 5.05 g/m*3 11.8 C 11.3 km/h
766 28-02-2021 15:45:00 11.8 C 5.05 g/m*3 11.8 C 11.3 km/h
767 28-02-2021 15:50:00 12 C 5.22 g/m*3 12 C 12.9 km/h
768 28-02-2021 15:55:00 12.1 C 5.15 g/m*3 12.1 C 12.9 km/h
769 28-02-2021 16:00:00 12.2 C 5.29 g/m*3 12.2 C 8.1 km/h
770 28-02-2021 16:05:00 12.3 C 5.21 g/m*3 12.3 C 0 km/h
771 28-02-2021 16:10:00 12.3 C 5.21 g/m*3 12.3 C 1.6 km/h
772 28-02-2021 16:15:00 12.3 C 5.1 g/m*3 12.3 C 4.8 km/h
773 28-02-2021 16:20:00 12.4 C 5.68 g/m*3 12.4 C 8.1 km/h
774 28-02-2021 16:25:00 12.4 C 5.35 g/m*3 12.4 C 6.4 km/h
775 28-02-2021 16:30:00 12.4 C 5.24 g/m*3 12.4 C 4.8 km/h
Sensor: Nr:Datum:Temp:Abs-Feuchte:Windchill:Wind:
Aussen-T/F 776 28-02-2021 16:35:00 12.4 C 5.35 g/m*3 12.4 C 14.5 km/h
777 28-02-2021 16:40:00 12.4 C 4.92 g/m*3 12.4 C 9.7 km/h
778 28-02-2021 16:45:00 12.4 C 4.81 g/m*3 12.4 C 9.7 km/h
779 28-02-2021 16:50:00 12.4 C 5.57 g/m*3 12.4 C 6.4 km/h
780 28-02-2021 16:55:00 12.3 C 5.32 g/m*3 12.3 C 4.8 km/h
781 28-02-2021 17:00:00 12.3 C 5.43 g/m*3 12.3 C 0 km/h
782 28-02-2021 17:05:00 12.4 C 5.57 g/m*3 12.4 C 0 km/h
783 28-02-2021 17:10:00 12.4 C 5.9 g/m*3 12.4 C 0 km/h
784 28-02-2021 17:15:00 12.4 C 6.01 g/m*3 12.4 C 0 km/h
785 28-02-2021 17:20:00 12.5 C 5.61 g/m*3 12.5 C 0 km/h
786 28-02-2021 17:25:00 12.5 C 5.83 g/m*3 12.5 C 0 km/h
787 28-02-2021 17:30:00 12.4 C 6.12 g/m*3 12.4 C 6.4 km/h
788 28-02-2021 17:35:00 12.2 C 6.04 g/m*3 12.2 C 0 km/h
789 28-02-2021 17:40:00 11.9 C 6.14 g/m*3 11.9 C 0 km/h
790 28-02-2021 17:45:00 11.5 C 5.99 g/m*3 11.5 C 6.4 km/h
791 28-02-2021 17:50:00 11.1 C 5.94 g/m*3 11.1 C 6.4 km/h
792 28-02-2021 17:55:00 10.5 C 5.82 g/m*3 9.57 C 8.1 km/h
793 28-02-2021 18:00:00 9.9 C 5.79 g/m*3 9.25 C 6.4 km/h
794 28-02-2021 18:05:00 9.4 C 5.7 g/m*3 9.4 C 4.8 km/h
795 28-02-2021 18:10:00 8.9 C 5.69 g/m*3 8.1 C 6.4 km/h
796 28-02-2021 18:15:00 8.4 C 5.6 g/m*3 7.52 C 6.4 km/h
797 28-02-2021 18:20:00 8 C 5.62 g/m*3 7.06 C 6.4 km/h
798 28-02-2021 18:25:00 7.6 C 5.56 g/m*3 6.6 C 6.4 km/h
799 28-02-2021 18:30:00 7.3 C 5.53 g/m*3 6.25 C 6.4 km/h
800 28-02-2021 18:35:00 7.1 C 5.54 g/m*3 6.02 C 6.4 km/h
Sensor: Nr:Datum:Temp:Abs-Feuchte:Windchill:Wind:
Aussen-T/F 801 28-02-2021 18:40:00 6.8 C 5.51 g/m*3 5.67 C 6.4 km/h
802 28-02-2021 18:45:00 6.6 C 5.44 g/m*3 5.44 C 6.4 km/h
803 28-02-2021 18:50:00 6.4 C 5.44 g/m*3 5.21 C 6.4 km/h
804 28-02-2021 18:55:00 6.3 C 5.48 g/m*3 5.1 C 6.4 km/h
805 28-02-2021 19:00:00 6.2 C 5.44 g/m*3 4.52 C 8.1 km/h
806 28-02-2021 19:05:00 6 C 5.44 g/m*3 4.75 C 6.4 km/h
807 28-02-2021 19:10:00 5.9 C 5.41 g/m*3 4.63 C 6.4 km/h
808 28-02-2021 19:15:00 5.8 C 5.44 g/m*3 4.52 C 6.4 km/h
809 28-02-2021 19:20:00 5.7 C 5.41 g/m*3 5.7 C 4.8 km/h
810 28-02-2021 19:25:00 5.6 C 5.44 g/m*3 3.81 C 8.1 km/h
811 28-02-2021 19:30:00 5.5 C 5.41 g/m*3 5.5 C 4.8 km/h
812 28-02-2021 19:35:00 5.4 C 5.44 g/m*3 5.4 C 4.8 km/h
813 28-02-2021 19:40:00 5.3 C 5.41 g/m*3 5.3 C 4.8 km/h
814 28-02-2021 19:45:00 5.2 C 5.44 g/m*3 3.82 C 6.4 km/h
815 28-02-2021 19:50:00 5.2 C 5.44 g/m*3 3.82 C 6.4 km/h
816 28-02-2021 19:55:00 5.1 C 5.47 g/m*3 5.1 C 4.8 km/h
817 28-02-2021 20:00:00 4.9 C 5.4 g/m*3 3.48 C 6.4 km/h
818 28-02-2021 20:05:00 4.8 C 5.43 g/m*3 4.8 C 4.8 km/h
819 28-02-2021 20:10:00 4.8 C 5.43 g/m*3 4.8 C 4.8 km/h
820 28-02-2021 20:15:00 4.7 C 5.4 g/m*3 4.7 C 3.2 km/h
821 28-02-2021 20:20:00 4.6 C 5.43 g/m*3 4.6 C 4.8 km/h
822 28-02-2021 20:25:00 4.5 C 5.39 g/m*3 4.5 C 4.8 km/h
823 28-02-2021 20:30:00 4.4 C 5.35 g/m*3 4.4 C 4.8 km/h
824 28-02-2021 20:35:00 4.3 C 5.38 g/m*3 4.3 C 4.8 km/h
825 28-02-2021 20:40:00 4.2 C 5.35 g/m*3 4.2 C 4.8 km/h
Sensor: Nr:Datum:Temp:Abs-Feuchte:Windchill:Wind:
Aussen-T/F 826 28-02-2021 20:45:00 4.1 C 5.31 g/m*3 4.1 C 4.8 km/h
827 28-02-2021 20:50:00 4 C 5.34 g/m*3 4 C 3.2 km/h
828 28-02-2021 20:55:00 3.8 C 5.27 g/m*3 3.8 C 0 km/h
829 28-02-2021 21:00:00 3.8 C 5.27 g/m*3 3.8 C 0 km/h
830 28-02-2021 21:05:00 3.6 C 5.2 g/m*3 3.6 C 0 km/h
831 28-02-2021 21:10:00 3.4 C 5.13 g/m*3 3.4 C 0 km/h
832 28-02-2021 21:15:00 3.3 C 5.16 g/m*3 3.3 C 0 km/h
833 28-02-2021 21:20:00 3.2 C 5.12 g/m*3 3.2 C 0 km/h
834 28-02-2021 21:25:00 3.1 C 5.15 g/m*3 3.1 C 0 km/h
835 28-02-2021 21:30:00 2.9 C 5.14 g/m*3 2.9 C 0 km/h
836 28-02-2021 21:35:00 2.9 C 5.14 g/m*3 2.9 C 0 km/h
837 28-02-2021 21:40:00 2.9 C 5.2 g/m*3 2.9 C 0 km/h
838 28-02-2021 21:45:00 2.9 C 5.2 g/m*3 2.9 C 0 km/h
839 28-02-2021 21:50:00 2.9 C 5.2 g/m*3 2.9 C 0 km/h
840 28-02-2021 21:55:00 2.8 C 5.16 g/m*3 2.8 C 0 km/h
841 28-02-2021 22:00:00 2.7 C 5.13 g/m*3 2.7 C 0 km/h
842 28-02-2021 22:05:00 2.6 C 5.09 g/m*3 2.6 C 0 km/h
843 28-02-2021 22:10:00 2.6 C 5.15 g/m*3 2.6 C 0 km/h
844 28-02-2021 22:15:00 2.5 C 5.12 g/m*3 2.5 C 0 km/h
845 28-02-2021 22:20:00 2.4 C 5.08 g/m*3 2.4 C 0 km/h
846 28-02-2021 22:25:00 2.3 C 5.05 g/m*3 2.3 C 0 km/h
847 28-02-2021 22:30:00 2.3 C 5.05 g/m*3 2.3 C 0 km/h
848 28-02-2021 22:35:00 2.1 C 4.98 g/m*3 2.1 C 0 km/h
849 28-02-2021 22:40:00 2.1 C 4.98 g/m*3 2.1 C 0 km/h
850 28-02-2021 22:45:00 2 C 4.95 g/m*3 2 C 0 km/h
Sensor: Nr:Datum:Temp:Abs-Feuchte:Windchill:Wind:
Aussen-T/F 851 28-02-2021 22:50:00 1.9 C 4.91 g/m*3 1.9 C 0 km/h
852 28-02-2021 22:55:00 1.8 C 4.88 g/m*3 1.8 C 0 km/h
853 28-02-2021 23:00:00 1.7 C 4.9 g/m*3 1.7 C 0 km/h
854 28-02-2021 23:05:00 1.6 C 4.87 g/m*3 1.6 C 0 km/h
855 28-02-2021 23:10:00 1.4 C 4.8 g/m*3 1.4 C 0 km/h
856 28-02-2021 23:15:00 1.3 C 4.77 g/m*3 1.3 C 0 km/h
857 28-02-2021 23:20:00 1.3 C 4.77 g/m*3 1.3 C 0 km/h
858 28-02-2021 23:25:00 1.2 C 4.79 g/m*3 1.2 C 0 km/h
859 28-02-2021 23:30:00 1.2 C 4.79 g/m*3 1.2 C 0 km/h
860 28-02-2021 23:35:00 1.1 C 4.76 g/m*3 1.1 C 0 km/h
861 28-02-2021 23:40:00 1.1 C 4.76 g/m*3 1.1 C 0 km/h
862 28-02-2021 23:45:00 1 C 4.72 g/m*3 1 C 0 km/h
863 28-02-2021 23:50:00 1 C 4.72 g/m*3 1 C 0 km/h
864 28-02-2021 23:55:00 1 C 4.78 g/m*3 1 C 0 km/h
865 01-03-2021 00:00:00 1 C 4.78 g/m*3 1 C 0 km/h
866 01-03-2021 00:05:00 0.9 C 4.74 g/m*3 0.9 C 0 km/h
867 01-03-2021 00:10:00 0.9 C 4.74 g/m*3 0.9 C 0 km/h
868 01-03-2021 00:15:00 0.9 C 4.74 g/m*3 0.9 C 0 km/h
869 01-03-2021 00:20:00 0.8 C 4.71 g/m*3 0.8 C 0 km/h
870 01-03-2021 00:25:00 0.8 C 4.71 g/m*3 0.8 C 0 km/h
871 01-03-2021 00:30:00 0.7 C 4.68 g/m*3 0.7 C 0 km/h
872 01-03-2021 00:35:00 0.7 C 4.68 g/m*3 0.7 C 0 km/h
873 01-03-2021 00:40:00 0.7 C 4.73 g/m*3 0.7 C 0 km/h
874 01-03-2021 00:45:00 0.7 C 4.68 g/m*3 0.7 C 0 km/h
875 01-03-2021 00:50:00 0.6 C 4.65 g/m*3 0.6 C 0 km/h
Sensor: Nr:Datum:Temp:Abs-Feuchte:Windchill:Wind:
Aussen-T/F 876 01-03-2021 00:55:00 0.5 C 4.61 g/m*3 0.5 C 0 km/h
877 01-03-2021 01:00:00 0.4 C 4.58 g/m*3 0.4 C 0 km/h
878 01-03-2021 01:05:00 0.4 C 4.63 g/m*3 0.4 C 0 km/h
879 01-03-2021 01:10:00 0.3 C 4.6 g/m*3 0.3 C 0 km/h
880 01-03-2021 01:15:00 0.3 C 4.6 g/m*3 0.3 C 0 km/h
881 01-03-2021 01:20:00 0.2 C 4.57 g/m*3 0.2 C 0 km/h
882 01-03-2021 01:25:00 0.2 C 4.57 g/m*3 0.2 C 0 km/h
883 01-03-2021 01:30:00 0.1 C 4.54 g/m*3 0.1 C 0 km/h
884 01-03-2021 01:35:00 0 C 4.51 g/m*3 0 C 0 km/h
885 01-03-2021 01:40:00 -0.1 C 4.47 g/m*3 -0.1 C 0 km/h
886 01-03-2021 01:45:00 -0.2 C 4.44 g/m*3 -0.2 C 0 km/h
887 01-03-2021 01:50:00 -0.2 C 4.44 g/m*3 -0.2 C 0 km/h
888 01-03-2021 01:55:00 -0.2 C 4.44 g/m*3 -0.2 C 0 km/h
889 01-03-2021 02:00:00 -0.2 C 4.44 g/m*3 -0.2 C 0 km/h
890 01-03-2021 02:05:00 -0.1 C 4.47 g/m*3 -0.1 C 0 km/h
891 01-03-2021 02:10:00 -0.1 C 4.52 g/m*3 -0.1 C 0 km/h
892 01-03-2021 02:15:00 -0.2 C 4.44 g/m*3 -0.2 C 0 km/h
893 01-03-2021 02:20:00 -0.2 C 4.44 g/m*3 -0.2 C 0 km/h
894 01-03-2021 02:25:00 -0.2 C 4.49 g/m*3 -0.2 C 0 km/h
895 01-03-2021 02:30:00 -0.3 C 4.46 g/m*3 -0.3 C 0 km/h
896 01-03-2021 02:35:00 -0.3 C 4.46 g/m*3 -0.3 C 0 km/h
897 01-03-2021 02:40:00 -0.3 C 4.46 g/m*3 -0.3 C 0 km/h
898 01-03-2021 02:45:00 -0.4 C 4.43 g/m*3 -0.4 C 0 km/h
899 01-03-2021 02:50:00 -0.4 C 4.43 g/m*3 -0.4 C 0 km/h
900 01-03-2021 02:55:00 -0.4 C 4.43 g/m*3 -0.4 C 0 km/h
Sensor: Nr:Datum:Temp:Abs-Feuchte:Windchill:Wind:
Aussen-T/F 901 01-03-2021 03:00:00 -0.4 C 4.43 g/m*3 -0.4 C 0 km/h
902 01-03-2021 03:05:00 -0.4 C 4.43 g/m*3 -0.4 C 0 km/h
903 01-03-2021 03:10:00 -0.5 C 4.4 g/m*3 -0.5 C 0 km/h
904 01-03-2021 03:15:00 -0.5 C 4.4 g/m*3 -0.5 C 0 km/h
905 01-03-2021 03:20:00 -0.6 C 4.37 g/m*3 -0.6 C 0 km/h
906 01-03-2021 03:25:00 -0.6 C 4.37 g/m*3 -0.6 C 0 km/h
907 01-03-2021 03:30:00 -0.6 C 4.37 g/m*3 -0.6 C 0 km/h
908 01-03-2021 03:35:00 -0.5 C 4.4 g/m*3 -0.5 C 0 km/h
909 01-03-2021 03:40:00 -0.6 C 4.37 g/m*3 -0.6 C 0 km/h
910 01-03-2021 03:45:00 -0.6 C 4.37 g/m*3 -0.6 C 0 km/h
911 01-03-2021 03:50:00 -0.7 C 4.34 g/m*3 -0.7 C 0 km/h
912 01-03-2021 03:55:00 -0.7 C 4.34 g/m*3 -0.7 C 0 km/h
913 01-03-2021 04:00:00 -0.7 C 4.34 g/m*3 -0.7 C 0 km/h
914 01-03-2021 04:05:00 -0.7 C 4.34 g/m*3 -0.7 C 0 km/h
915 01-03-2021 04:10:00 -0.8 C 4.31 g/m*3 -0.8 C 0 km/h
916 01-03-2021 04:15:00 -0.8 C 4.31 g/m*3 -0.8 C 0 km/h
917 01-03-2021 04:20:00 -0.8 C 4.31 g/m*3 -0.8 C 0 km/h
918 01-03-2021 04:25:00 -0.9 C 4.28 g/m*3 -0.9 C 0 km/h
919 01-03-2021 04:30:00 -1 C 4.25 g/m*3 -1 C 0 km/h
920 01-03-2021 04:35:00 -1 C 4.25 g/m*3 -1 C 0 km/h
921 01-03-2021 04:40:00 -1 C 4.29 g/m*3 -1 C 0 km/h
922 01-03-2021 04:45:00 -1 C 4.29 g/m*3 -1 C 0 km/h
923 01-03-2021 04:50:00 -1 C 4.29 g/m*3 -1 C 0 km/h
924 01-03-2021 04:55:00 -1.1 C 4.26 g/m*3 -1.1 C 0 km/h
925 01-03-2021 05:00:00 -1.1 C 4.22 g/m*3 -1.1 C 0 km/h
Sensor: Nr:Datum:Temp:Abs-Feuchte:Windchill:Wind:
Aussen-T/F 926 01-03-2021 05:05:00 -1.2 C 4.19 g/m*3 -1.2 C 0 km/h
927 01-03-2021 05:10:00 -1.2 C 4.19 g/m*3 -1.2 C 0 km/h
928 01-03-2021 05:15:00 -1.3 C 4.21 g/m*3 -1.3 C 0 km/h
929 01-03-2021 05:20:00 -1.3 C 4.21 g/m*3 -1.3 C 0 km/h
930 01-03-2021 05:25:00 -1.3 C 4.16 g/m*3 -1.3 C 0 km/h
931 01-03-2021 05:30:00 -1.3 C 4.21 g/m*3 -1.3 C 0 km/h
932 01-03-2021 05:35:00 -1.3 C 4.21 g/m*3 -1.3 C 0 km/h
933 01-03-2021 05:40:00 -1.3 C 4.21 g/m*3 -1.3 C 0 km/h
934 01-03-2021 05:45:00 -1.3 C 4.21 g/m*3 -1.3 C 0 km/h
935 01-03-2021 05:50:00 -1.3 C 4.21 g/m*3 -1.3 C 0 km/h
936 01-03-2021 05:55:00 -1.4 C 4.18 g/m*3 -1.4 C 0 km/h
937 01-03-2021 06:00:00 -1.4 C 4.18 g/m*3 -1.4 C 0 km/h
938 01-03-2021 06:05:00 -1.5 C 4.15 g/m*3 -1.5 C 0 km/h
939 01-03-2021 06:10:00 -1.5 C 4.15 g/m*3 -1.5 C 0 km/h
940 01-03-2021 06:15:00 -1.6 C 4.12 g/m*3 -1.6 C 1.6 km/h
941 01-03-2021 06:20:00 -1.6 C 4.12 g/m*3 -1.6 C 0 km/h
942 01-03-2021 06:25:00 -1.6 C 4.12 g/m*3 -1.6 C 0 km/h
943 01-03-2021 06:30:00 -1.5 C 4.15 g/m*3 -1.5 C 0 km/h
944 01-03-2021 06:35:00 -1.4 C 4.18 g/m*3 -1.4 C 0 km/h
945 01-03-2021 06:40:00 -1.4 C 4.18 g/m*3 -1.4 C 0 km/h
946 01-03-2021 06:45:00 -1.4 C 4.18 g/m*3 -1.4 C 0 km/h
947 01-03-2021 06:50:00 -1.4 C 4.18 g/m*3 -1.4 C 0 km/h
948 01-03-2021 06:55:00 -1.4 C 4.18 g/m*3 -1.4 C 0 km/h
949 01-03-2021 07:00:00 -1.5 C 4.15 g/m*3 -1.5 C 0 km/h
950 01-03-2021 07:05:00 -1.6 C 4.12 g/m*3 -1.6 C 0 km/h
Sensor: Nr:Datum:Temp:Abs-Feuchte:Windchill:Wind:
Aussen-T/F 951 01-03-2021 07:10:00 -1.7 C 4.09 g/m*3 -1.7 C 0 km/h
952 01-03-2021 07:15:00 -1.7 C 4.09 g/m*3 -1.7 C 0 km/h
953 01-03-2021 07:20:00 -1.8 C 4.06 g/m*3 -1.8 C 0 km/h
954 01-03-2021 07:25:00 -1.8 C 4.06 g/m*3 -1.8 C 0 km/h
955 01-03-2021 07:30:00 -1.8 C 4.06 g/m*3 -1.8 C 0 km/h
956 01-03-2021 07:35:00 -1.8 C 4.06 g/m*3 -1.8 C 0 km/h
957 01-03-2021 07:40:00 -1.8 C 4.06 g/m*3 -1.8 C 0 km/h
958 01-03-2021 07:45:00 -1.7 C 4.09 g/m*3 -1.7 C 0 km/h
959 01-03-2021 07:50:00 -1.7 C 4.09 g/m*3 -1.7 C 0 km/h
960 01-03-2021 07:55:00 -1.7 C 4.09 g/m*3 -1.7 C 0 km/h
961 01-03-2021 08:00:00 -1.7 C 4.09 g/m*3 -1.7 C 0 km/h
962 01-03-2021 08:05:00 -1.6 C 4.12 g/m*3 -1.6 C 0 km/h
963 01-03-2021 08:10:00 -1.6 C 4.12 g/m*3 -1.6 C 0 km/h
964 01-03-2021 08:15:00 -1.6 C 4.12 g/m*3 -1.6 C 0 km/h
965 01-03-2021 08:20:00 -1.6 C 4.12 g/m*3 -1.6 C 0 km/h
966 01-03-2021 08:25:00 -1.5 C 4.15 g/m*3 -1.5 C 0 km/h
967 01-03-2021 08:30:00 -1.4 C 4.18 g/m*3 -1.4 C 0 km/h
968 01-03-2021 08:35:00 -1.4 C 4.18 g/m*3 -1.4 C 0 km/h
969 01-03-2021 08:40:00 -1.3 C 4.21 g/m*3 -1.3 C 0 km/h
970 01-03-2021 08:45:00 -1.3 C 4.21 g/m*3 -1.3 C 0 km/h
971 01-03-2021 08:50:00 -1.2 C 4.24 g/m*3 -1.2 C 0 km/h
972 01-03-2021 08:55:00 -1.2 C 4.28 g/m*3 -1.2 C 0 km/h
973 01-03-2021 09:00:00 -1.1 C 4.26 g/m*3 -1.1 C 0 km/h
974 01-03-2021 09:05:00 -1 C 4.29 g/m*3 -1 C 0 km/h
975 01-03-2021 09:10:00 -0.9 C 4.37 g/m*3 -0.9 C 0 km/h
Sensor: Nr:Datum:Temp:Abs-Feuchte:Windchill:Wind:
Aussen-T/F 976 01-03-2021 09:15:00 -0.9 C 4.37 g/m*3 -0.9 C 0 km/h
977 01-03-2021 09:20:00 -0.8 C 4.4 g/m*3 -0.8 C 0 km/h
978 01-03-2021 09:25:00 -0.7 C 4.43 g/m*3 -0.7 C 0 km/h
979 01-03-2021 09:30:00 -0.6 C 4.46 g/m*3 -0.6 C 0 km/h
980 01-03-2021 09:35:00 -0.4 C 4.52 g/m*3 -0.4 C 0 km/h
981 01-03-2021 09:40:00 -0.3 C 4.56 g/m*3 -0.3 C 0 km/h
982 01-03-2021 09:45:00 -0.2 C 4.59 g/m*3 -0.2 C 0 km/h
983 01-03-2021 09:50:00 -0.1 C 4.62 g/m*3 -0.1 C 0 km/h
984 01-03-2021 09:55:00 0.1 C 4.68 g/m*3 0.1 C 0 km/h
985 01-03-2021 10:00:00 0.2 C 4.72 g/m*3 0.2 C 0 km/h
986 01-03-2021 10:05:00 0.3 C 4.75 g/m*3 0.3 C 0 km/h
987 01-03-2021 10:10:00 0.4 C 4.78 g/m*3 0.4 C 1.6 km/h
988 01-03-2021 10:15:00 0.7 C 4.88 g/m*3 0.7 C 1.6 km/h
989 01-03-2021 10:20:00 0.9 C 4.95 g/m*3 0.9 C 1.6 km/h
990 01-03-2021 10:25:00 1.2 C 5.05 g/m*3 1.2 C 0 km/h
991 01-03-2021 10:30:00 1.4 C 5.12 g/m*3 1.4 C 1.6 km/h
992 01-03-2021 10:35:00 1.7 C 5.28 g/m*3 1.7 C 1.6 km/h
993 01-03-2021 10:40:00 1.9 C 5.35 g/m*3 1.9 C 3.2 km/h
994 01-03-2021 10:45:00 2.2 C 5.46 g/m*3 2.2 C 3.2 km/h
995 01-03-2021 10:50:00 2.3 C 5.5 g/m*3 2.3 C 4.8 km/h
996 01-03-2021 10:55:00 2.6 C 5.61 g/m*3 2.6 C 4.8 km/h
997 01-03-2021 11:00:00 2.8 C 5.69 g/m*3 2.8 C 4.8 km/h
998 01-03-2021 11:05:00 3.1 C 5.81 g/m*3 1.4 C 6.4 km/h
999 01-03-2021 11:10:00 3.3 C 5.88 g/m*3 1.11 C 8.1 km/h
1000 01-03-2021 11:15:00 3.4 C 5.92 g/m*3 3.4 C 4.8 km/h
Sensor: Nr:Datum:Temp:Abs-Feuchte:Windchill:Wind:
Aussen-T/F 1001 01-03-2021 11:20:00 3.6 C 6 g/m*3 3.6 C 1.6 km/h
1002 01-03-2021 11:25:00 3.8 C 6.02 g/m*3 3.8 C 1.6 km/h
1003 01-03-2021 11:30:00 4 C 6.1 g/m*3 4 C 1.6 km/h
1004 01-03-2021 11:35:00 4.2 C 6.12 g/m*3 1.43 C 11.3 km/h
1005 01-03-2021 11:40:00 4.3 C 6.1 g/m*3 1.55 C 11.3 km/h
1006 01-03-2021 11:45:00 4.6 C 6.15 g/m*3 2.64 C 8.1 km/h
1007 01-03-2021 11:50:00 4.8 C 6.1 g/m*3 2.87 C 8.1 km/h
1008 01-03-2021 11:55:00 4.9 C 6.08 g/m*3 3.48 C 6.4 km/h
1009 01-03-2021 12:00:00 5.2 C 6.06 g/m*3 3.82 C 6.4 km/h
1010 01-03-2021 12:05:00 5.6 C 6.15 g/m*3 5.6 C 4.8 km/h
1011 01-03-2021 12:10:00 5.9 C 6.06 g/m*3 4.63 C 6.4 km/h
1012 01-03-2021 12:15:00 6.2 C 6.03 g/m*3 4.98 C 6.4 km/h
1013 01-03-2021 12:20:00 6.6 C 6.11 g/m*3 5.44 C 6.4 km/h
1014 01-03-2021 12:25:00 6.8 C 6.12 g/m*3 6.8 C 4.8 km/h
1015 01-03-2021 12:30:00 7.2 C 6.28 g/m*3 6.13 C 6.4 km/h
1016 01-03-2021 12:35:00 7.6 C 6.28 g/m*3 6.6 C 6.4 km/h
1017 01-03-2021 12:40:00 7.9 C 6.24 g/m*3 7.9 C 4.8 km/h
1018 01-03-2021 12:45:00 8.2 C 6.36 g/m*3 8.2 C 4.8 km/h
1019 01-03-2021 12:50:00 8.3 C 6.24 g/m*3 8.3 C 4.8 km/h
1020 01-03-2021 12:55:00 8.5 C 6.32 g/m*3 8.5 C 4.8 km/h
1021 01-03-2021 13:00:00 8.7 C 6.4 g/m*3 8.7 C 3.2 km/h
1022 01-03-2021 13:05:00 8.9 C 6.31 g/m*3 8.9 C 4.8 km/h
1023 01-03-2021 13:10:00 9.1 C 6.3 g/m*3 9.1 C 4.8 km/h
1024 01-03-2021 13:15:00 9.4 C 6.42 g/m*3 9.4 C 4.8 km/h
1025 01-03-2021 13:20:00 9.6 C 6.32 g/m*3 8.91 C 6.4 km/h
Sensor: Nr:Datum:Temp:Abs-Feuchte:Windchill:Wind:
Aussen-T/F 1026 01-03-2021 13:25:00 9.8 C 6.31 g/m*3 9.8 C 4.8 km/h
1027 01-03-2021 13:30:00 10.1 C 6.34 g/m*3 10.1 C 4.8 km/h
1028 01-03-2021 13:35:00 10.3 C 6.22 g/m*3 8.78 C 11.3 km/h
1029 01-03-2021 13:40:00 10.4 C 6.26 g/m*3 9.83 C 6.4 km/h
1030 01-03-2021 13:45:00 10.5 C 6.21 g/m*3 9.57 C 8.1 km/h
1031 01-03-2021 13:50:00 10.7 C 6.19 g/m*3 10.7 C 4.8 km/h
1032 01-03-2021 13:55:00 11.1 C 6.25 g/m*3 11.1 C 4.8 km/h
1033 01-03-2021 14:00:00 11.3 C 6.12 g/m*3 11.3 C 4.8 km/h
1034 01-03-2021 14:05:00 11.4 C 6.16 g/m*3 11.4 C 1.6 km/h
1035 01-03-2021 14:10:00 11.6 C 6.03 g/m*3 11.6 C 6.4 km/h
1036 01-03-2021 14:15:00 11.7 C 6.17 g/m*3 11.7 C 3.2 km/h
1037 01-03-2021 14:20:00 11.8 C 6.21 g/m*3 11.8 C 3.2 km/h
1038 01-03-2021 14:25:00 12 C 6.07 g/m*3 12 C 6.4 km/h
1039 01-03-2021 14:30:00 12.1 C 6.11 g/m*3 12.1 C 4.8 km/h
1040 01-03-2021 14:35:00 12.2 C 6.04 g/m*3 12.2 C 4.8 km/h
1041 01-03-2021 14:40:00 12.2 C 6.04 g/m*3 12.2 C 4.8 km/h
1042 01-03-2021 14:45:00 12.3 C 5.97 g/m*3 12.3 C 8.1 km/h
1043 01-03-2021 14:50:00 12.3 C 5.97 g/m*3 12.3 C 6.4 km/h
1044 01-03-2021 14:55:00 12.3 C 6.19 g/m*3 12.3 C 4.8 km/h
1045 01-03-2021 15:00:00 12.4 C 6.01 g/m*3 12.4 C 6.4 km/h
1046 01-03-2021 15:05:00 12.4 C 5.9 g/m*3 12.4 C 8.1 km/h
1047 01-03-2021 15:10:00 12.4 C 6.23 g/m*3 12.4 C 4.8 km/h
1048 01-03-2021 15:15:00 12.5 C 6.27 g/m*3 12.5 C 1.6 km/h
1049 01-03-2021 15:20:00 12.5 C 6.16 g/m*3 12.5 C 11.3 km/h
1050 01-03-2021 15:25:00 12.5 C 6.16 g/m*3 12.5 C 6.4 km/h
Sensor: Nr:Datum:Temp:Abs-Feuchte:Windchill:Wind:
Aussen-T/F 1051 01-03-2021 15:30:00 12.6 C 6.08 g/m*3 12.6 C 6.4 km/h
1052 01-03-2021 15:35:00 12.8 C 6.05 g/m*3 12.8 C 8.1 km/h
1053 01-03-2021 15:40:00 12.9 C 5.97 g/m*3 12.9 C 4.8 km/h
1054 01-03-2021 15:45:00 13.1 C 6.05 g/m*3 13.1 C 3.2 km/h
1055 01-03-2021 15:50:00 13.2 C 6.2 g/m*3 13.2 C 4.8 km/h
1056 01-03-2021 15:55:00 13.3 C 6.35 g/m*3 13.3 C 4.8 km/h
1057 01-03-2021 16:00:00 13.4 C 6.39 g/m*3 13.4 C 1.6 km/h
1058 01-03-2021 16:05:00 13.6 C 6.24 g/m*3 13.6 C 8.1 km/h
1059 01-03-2021 16:10:00 13.7 C 6.39 g/m*3 13.7 C 8.1 km/h
1060 01-03-2021 16:15:00 13.7 C 6.28 g/m*3 13.7 C 12.9 km/h
1061 01-03-2021 16:20:00 13.7 C 6.39 g/m*3 13.7 C 9.7 km/h
1062 01-03-2021 16:25:00 13.8 C 6.55 g/m*3 13.8 C 3.2 km/h
1063 01-03-2021 16:30:00 13.8 C 6.31 g/m*3 13.8 C 6.4 km/h
1064 01-03-2021 16:35:00 13.9 C 6.47 g/m*3 13.9 C 9.7 km/h
1065 01-03-2021 16:40:00 13.9 C 6.35 g/m*3 13.9 C 4.8 km/h
1066 01-03-2021 16:45:00 13.8 C 6.43 g/m*3 13.8 C 8.1 km/h
1067 01-03-2021 16:50:00 13.8 C 6.55 g/m*3 13.8 C 1.6 km/h
1068 01-03-2021 16:55:00 13.8 C 6.43 g/m*3 13.8 C 6.4 km/h
1069 01-03-2021 17:00:00 13.8 C 6.43 g/m*3 13.8 C 6.4 km/h
1070 01-03-2021 17:05:00 13.9 C 6.59 g/m*3 13.9 C 6.4 km/h
1071 01-03-2021 17:10:00 13.9 C 6.47 g/m*3 13.9 C 6.4 km/h
1072 01-03-2021 17:15:00 13.9 C 6.83 g/m*3 13.9 C 8.1 km/h
1073 01-03-2021 17:20:00 14 C 7 g/m*3 14 C 3.2 km/h
1074 01-03-2021 17:25:00 14 C 7.12 g/m*3 14 C 4.8 km/h
1075 01-03-2021 17:30:00 13.9 C 6.95 g/m*3 13.9 C 3.2 km/h
Sensor: Nr:Datum:Temp:Abs-Feuchte:Windchill:Wind:
Aussen-T/F 1076 01-03-2021 17:35:00 13.8 C 6.91 g/m*3 13.8 C 4.8 km/h
1077 01-03-2021 17:40:00 13.6 C 7.06 g/m*3 13.6 C 4.8 km/h
1078 01-03-2021 17:45:00 13.1 C 6.96 g/m*3 13.1 C 4.8 km/h
1079 01-03-2021 17:50:00 12.6 C 6.97 g/m*3 12.6 C 4.8 km/h
1080 01-03-2021 17:55:00 11.9 C 6.78 g/m*3 11.9 C 0 km/h
1081 01-03-2021 18:00:00 11.4 C 6.77 g/m*3 11.4 C 0 km/h
1082 01-03-2021 18:05:00 10.8 C 6.72 g/m*3 10.8 C 0 km/h
1083 01-03-2021 18:10:00 10.3 C 6.61 g/m*3 10.3 C 0 km/h
1084 01-03-2021 18:15:00 9.9 C 6.63 g/m*3 9.9 C 0 km/h
1085 01-03-2021 18:20:00 9.5 C 6.55 g/m*3 9.5 C 0 km/h
1086 01-03-2021 18:25:00 9.1 C 6.48 g/m*3 9.1 C 0 km/h
1087 01-03-2021 18:30:00 8.8 C 6.44 g/m*3 8.8 C 0 km/h
1088 01-03-2021 18:35:00 8.5 C 6.4 g/m*3 8.5 C 0 km/h
1089 01-03-2021 18:40:00 8.3 C 6.41 g/m*3 8.3 C 0 km/h
1090 01-03-2021 18:45:00 8.1 C 6.41 g/m*3 8.1 C 0 km/h
1091 01-03-2021 18:50:00 7.8 C 6.37 g/m*3 7.8 C 0 km/h
1092 01-03-2021 18:55:00 7.7 C 6.32 g/m*3 7.7 C 0 km/h
1093 01-03-2021 19:00:00 7.5 C 6.32 g/m*3 7.5 C 0 km/h
1094 01-03-2021 19:05:00 7.3 C 6.24 g/m*3 7.3 C 0 km/h
1095 01-03-2021 19:10:00 7.2 C 6.2 g/m*3 7.2 C 0 km/h
1096 01-03-2021 19:15:00 7.1 C 6.24 g/m*3 6.02 C 6.4 km/h
1097 01-03-2021 19:20:00 6.9 C 6.16 g/m*3 6.9 C 4.8 km/h
1098 01-03-2021 19:25:00 6.8 C 6.19 g/m*3 6.8 C 4.8 km/h
1099 01-03-2021 19:30:00 6.7 C 6.15 g/m*3 6.7 C 4.8 km/h
1100 01-03-2021 19:35:00 6.6 C 6.11 g/m*3 5.44 C 6.4 km/h
Sensor: Nr:Datum:Temp:Abs-Feuchte:Windchill:Wind:
Aussen-T/F 1101 01-03-2021 19:40:00 6.6 C 6.11 g/m*3 6.6 C 3.2 km/h
1102 01-03-2021 19:45:00 6.4 C 6.04 g/m*3 6.4 C 3.2 km/h
1103 01-03-2021 19:50:00 6.3 C 6.07 g/m*3 5.1 C 6.4 km/h
1104 01-03-2021 19:55:00 6.2 C 6.03 g/m*3 6.2 C 4.8 km/h
1105 01-03-2021 20:00:00 6.1 C 5.99 g/m*3 6.1 C 4.8 km/h
1106 01-03-2021 20:05:00 6 C 5.95 g/m*3 6 C 4.8 km/h
1107 01-03-2021 20:10:00 5.8 C 5.95 g/m*3 5.8 C 4.8 km/h
1108 01-03-2021 20:15:00 5.7 C 5.91 g/m*3 5.7 C 4.8 km/h
1109 01-03-2021 20:20:00 5.5 C 5.83 g/m*3 5.5 C 0 km/h
1110 01-03-2021 20:25:00 5.4 C 5.86 g/m*3 5.4 C 0 km/h
1111 01-03-2021 20:30:00 5.5 C 5.97 g/m*3 5.5 C 4.8 km/h
1112 01-03-2021 20:35:00 5.5 C 5.97 g/m*3 5.5 C 4.8 km/h
1113 01-03-2021 20:40:00 5.5 C 5.9 g/m*3 5.5 C 4.8 km/h
1114 01-03-2021 20:45:00 5.5 C 5.97 g/m*3 5.5 C 3.2 km/h
1115 01-03-2021 20:50:00 5.4 C 5.93 g/m*3 5.4 C 1.6 km/h
1116 01-03-2021 20:55:00 5.4 C 5.93 g/m*3 5.4 C 3.2 km/h
1117 01-03-2021 21:00:00 5.4 C 5.93 g/m*3 5.4 C 3.2 km/h
1118 01-03-2021 21:05:00 5.4 C 5.93 g/m*3 5.4 C 4.8 km/h
1119 01-03-2021 21:10:00 5.4 C 6 g/m*3 5.4 C 3.2 km/h
1120 01-03-2021 21:15:00 5.3 C 5.89 g/m*3 5.3 C 3.2 km/h
1121 01-03-2021 21:20:00 5.2 C 5.92 g/m*3 5.2 C 4.8 km/h
1122 01-03-2021 21:25:00 5.2 C 5.92 g/m*3 5.2 C 4.8 km/h
1123 01-03-2021 21:30:00 5.1 C 5.95 g/m*3 5.1 C 4.8 km/h
1124 01-03-2021 21:35:00 5.1 C 5.95 g/m*3 5.1 C 4.8 km/h
1125 01-03-2021 21:40:00 5 C 5.91 g/m*3 5 C 4.8 km/h
Sensor: Nr:Datum:Temp:Abs-Feuchte:Windchill:Wind:
Aussen-T/F 1126 01-03-2021 21:45:00 4.9 C 5.94 g/m*3 4.9 C 4.8 km/h
1127 01-03-2021 21:50:00 4.9 C 5.94 g/m*3 4.9 C 3.2 km/h
1128 01-03-2021 21:55:00 4.8 C 5.9 g/m*3 4.8 C 4.8 km/h
1129 01-03-2021 22:00:00 4.8 C 5.9 g/m*3 4.8 C 4.8 km/h
1130 01-03-2021 22:05:00 4.8 C 5.97 g/m*3 4.8 C 4.8 km/h
1131 01-03-2021 22:10:00 4.8 C 5.97 g/m*3 3.36 C 6.4 km/h
1132 01-03-2021 22:15:00 4.8 C 5.97 g/m*3 4.8 C 4.8 km/h
1133 01-03-2021 22:20:00 4.7 C 5.93 g/m*3 4.7 C 4.8 km/h
1134 01-03-2021 22:25:00 4.6 C 5.89 g/m*3 4.6 C 3.2 km/h
1135 01-03-2021 22:30:00 4.5 C 5.85 g/m*3 4.5 C 4.8 km/h
1136 01-03-2021 22:35:00 4.4 C 5.81 g/m*3 4.4 C 1.6 km/h
1137 01-03-2021 22:40:00 4.3 C 5.77 g/m*3 4.3 C 0 km/h
1138 01-03-2021 22:45:00 4.2 C 5.73 g/m*3 4.2 C 0 km/h
1139 01-03-2021 22:50:00 4.1 C 5.76 g/m*3 4.1 C 4.8 km/h
1140 01-03-2021 22:55:00 4.1 C 5.76 g/m*3 4.1 C 3.2 km/h
1141 01-03-2021 23:00:00 4 C 5.72 g/m*3 4 C 0 km/h
1142 01-03-2021 23:05:00 3.8 C 5.65 g/m*3 3.8 C 0 km/h
1143 01-03-2021 23:10:00 3.7 C 5.61 g/m*3 3.7 C 0 km/h
1144 01-03-2021 23:15:00 3.6 C 5.57 g/m*3 3.6 C 0 km/h
1145 01-03-2021 23:20:00 3.4 C 5.5 g/m*3 3.4 C 0 km/h
1146 01-03-2021 23:25:00 3.2 C 5.42 g/m*3 3.2 C 0 km/h
1147 01-03-2021 23:30:00 3.1 C 5.45 g/m*3 3.1 C 0 km/h
1148 01-03-2021 23:35:00 3.1 C 5.45 g/m*3 3.1 C 0 km/h
1149 01-03-2021 23:40:00 3 C 5.41 g/m*3 3 C 0 km/h
1150 01-03-2021 23:45:00 2.9 C 5.43 g/m*3 2.9 C 0 km/h
Sensor: Nr:Datum:Temp:Abs-Feuchte:Windchill:Wind:
Aussen-T/F 1151 01-03-2021 23:50:00 2.8 C 5.34 g/m*3 2.8 C 0 km/h
1152 01-03-2021 23:55:00 2.6 C 5.27 g/m*3 2.6 C 0 km/h
1153 02-03-2021 00:00:00 2.4 C 5.2 g/m*3 2.4 C 0 km/h
1154 02-03-2021 00:05:00 2.4 C 5.25 g/m*3 2.4 C 0 km/h
1155 02-03-2021 00:10:00 2.3 C 5.22 g/m*3 2.3 C 0 km/h
1156 02-03-2021 00:15:00 2.3 C 5.22 g/m*3 2.3 C 0 km/h
1157 02-03-2021 00:20:00 2.2 C 5.18 g/m*3 2.2 C 0 km/h
1158 02-03-2021 00:25:00 2.1 C 5.15 g/m*3 2.1 C 0 km/h
1159 02-03-2021 00:30:00 2.1 C 5.15 g/m*3 2.1 C 0 km/h
1160 02-03-2021 00:35:00 2.1 C 5.2 g/m*3 2.1 C 0 km/h
1161 02-03-2021 00:40:00 2 C 5.17 g/m*3 2 C 0 km/h
1162 02-03-2021 00:45:00 2 C 5.17 g/m*3 2 C 0 km/h
1163 02-03-2021 00:50:00 1.9 C 5.13 g/m*3 1.9 C 0 km/h
1164 02-03-2021 00:55:00 1.9 C 5.13 g/m*3 1.9 C 0 km/h
1165 02-03-2021 01:00:00 1.8 C 5.1 g/m*3 1.8 C 0 km/h
1166 02-03-2021 01:05:00 1.8 C 5.1 g/m*3 1.8 C 0 km/h
1167 02-03-2021 01:10:00 1.8 C 5.1 g/m*3 1.8 C 0 km/h
1168 02-03-2021 01:15:00 1.8 C 5.1 g/m*3 1.8 C 0 km/h
1169 02-03-2021 01:20:00 1.7 C 5.06 g/m*3 1.7 C 0 km/h
1170 02-03-2021 01:25:00 1.7 C 5.06 g/m*3 1.7 C 0 km/h
1171 02-03-2021 01:30:00 1.7 C 5.12 g/m*3 1.7 C 0 km/h
1172 02-03-2021 01:35:00 1.7 C 5.12 g/m*3 1.7 C 0 km/h
1173 02-03-2021 01:40:00 1.6 C 5.08 g/m*3 1.6 C 0 km/h
1174 02-03-2021 01:45:00 1.6 C 5.08 g/m*3 1.6 C 0 km/h
1175 02-03-2021 01:50:00 1.4 C 5.01 g/m*3 1.4 C 0 km/h
Sensor: Nr:Datum:Temp:Abs-Feuchte:Windchill:Wind:
Aussen-T/F 1176 02-03-2021 01:55:00 1.4 C 5.01 g/m*3 1.4 C 0 km/h
1177 02-03-2021 02:00:00 1.3 C 4.98 g/m*3 1.3 C 0 km/h
1178 02-03-2021 02:05:00 1.2 C 4.95 g/m*3 1.2 C 0 km/h
1179 02-03-2021 02:10:00 1.3 C 4.98 g/m*3 1.3 C 0 km/h
1180 02-03-2021 02:15:00 1.3 C 4.98 g/m*3 1.3 C 0 km/h
1181 02-03-2021 02:20:00 1.2 C 4.95 g/m*3 1.2 C 0 km/h
1182 02-03-2021 02:25:00 1.1 C 4.91 g/m*3 1.1 C 0 km/h
1183 02-03-2021 02:30:00 1 C 4.88 g/m*3 1 C 0 km/h
1184 02-03-2021 02:35:00 0.9 C 4.85 g/m*3 0.9 C 0 km/h
1185 02-03-2021 02:40:00 0.8 C 4.81 g/m*3 0.8 C 0 km/h
1186 02-03-2021 02:45:00 0.7 C 4.78 g/m*3 0.7 C 0 km/h
1187 02-03-2021 02:50:00 0.6 C 4.75 g/m*3 0.6 C 0 km/h
1188 02-03-2021 02:55:00 0.6 C 4.75 g/m*3 0.6 C 0 km/h
1189 02-03-2021 03:00:00 0.6 C 4.75 g/m*3 0.6 C 0 km/h
1190 02-03-2021 03:05:00 0.6 C 4.75 g/m*3 0.6 C 0 km/h
1191 02-03-2021 03:10:00 0.4 C 4.68 g/m*3 0.4 C 0 km/h
1192 02-03-2021 03:15:00 0.4 C 4.68 g/m*3 0.4 C 0 km/h
1193 02-03-2021 03:20:00 0.3 C 4.65 g/m*3 0.3 C 0 km/h
1194 02-03-2021 03:25:00 0.3 C 4.65 g/m*3 0.3 C 0 km/h
1195 02-03-2021 03:30:00 0.3 C 4.65 g/m*3 0.3 C 0 km/h
1196 02-03-2021 03:35:00 0.2 C 4.62 g/m*3 0.2 C 0 km/h
1197 02-03-2021 03:40:00 0.2 C 4.62 g/m*3 0.2 C 0 km/h
1198 02-03-2021 03:45:00 0.2 C 4.62 g/m*3 0.2 C 0 km/h
1199 02-03-2021 03:50:00 0.2 C 4.67 g/m*3 0.2 C 0 km/h
1200 02-03-2021 03:55:00 0.2 C 4.62 g/m*3 0.2 C 0 km/h
Sensor: Nr:Datum:Temp:Abs-Feuchte:Windchill:Wind:
Aussen-T/F 1201 02-03-2021 04:00:00 0.2 C 4.62 g/m*3 0.2 C 0 km/h
1202 02-03-2021 04:05:00 0.1 C 4.63 g/m*3 0.1 C 0 km/h
1203 02-03-2021 04:10:00 0.1 C 4.63 g/m*3 0.1 C 0 km/h
1204 02-03-2021 04:15:00 0.1 C 4.63 g/m*3 0.1 C 0 km/h
1205 02-03-2021 04:20:00 0.1 C 4.63 g/m*3 0.1 C 0 km/h
1206 02-03-2021 04:25:00 0.1 C 4.63 g/m*3 0.1 C 0 km/h
1207 02-03-2021 04:30:00 0.1 C 4.63 g/m*3 0.1 C 0 km/h
1208 02-03-2021 04:35:00 0.1 C 4.63 g/m*3 0.1 C 0 km/h
1209 02-03-2021 04:40:00 -0.1 C 4.57 g/m*3 -0.1 C 0 km/h
1210 02-03-2021 04:45:00 -0.1 C 4.57 g/m*3 -0.1 C 0 km/h
1211 02-03-2021 04:50:00 -0.2 C 4.54 g/m*3 -0.2 C 0 km/h
1212 02-03-2021 04:55:00 -0.2 C 4.54 g/m*3 -0.2 C 0 km/h
1213 02-03-2021 05:00:00 -0.3 C 4.51 g/m*3 -0.3 C 0 km/h
1214 02-03-2021 05:05:00 -0.3 C 4.51 g/m*3 -0.3 C 0 km/h
1215 02-03-2021 05:10:00 -0.3 C 4.51 g/m*3 -0.3 C 0 km/h
1216 02-03-2021 05:15:00 -0.3 C 4.51 g/m*3 -0.3 C 0 km/h
1217 02-03-2021 05:20:00 -0.3 C 4.51 g/m*3 -0.3 C 0 km/h
1218 02-03-2021 05:25:00 -0.3 C 4.51 g/m*3 -0.3 C 0 km/h
1219 02-03-2021 05:30:00 -0.3 C 4.51 g/m*3 -0.3 C 0 km/h
1220 02-03-2021 05:35:00 -0.3 C 4.51 g/m*3 -0.3 C 0 km/h
1221 02-03-2021 05:40:00 -0.3 C 4.51 g/m*3 -0.3 C 0 km/h
1222 02-03-2021 05:45:00 -0.4 C 4.48 g/m*3 -0.4 C 0 km/h
1223 02-03-2021 05:50:00 -0.4 C 4.48 g/m*3 -0.4 C 0 km/h
1224 02-03-2021 05:55:00 -0.4 C 4.48 g/m*3 -0.4 C 0 km/h
1225 02-03-2021 06:00:00 -0.4 C 4.48 g/m*3 -0.4 C 0 km/h
Sensor: Nr:Datum:Temp:Abs-Feuchte:Windchill:Wind:
Aussen-T/F 1226 02-03-2021 06:05:00 -0.4 C 4.48 g/m*3 -0.4 C 0 km/h
1227 02-03-2021 06:10:00 -0.6 C 4.42 g/m*3 -0.6 C 0 km/h
1228 02-03-2021 06:15:00 -0.6 C 4.42 g/m*3 -0.6 C 0 km/h
1229 02-03-2021 06:20:00 -0.5 C 4.45 g/m*3 -0.5 C 0 km/h
1230 02-03-2021 06:25:00 -0.4 C 4.48 g/m*3 -0.4 C 0 km/h
1231 02-03-2021 06:30:00 -0.4 C 4.48 g/m*3 -0.4 C 0 km/h
1232 02-03-2021 06:35:00 -0.4 C 4.48 g/m*3 -0.4 C 0 km/h
1233 02-03-2021 06:40:00 -0.4 C 4.48 g/m*3 -0.4 C 0 km/h
1234 02-03-2021 06:45:00 -0.4 C 4.48 g/m*3 -0.4 C 0 km/h
1235 02-03-2021 06:50:00 -0.5 C 4.45 g/m*3 -0.5 C 0 km/h
1236 02-03-2021 06:55:00 -0.5 C 4.45 g/m*3 -0.5 C 0 km/h
1237 02-03-2021 07:00:00 -0.4 C 4.48 g/m*3 -0.4 C 0 km/h
1238 02-03-2021 07:05:00 -0.4 C 4.52 g/m*3 -0.4 C 0 km/h
1239 02-03-2021 07:10:00 -0.3 C 4.56 g/m*3 -0.3 C 0 km/h
1240 02-03-2021 07:15:00 -0.4 C 4.52 g/m*3 -0.4 C 0 km/h
1241 02-03-2021 07:20:00 -0.4 C 4.48 g/m*3 -0.4 C 0 km/h
1242 02-03-2021 07:25:00 -0.6 C 4.42 g/m*3 -0.6 C 0 km/h
1243 02-03-2021 07:30:00 -0.7 C 4.39 g/m*3 -0.7 C 0 km/h
1244 02-03-2021 07:35:00 -0.7 C 4.39 g/m*3 -0.7 C 0 km/h
1245 02-03-2021 07:40:00 -0.7 C 4.39 g/m*3 -0.7 C 0 km/h
1246 02-03-2021 07:45:00 -0.8 C 4.35 g/m*3 -0.8 C 0 km/h
1247 02-03-2021 07:50:00 -0.8 C 4.35 g/m*3 -0.8 C 0 km/h
1248 02-03-2021 07:55:00 -0.8 C 4.35 g/m*3 -0.8 C 0 km/h
1249 02-03-2021 08:00:00 -0.9 C 4.32 g/m*3 -0.9 C 0 km/h
1250 02-03-2021 08:05:00 -0.9 C 4.32 g/m*3 -0.9 C 0 km/h
Sensor: Nr:Datum:Temp:Abs-Feuchte:Windchill:Wind:
Aussen-T/F 1251 02-03-2021 08:10:00 -1 C 4.29 g/m*3 -1 C 0 km/h
1252 02-03-2021 08:15:00 -0.9 C 4.32 g/m*3 -0.9 C 0 km/h
1253 02-03-2021 08:20:00 -0.9 C 4.32 g/m*3 -0.9 C 0 km/h
1254 02-03-2021 08:25:00 -0.8 C 4.35 g/m*3 -0.8 C 0 km/h
1255 02-03-2021 08:30:00 -0.8 C 4.35 g/m*3 -0.8 C 0 km/h
1256 02-03-2021 08:35:00 -0.8 C 4.35 g/m*3 -0.8 C 0 km/h
1257 02-03-2021 08:40:00 -0.8 C 4.35 g/m*3 -0.8 C 0 km/h
1258 02-03-2021 08:45:00 -0.8 C 4.35 g/m*3 -0.8 C 0 km/h
1259 02-03-2021 08:50:00 -0.7 C 4.43 g/m*3 -0.7 C 0 km/h
1260 02-03-2021 08:55:00 -0.7 C 4.43 g/m*3 -0.7 C 0 km/h
1261 02-03-2021 09:00:00 -0.6 C 4.46 g/m*3 -0.6 C 0 km/h
1262 02-03-2021 09:05:00 -0.5 C 4.49 g/m*3 -0.5 C 0 km/h
1263 02-03-2021 09:10:00 -0.4 C 4.52 g/m*3 -0.4 C 0 km/h
1264 02-03-2021 09:15:00 -0.3 C 4.56 g/m*3 -0.3 C 0 km/h
1265 02-03-2021 09:20:00 -0.2 C 4.59 g/m*3 -0.2 C 0 km/h
1266 02-03-2021 09:25:00 -0.2 C 4.59 g/m*3 -0.2 C 0 km/h
1267 02-03-2021 09:30:00 -0.1 C 4.62 g/m*3 -0.1 C 0 km/h
1268 02-03-2021 09:35:00 0 C 4.65 g/m*3 0 C 0 km/h
1269 02-03-2021 09:40:00 0.1 C 4.68 g/m*3 0.1 C 0 km/h
1270 02-03-2021 09:45:00 0.3 C 4.75 g/m*3 0.3 C 0 km/h
1271 02-03-2021 09:50:00 0.4 C 4.78 g/m*3 0.4 C 0 km/h
1272 02-03-2021 09:55:00 0.5 C 4.81 g/m*3 0.5 C 0 km/h
1273 02-03-2021 10:00:00 0.7 C 4.88 g/m*3 0.7 C 0 km/h
1274 02-03-2021 10:05:00 0.8 C 4.91 g/m*3 0.8 C 0 km/h
1275 02-03-2021 10:10:00 0.9 C 4.95 g/m*3 0.9 C 0 km/h
Sensor: Nr:Datum:Temp:Abs-Feuchte:Windchill:Wind:
Aussen-T/F 1276 02-03-2021 10:15:00 1 C 4.98 g/m*3 1 C 0 km/h
1277 02-03-2021 10:20:00 1.2 C 5.05 g/m*3 1.2 C 0 km/h
1278 02-03-2021 10:25:00 1.3 C 5.09 g/m*3 1.3 C 0 km/h
1279 02-03-2021 10:30:00 1.6 C 5.25 g/m*3 1.6 C 0 km/h
1280 02-03-2021 10:35:00 1.8 C 5.32 g/m*3 1.8 C 0 km/h
1281 02-03-2021 10:40:00 2.1 C 5.43 g/m*3 2.1 C 0 km/h
1282 02-03-2021 10:45:00 2.3 C 5.5 g/m*3 2.3 C 0 km/h
1283 02-03-2021 10:50:00 2.7 C 5.65 g/m*3 2.7 C 0 km/h
1284 02-03-2021 10:55:00 3.1 C 5.81 g/m*3 3.1 C 0 km/h
1285 02-03-2021 11:00:00 3.4 C 5.92 g/m*3 3.4 C 0 km/h
1286 02-03-2021 11:05:00 3.7 C 6.04 g/m*3 3.7 C 0 km/h
1287 02-03-2021 11:10:00 4 C 6.17 g/m*3 4 C 0 km/h
1288 02-03-2021 11:15:00 4.4 C 6.33 g/m*3 4.4 C 0 km/h
1289 02-03-2021 11:20:00 4.8 C 6.5 g/m*3 4.8 C 0 km/h
1290 02-03-2021 11:25:00 5.2 C 6.68 g/m*3 5.2 C 0 km/h
1291 02-03-2021 11:30:00 5.6 C 6.86 g/m*3 5.6 C 0 km/h
1292 02-03-2021 11:35:00 5.9 C 6.99 g/m*3 5.9 C 0 km/h
1293 02-03-2021 11:40:00 6.2 C 7.13 g/m*3 6.2 C 0 km/h
1294 02-03-2021 11:45:00 6.3 C 7.18 g/m*3 6.3 C 0 km/h
1295 02-03-2021 11:50:00 6.5 C 7.27 g/m*3 6.5 C 0 km/h
1296 02-03-2021 11:55:00 6.7 C 7.37 g/m*3 6.7 C 0 km/h
1297 02-03-2021 12:00:00 6.9 C 7.47 g/m*3 6.9 C 0 km/h
1298 02-03-2021 12:05:00 7.1 C 7.57 g/m*3 7.1 C 0 km/h
1299 02-03-2021 12:10:00 7.4 C 7.71 g/m*3 7.4 C 0 km/h
1300 02-03-2021 12:15:00 7.7 C 7.78 g/m*3 7.7 C 0 km/h
Sensor: Nr:Datum:Temp:Abs-Feuchte:Windchill:Wind:
Aussen-T/F 1301 02-03-2021 12:20:00 8.1 C 7.9 g/m*3 8.1 C 0 km/h
1302 02-03-2021 12:25:00 8.4 C 7.97 g/m*3 8.4 C 0 km/h
1303 02-03-2021 12:30:00 8.9 C 7.97 g/m*3 8.9 C 0 km/h
1304 02-03-2021 12:35:00 9.4 C 8.14 g/m*3 9.4 C 0 km/h
1305 02-03-2021 12:40:00 10.1 C 8.23 g/m*3 10.1 C 0 km/h
1306 02-03-2021 12:45:00 10.7 C 8.25 g/m*3 10.7 C 0 km/h
1307 02-03-2021 12:50:00 11.1 C 8.16 g/m*3 11.1 C 0 km/h
1308 02-03-2021 12:55:00 11.3 C 8.16 g/m*3 11.3 C 0 km/h
1309 02-03-2021 13:00:00 11.6 C 8.21 g/m*3 11.6 C 0 km/h
1310 02-03-2021 13:05:00 12 C 8.21 g/m*3 12 C 0 km/h
1311 02-03-2021 13:10:00 12.3 C 8.14 g/m*3 12.3 C 0 km/h
1312 02-03-2021 13:15:00 12.6 C 8.19 g/m*3 12.6 C 0 km/h
1313 02-03-2021 13:20:00 12.9 C 8.23 g/m*3 12.9 C 0 km/h
1314 02-03-2021 13:25:00 13.4 C 8.25 g/m*3 13.4 C 0 km/h
1315 02-03-2021 13:30:00 13.8 C 8.34 g/m*3 13.8 C 0 km/h
1316 02-03-2021 13:35:00 14.3 C 8.23 g/m*3 14.3 C 0 km/h
1317 02-03-2021 13:40:00 14.7 C 8.31 g/m*3 14.7 C 0 km/h
1318 02-03-2021 13:45:00 14.9 C 8.28 g/m*3 14.9 C 0 km/h
1319 02-03-2021 13:50:00 15.2 C 7.66 g/m*3 15.2 C 0 km/h
1320 02-03-2021 13:55:00 15.4 C 7.88 g/m*3 15.4 C 0 km/h
1321 02-03-2021 14:00:00 15.6 C 7.71 g/m*3 15.6 C 0 km/h
1322 02-03-2021 14:05:00 15.8 C 8.21 g/m*3 15.8 C 0 km/h
1323 02-03-2021 14:10:00 16.1 C 8.09 g/m*3 16.1 C 0 km/h
1324 02-03-2021 14:15:00 16.5 C 8.14 g/m*3 16.5 C 0 km/h
1325 02-03-2021 14:20:00 16.8 C 7.58 g/m*3 16.8 C 0 km/h
Sensor: Nr:Datum:Temp:Abs-Feuchte:Windchill:Wind:
Aussen-T/F 1326 02-03-2021 14:25:00 16.6 C 7.2 g/m*3 16.6 C 0 km/h
1327 02-03-2021 14:30:00 16.2 C 7.03 g/m*3 16.2 C 4.8 km/h
1328 02-03-2021 14:35:00 16.1 C 7.13 g/m*3 16.1 C 0 km/h
1329 02-03-2021 14:40:00 16.2 C 7.17 g/m*3 16.2 C 3.2 km/h
1330 02-03-2021 14:45:00 16.2 C 7.31 g/m*3 16.2 C 0 km/h
1331 02-03-2021 14:50:00 16.1 C 7.13 g/m*3 16.1 C 4.8 km/h
1332 02-03-2021 14:55:00 15.9 C 7.18 g/m*3 15.9 C 1.6 km/h
1333 02-03-2021 15:00:00 15.8 C 7.27 g/m*3 15.8 C 1.6 km/h
1334 02-03-2021 15:05:00 15.7 C 7.49 g/m*3 15.7 C 1.6 km/h
1335 02-03-2021 15:10:00 15.6 C 7.85 g/m*3 15.6 C 0 km/h
1336 02-03-2021 15:15:00 15.4 C 7.09 g/m*3 15.4 C 0 km/h
1337 02-03-2021 15:20:00 15.4 C 6.96 g/m*3 15.4 C 3.2 km/h
1338 02-03-2021 15:25:00 15.4 C 6.96 g/m*3 15.4 C 4.8 km/h
1339 02-03-2021 15:30:00 15.4 C 6.7 g/m*3 15.4 C 0 km/h
1340 02-03-2021 15:35:00 15.5 C 6.87 g/m*3 15.5 C 3.2 km/h
1341 02-03-2021 15:40:00 15.6 C 7.18 g/m*3 15.6 C 3.2 km/h
1342 02-03-2021 15:45:00 15.7 C 7.36 g/m*3 15.7 C 4.8 km/h
1343 02-03-2021 15:50:00 15.7 C 7.63 g/m*3 15.7 C 1.6 km/h
1344 02-03-2021 15:55:00 15.8 C 7.67 g/m*3 15.8 C 0 km/h
1345 02-03-2021 16:00:00 15.9 C 7.58 g/m*3 15.9 C 1.6 km/h
1346 02-03-2021 16:05:00 16 C 6.95 g/m*3 16 C 4.8 km/h
1347 02-03-2021 16:10:00 16.1 C 7.68 g/m*3 16.1 C 3.2 km/h
1348 02-03-2021 16:15:00 16 C 7.49 g/m*3 16 C 0 km/h
1349 02-03-2021 16:20:00 15.9 C 7.31 g/m*3 15.9 C 0 km/h
1350 02-03-2021 16:25:00 15.8 C 7.81 g/m*3 15.8 C 0 km/h
Sensor: Nr:Datum:Temp:Abs-Feuchte:Windchill:Wind:
Aussen-T/F 1351 02-03-2021 16:30:00 15.7 C 7.36 g/m*3 15.7 C 0 km/h
1352 02-03-2021 16:35:00 15.7 C 7.89 g/m*3 15.7 C 0 km/h
1353 02-03-2021 16:40:00 15.6 C 7.98 g/m*3 15.6 C 0 km/h
1354 02-03-2021 16:45:00 15.4 C 7.75 g/m*3 15.4 C 0 km/h
1355 02-03-2021 16:50:00 15.3 C 7.18 g/m*3 15.3 C 6.4 km/h
1356 02-03-2021 16:55:00 15.3 C 7.7 g/m*3 15.3 C 6.4 km/h
1357 02-03-2021 17:00:00 15.2 C 7.66 g/m*3 15.2 C 4.8 km/h
1358 02-03-2021 17:05:00 15.1 C 7.61 g/m*3 15.1 C 4.8 km/h
1359 02-03-2021 17:10:00 15 C 7.69 g/m*3 15 C 6.4 km/h
1360 02-03-2021 17:15:00 14.9 C 7.77 g/m*3 14.9 C 4.8 km/h
1361 02-03-2021 17:20:00 14.9 C 7.65 g/m*3 14.9 C 6.4 km/h
1362 02-03-2021 17:25:00 14.8 C 7.73 g/m*3 14.8 C 6.4 km/h
1363 02-03-2021 17:30:00 14.6 C 7.26 g/m*3 14.6 C 6.4 km/h
1364 02-03-2021 17:35:00 14.5 C 7.59 g/m*3 14.5 C 6.4 km/h
1365 02-03-2021 17:40:00 14.3 C 7.37 g/m*3 14.3 C 6.4 km/h
1366 02-03-2021 17:45:00 14.1 C 7.52 g/m*3 14.1 C 6.4 km/h
1367 02-03-2021 17:50:00 13.7 C 7.34 g/m*3 13.7 C 6.4 km/h
1368 02-03-2021 17:55:00 13.2 C 7.23 g/m*3 13.2 C 0 km/h
1369 02-03-2021 18:00:00 12.7 C 7.12 g/m*3 12.7 C 8.1 km/h
1370 02-03-2021 18:05:00 12.2 C 7.12 g/m*3 12.2 C 6.4 km/h
1371 02-03-2021 18:10:00 11.7 C 7.01 g/m*3 11.7 C 6.4 km/h
1372 02-03-2021 18:15:00 11.3 C 6.94 g/m*3 11.3 C 8.1 km/h
1373 02-03-2021 18:20:00 10.9 C 6.86 g/m*3 10.04 C 8.1 km/h
1374 02-03-2021 18:25:00 10.7 C 6.88 g/m*3 9.81 C 8.1 km/h
1375 02-03-2021 18:30:00 10.5 C 6.89 g/m*3 9.95 C 6.4 km/h
Sensor: Nr:Datum:Temp:Abs-Feuchte:Windchill:Wind:
Aussen-T/F 1376 02-03-2021 18:35:00 10.3 C 6.8 g/m*3 10.3 C 4.8 km/h
1377 02-03-2021 18:40:00 10.2 C 6.85 g/m*3 10.2 C 4.8 km/h
1378 02-03-2021 18:45:00 9.9 C 6.82 g/m*3 8.87 C 8.1 km/h
1379 02-03-2021 18:50:00 9.8 C 6.77 g/m*3 9.8 C 4.8 km/h
1380 02-03-2021 18:55:00 9.6 C 6.78 g/m*3 9.6 C 4.8 km/h
1381 02-03-2021 19:00:00 9.4 C 6.69 g/m*3 9.4 C 4.8 km/h
1382 02-03-2021 19:05:00 9.3 C 6.74 g/m*3 8.56 C 6.4 km/h
1383 02-03-2021 19:10:00 9.2 C 6.7 g/m*3 9.2 C 4.8 km/h
1384 02-03-2021 19:15:00 9 C 6.61 g/m*3 9 C 4.8 km/h
1385 02-03-2021 19:20:00 8.9 C 6.66 g/m*3 8.9 C 3.2 km/h
1386 02-03-2021 19:25:00 8.8 C 6.7 g/m*3 8.8 C 4.8 km/h
1387 02-03-2021 19:30:00 8.7 C 6.66 g/m*3 8.7 C 3.2 km/h
1388 02-03-2021 19:35:00 8.6 C 6.62 g/m*3 8.6 C 3.2 km/h
1389 02-03-2021 19:40:00 8.5 C 6.57 g/m*3 7.64 C 6.4 km/h
1390 02-03-2021 19:45:00 8.4 C 6.7 g/m*3 7.52 C 6.4 km/h
1391 02-03-2021 19:50:00 8.3 C 6.66 g/m*3 7.41 C 6.4 km/h
1392 02-03-2021 19:55:00 8.2 C 6.7 g/m*3 8.2 C 4.8 km/h
1393 02-03-2021 20:00:00 8.1 C 6.66 g/m*3 8.1 C 4.8 km/h
1394 02-03-2021 20:05:00 7.9 C 6.57 g/m*3 7.9 C 4.8 km/h
1395 02-03-2021 20:10:00 7.8 C 6.61 g/m*3 6.83 C 6.4 km/h
1396 02-03-2021 20:15:00 7.7 C 6.57 g/m*3 7.7 C 4.8 km/h
1397 02-03-2021 20:20:00 7.6 C 6.61 g/m*3 7.6 C 4.8 km/h
1398 02-03-2021 20:25:00 7.5 C 6.56 g/m*3 6.48 C 6.4 km/h
1399 02-03-2021 20:30:00 7.4 C 6.52 g/m*3 7.4 C 4.8 km/h
1400 02-03-2021 20:35:00 7.3 C 6.48 g/m*3 6.25 C 6.4 km/h
Sensor: Nr:Datum:Temp:Abs-Feuchte:Windchill:Wind:
Aussen-T/F 1401 02-03-2021 20:40:00 7.3 C 6.48 g/m*3 7.3 C 4.8 km/h
1402 02-03-2021 20:45:00 7.2 C 6.52 g/m*3 7.2 C 4.8 km/h
1403 02-03-2021 20:50:00 7.2 C 6.52 g/m*3 7.2 C 4.8 km/h
1404 02-03-2021 20:55:00 7.1 C 6.47 g/m*3 7.1 C 4.8 km/h
1405 02-03-2021 21:00:00 7.1 C 6.47 g/m*3 6.02 C 6.4 km/h
1406 02-03-2021 21:05:00 6.9 C 6.39 g/m*3 6.9 C 3.2 km/h
1407 02-03-2021 21:10:00 6.8 C 6.35 g/m*3 6.8 C 1.6 km/h
1408 02-03-2021 21:15:00 6.6 C 6.27 g/m*3 6.6 C 0 km/h
1409 02-03-2021 21:20:00 6.4 C 6.26 g/m*3 6.4 C 4.8 km/h
1410 02-03-2021 21:25:00 6.2 C 6.25 g/m*3 6.2 C 0 km/h
1411 02-03-2021 21:30:00 6.1 C 6.14 g/m*3 6.1 C 0 km/h
1412 02-03-2021 21:35:00 5.8 C 6.09 g/m*3 5.8 C 0 km/h
1413 02-03-2021 21:40:00 5.8 C 6.16 g/m*3 5.8 C 0 km/h
1414 02-03-2021 21:45:00 5.7 C 6.19 g/m*3 5.7 C 3.2 km/h
1415 02-03-2021 21:50:00 5.7 C 6.19 g/m*3 5.7 C 3.2 km/h
1416 02-03-2021 21:55:00 5.5 C 6.11 g/m*3 5.5 C 0 km/h
1417 02-03-2021 22:00:00 5.3 C 6.03 g/m*3 5.3 C 0 km/h
1418 02-03-2021 22:05:00 5.2 C 5.99 g/m*3 5.2 C 1.6 km/h
1419 02-03-2021 22:10:00 5.1 C 5.95 g/m*3 5.1 C 0 km/h
1420 02-03-2021 22:15:00 4.9 C 5.87 g/m*3 4.9 C 0 km/h
1421 02-03-2021 22:20:00 4.8 C 5.9 g/m*3 4.8 C 1.6 km/h
1422 02-03-2021 22:25:00 4.8 C 5.97 g/m*3 4.8 C 3.2 km/h
1423 02-03-2021 22:30:00 4.7 C 5.93 g/m*3 4.7 C 0 km/h
1424 02-03-2021 22:35:00 4.7 C 5.93 g/m*3 4.7 C 0 km/h
1425 02-03-2021 22:40:00 4.7 C 5.93 g/m*3 4.7 C 0 km/h
Sensor: Nr:Datum:Temp:Abs-Feuchte:Windchill:Wind:
Aussen-T/F 1426 02-03-2021 22:45:00 4.6 C 5.89 g/m*3 4.6 C 0 km/h
1427 02-03-2021 22:50:00 4.4 C 5.75 g/m*3 4.4 C 0 km/h
1428 02-03-2021 22:55:00 4.3 C 5.77 g/m*3 4.3 C 0 km/h
1429 02-03-2021 23:00:00 4.1 C 5.63 g/m*3 4.1 C 0 km/h
1430 02-03-2021 23:05:00 3.9 C 5.62 g/m*3 3.9 C 0 km/h
1431 02-03-2021 23:10:00 3.8 C 5.65 g/m*3 3.8 C 0 km/h
1432 02-03-2021 23:15:00 3.7 C 5.55 g/m*3 3.7 C 0 km/h
1433 02-03-2021 23:20:00 3.6 C 5.51 g/m*3 3.6 C 0 km/h
1434 02-03-2021 23:25:00 3.5 C 5.53 g/m*3 3.5 C 0 km/h
1435 02-03-2021 23:30:00 3.3 C 5.46 g/m*3 3.3 C 0 km/h
1436 02-03-2021 23:35:00 3.2 C 5.42 g/m*3 3.2 C 0 km/h
1437 02-03-2021 23:40:00 3.2 C 5.48 g/m*3 3.2 C 0 km/h
1438 02-03-2021 23:45:00 3.2 C 5.48 g/m*3 3.2 C 0 km/h
1439 02-03-2021 23:50:00 3.1 C 5.45 g/m*3 3.1 C 0 km/h
1440 02-03-2021 23:55:00 3 C 5.41 g/m*3 3 C 0 km/h
1441 03-03-2021 00:00:00 2.9 C 5.37 g/m*3 2.9 C 0 km/h
1442 03-03-2021 00:05:00 2.8 C 5.34 g/m*3 2.8 C 1.6 km/h
1443 03-03-2021 00:10:00 2.8 C 5.34 g/m*3 2.8 C 0 km/h
1444 03-03-2021 00:15:00 2.7 C 5.36 g/m*3 2.7 C 0 km/h
1445 03-03-2021 00:20:00 2.6 C 5.32 g/m*3 2.6 C 0 km/h
1446 03-03-2021 00:25:00 2.6 C 5.32 g/m*3 2.6 C 0 km/h
1447 03-03-2021 00:30:00 2.6 C 5.32 g/m*3 2.6 C 0 km/h
1448 03-03-2021 00:35:00 2.6 C 5.32 g/m*3 2.6 C 0 km/h
1449 03-03-2021 00:40:00 2.5 C 5.29 g/m*3 2.5 C 0 km/h
1450 03-03-2021 00:45:00 2.5 C 5.29 g/m*3 2.5 C 0 km/h
Sensor: Nr:Datum:Temp:Abs-Feuchte:Windchill:Wind:
Aussen-T/F 1451 03-03-2021 00:50:00 2.4 C 5.25 g/m*3 2.4 C 0 km/h
1452 03-03-2021 00:55:00 2.4 C 5.31 g/m*3 2.4 C 0 km/h
1453 03-03-2021 01:00:00 2.3 C 5.27 g/m*3 2.3 C 0 km/h
1454 03-03-2021 01:05:00 2.3 C 5.27 g/m*3 2.3 C 0 km/h
1455 03-03-2021 01:10:00 2.3 C 5.27 g/m*3 2.3 C 0 km/h
1456 03-03-2021 01:15:00 2.3 C 5.27 g/m*3 2.3 C 0 km/h
1457 03-03-2021 01:20:00 2.2 C 5.24 g/m*3 2.2 C 0 km/h
1458 03-03-2021 01:25:00 2.1 C 5.2 g/m*3 2.1 C 0 km/h
1459 03-03-2021 01:30:00 2 C 5.17 g/m*3 2 C 0 km/h
1460 03-03-2021 01:35:00 1.9 C 5.13 g/m*3 1.9 C 0 km/h
1461 03-03-2021 01:40:00 1.8 C 5.1 g/m*3 1.8 C 0 km/h
1462 03-03-2021 01:45:00 1.8 C 5.1 g/m*3 1.8 C 0 km/h
1463 03-03-2021 01:50:00 1.8 C 5.1 g/m*3 1.8 C 0 km/h
1464 03-03-2021 01:55:00 1.8 C 5.1 g/m*3 1.8 C 0 km/h
1465 03-03-2021 02:00:00 1.7 C 5.06 g/m*3 1.7 C 0 km/h
1466 03-03-2021 02:05:00 1.7 C 5.06 g/m*3 1.7 C 0 km/h
1467 03-03-2021 02:10:00 1.5 C 4.99 g/m*3 1.5 C 0 km/h
1468 03-03-2021 02:15:00 1.5 C 5.05 g/m*3 1.5 C 0 km/h
1469 03-03-2021 02:20:00 1.4 C 4.96 g/m*3 1.4 C 0 km/h
1470 03-03-2021 02:25:00 1.5 C 5.05 g/m*3 1.5 C 0 km/h
1471 03-03-2021 02:30:00 1.4 C 5.01 g/m*3 1.4 C 0 km/h
1472 03-03-2021 02:35:00 1.4 C 5.01 g/m*3 1.4 C 0 km/h
1473 03-03-2021 02:40:00 1.3 C 4.98 g/m*3 1.3 C 0 km/h
1474 03-03-2021 02:45:00 1.2 C 4.95 g/m*3 1.2 C 0 km/h
1475 03-03-2021 02:50:00 1.2 C 4.95 g/m*3 1.2 C 0 km/h
Sensor: Nr:Datum:Temp:Abs-Feuchte:Windchill:Wind:
Aussen-T/F 1476 03-03-2021 02:55:00 1.2 C 4.95 g/m*3 1.2 C 0 km/h
1477 03-03-2021 03:00:00 1.2 C 4.95 g/m*3 1.2 C 0 km/h
1478 03-03-2021 03:05:00 1.1 C 4.91 g/m*3 1.1 C 0 km/h
1479 03-03-2021 03:10:00 1.2 C 4.95 g/m*3 1.2 C 0 km/h
1480 03-03-2021 03:15:00 1.2 C 4.95 g/m*3 1.2 C 0 km/h
1481 03-03-2021 03:20:00 1.2 C 4.95 g/m*3 1.2 C 0 km/h
1482 03-03-2021 03:25:00 1.1 C 4.91 g/m*3 1.1 C 0 km/h
1483 03-03-2021 03:30:00 1.1 C 4.91 g/m*3 1.1 C 0 km/h
1484 03-03-2021 03:35:00 1 C 4.88 g/m*3 1 C 0 km/h
1485 03-03-2021 03:40:00 0.9 C 4.85 g/m*3 0.9 C 0 km/h
1486 03-03-2021 03:45:00 1 C 4.88 g/m*3 1 C 0 km/h
1487 03-03-2021 03:50:00 1 C 4.88 g/m*3 1 C 0 km/h
1488 03-03-2021 03:55:00 1.1 C 4.96 g/m*3 1.1 C 0 km/h
1489 03-03-2021 04:00:00 1.1 C 4.96 g/m*3 1.1 C 0 km/h
1490 03-03-2021 04:05:00 1.2 C 5 g/m*3 1.2 C 0 km/h
1491 03-03-2021 04:10:00 1.2 C 5 g/m*3 1.2 C 0 km/h
1492 03-03-2021 04:15:00 1.2 C 5 g/m*3 1.2 C 0 km/h
1493 03-03-2021 04:20:00 1.3 C 5.03 g/m*3 1.3 C 0 km/h
1494 03-03-2021 04:25:00 1.4 C 5.07 g/m*3 1.4 C 0 km/h
1495 03-03-2021 04:30:00 1.5 C 5.1 g/m*3 1.5 C 0 km/h
1496 03-03-2021 04:35:00 1.4 C 5.07 g/m*3 1.4 C 0 km/h
1497 03-03-2021 04:40:00 1.3 C 5.03 g/m*3 1.3 C 0 km/h
1498 03-03-2021 04:45:00 1.2 C 5 g/m*3 1.2 C 0 km/h
1499 03-03-2021 04:50:00 1.1 C 4.91 g/m*3 1.1 C 0 km/h
1500 03-03-2021 04:55:00 1 C 4.93 g/m*3 1 C 0 km/h
Sensor: Nr:Datum:Temp:Abs-Feuchte:Windchill:Wind:
Aussen-T/F 1501 03-03-2021 05:00:00 0.9 C 4.9 g/m*3 0.9 C 0 km/h
1502 03-03-2021 05:05:00 0.8 C 4.81 g/m*3 0.8 C 0 km/h
1503 03-03-2021 05:10:00 0.8 C 4.86 g/m*3 0.8 C 0 km/h
1504 03-03-2021 05:15:00 0.8 C 4.86 g/m*3 0.8 C 0 km/h
1505 03-03-2021 05:20:00 0.7 C 4.83 g/m*3 0.7 C 0 km/h
1506 03-03-2021 05:25:00 0.7 C 4.83 g/m*3 0.7 C 1.6 km/h
1507 03-03-2021 05:30:00 0.8 C 4.86 g/m*3 0.8 C 0 km/h
1508 03-03-2021 05:35:00 0.9 C 4.9 g/m*3 0.9 C 3.2 km/h
1509 03-03-2021 05:40:00 1 C 4.93 g/m*3 1 C 1.6 km/h
1510 03-03-2021 05:45:00 1.1 C 4.96 g/m*3 1.1 C 0 km/h
1511 03-03-2021 05:50:00 1.1 C 4.96 g/m*3 1.1 C 0 km/h
1512 03-03-2021 05:55:00 1.1 C 4.96 g/m*3 1.1 C 0 km/h
1513 03-03-2021 06:00:00 1 C 4.93 g/m*3 1 C 0 km/h
1514 03-03-2021 06:05:00 0.9 C 4.9 g/m*3 0.9 C 0 km/h
1515 03-03-2021 06:10:00 0.8 C 4.86 g/m*3 0.8 C 0 km/h
1516 03-03-2021 06:15:00 0.8 C 4.86 g/m*3 0.8 C 0 km/h
1517 03-03-2021 06:20:00 0.7 C 4.83 g/m*3 0.7 C 0 km/h
1518 03-03-2021 06:25:00 0.7 C 4.83 g/m*3 0.7 C 0 km/h
1519 03-03-2021 06:30:00 0.7 C 4.83 g/m*3 0.7 C 0 km/h
1520 03-03-2021 06:35:00 0.8 C 4.86 g/m*3 0.8 C 0 km/h
1521 03-03-2021 06:40:00 0.9 C 4.9 g/m*3 0.9 C 0 km/h
1522 03-03-2021 06:45:00 0.9 C 4.95 g/m*3 0.9 C 0 km/h
1523 03-03-2021 06:50:00 0.9 C 4.9 g/m*3 0.9 C 0 km/h
1524 03-03-2021 06:55:00 0.9 C 4.9 g/m*3 0.9 C 0 km/h
1525 03-03-2021 07:00:00 0.9 C 4.9 g/m*3 0.9 C 0 km/h
Sensor: Nr:Datum:Temp:Abs-Feuchte:Windchill:Wind:
Aussen-T/F 1526 03-03-2021 07:05:00 0.8 C 4.86 g/m*3 0.8 C 0 km/h
1527 03-03-2021 07:10:00 0.8 C 4.86 g/m*3 0.8 C 0 km/h
1528 03-03-2021 07:15:00 0.7 C 4.83 g/m*3 0.7 C 0 km/h
1529 03-03-2021 07:20:00 0.7 C 4.83 g/m*3 0.7 C 0 km/h
1530 03-03-2021 07:25:00 0.6 C 4.8 g/m*3 0.6 C 0 km/h
1531 03-03-2021 07:30:00 0.6 C 4.8 g/m*3 0.6 C 0 km/h
1532 03-03-2021 07:35:00 0.7 C 4.83 g/m*3 0.7 C 0 km/h
1533 03-03-2021 07:40:00 0.7 C 4.83 g/m*3 0.7 C 0 km/h
1534 03-03-2021 07:45:00 0.8 C 4.86 g/m*3 0.8 C 0 km/h
1535 03-03-2021 07:50:00 0.9 C 4.95 g/m*3 0.9 C 0 km/h
1536 03-03-2021 07:55:00 0.9 C 4.95 g/m*3 0.9 C 0 km/h
1537 03-03-2021 08:00:00 1.1 C 5.02 g/m*3 1.1 C 0 km/h
1538 03-03-2021 08:05:00 1.1 C 5.02 g/m*3 1.1 C 0 km/h
1539 03-03-2021 08:10:00 1.2 C 5.05 g/m*3 1.2 C 0 km/h
1540 03-03-2021 08:15:00 1.3 C 5.09 g/m*3 1.3 C 0 km/h
1541 03-03-2021 08:20:00 1.4 C 5.12 g/m*3 1.4 C 0 km/h
1542 03-03-2021 08:25:00 1.5 C 5.16 g/m*3 1.5 C 0 km/h
1543 03-03-2021 08:30:00 1.6 C 5.19 g/m*3 1.6 C 0 km/h
1544 03-03-2021 08:35:00 1.7 C 5.23 g/m*3 1.7 C 0 km/h
1545 03-03-2021 08:40:00 1.8 C 5.26 g/m*3 1.8 C 0 km/h
1546 03-03-2021 08:45:00 1.9 C 5.3 g/m*3 1.9 C 0 km/h
1547 03-03-2021 08:50:00 1.9 C 5.3 g/m*3 1.9 C 0 km/h
1548 03-03-2021 08:55:00 2 C 5.33 g/m*3 2 C 0 km/h
1549 03-03-2021 09:00:00 2.1 C 5.37 g/m*3 2.1 C 0 km/h
1550 03-03-2021 09:05:00 2.1 C 5.37 g/m*3 2.1 C 0 km/h
Sensor: Nr:Datum:Temp:Abs-Feuchte:Windchill:Wind:
Aussen-T/F 1551 03-03-2021 09:10:00 2.2 C 5.41 g/m*3 2.2 C 0 km/h
1552 03-03-2021 09:15:00 2.2 C 5.41 g/m*3 2.2 C 0 km/h
1553 03-03-2021 09:20:00 2.3 C 5.44 g/m*3 2.3 C 0 km/h
1554 03-03-2021 09:25:00 2.3 C 5.44 g/m*3 2.3 C 0 km/h
1555 03-03-2021 09:30:00 2.4 C 5.48 g/m*3 2.4 C 0 km/h
1556 03-03-2021 09:35:00 2.6 C 5.56 g/m*3 2.6 C 3.2 km/h
1557 03-03-2021 09:40:00 2.6 C 5.56 g/m*3 2.6 C 1.6 km/h
1558 03-03-2021 09:45:00 2.6 C 5.56 g/m*3 2.6 C 0 km/h
1559 03-03-2021 09:50:00 2.7 C 5.54 g/m*3 2.7 C 0 km/h
1560 03-03-2021 09:55:00 2.7 C 5.54 g/m*3 2.7 C 0 km/h
1561 03-03-2021 10:00:00 2.8 C 5.57 g/m*3 2.8 C 0 km/h
1562 03-03-2021 10:05:00 2.8 C 5.57 g/m*3 2.8 C 0 km/h
1563 03-03-2021 10:10:00 2.9 C 5.67 g/m*3 2.9 C 0 km/h
1564 03-03-2021 10:15:00 3 C 5.65 g/m*3 3 C 0 km/h
1565 03-03-2021 10:20:00 3.2 C 5.72 g/m*3 3.2 C 0 km/h
1566 03-03-2021 10:25:00 3.3 C 5.76 g/m*3 3.3 C 0 km/h
1567 03-03-2021 10:30:00 3.4 C 5.8 g/m*3 3.4 C 0 km/h
1568 03-03-2021 10:35:00 3.6 C 5.94 g/m*3 3.6 C 0 km/h
1569 03-03-2021 10:40:00 3.8 C 6.02 g/m*3 3.8 C 0 km/h
1570 03-03-2021 10:45:00 3.9 C 6 g/m*3 3.9 C 0 km/h
1571 03-03-2021 10:50:00 4.2 C 6.12 g/m*3 4.2 C 0 km/h
1572 03-03-2021 10:55:00 4.3 C 6.16 g/m*3 4.3 C 0 km/h
1573 03-03-2021 11:00:00 4.6 C 6.29 g/m*3 4.6 C 0 km/h
1574 03-03-2021 11:05:00 4.8 C 6.3 g/m*3 4.8 C 0 km/h
1575 03-03-2021 11:10:00 5.1 C 6.43 g/m*3 5.1 C 0 km/h
Sensor: Nr:Datum:Temp:Abs-Feuchte:Windchill:Wind:
Aussen-T/F 1576 03-03-2021 11:15:00 5.3 C 6.45 g/m*3 5.3 C 0 km/h
1577 03-03-2021 11:20:00 5.7 C 6.55 g/m*3 5.7 C 0 km/h
1578 03-03-2021 11:25:00 6 C 6.6 g/m*3 6 C 0 km/h
1579 03-03-2021 11:30:00 6.3 C 6.66 g/m*3 6.3 C 0 km/h
1580 03-03-2021 11:35:00 6.6 C 6.72 g/m*3 6.6 C 0 km/h
1581 03-03-2021 11:40:00 7 C 6.82 g/m*3 7 C 0 km/h
1582 03-03-2021 11:45:00 7.3 C 6.79 g/m*3 7.3 C 0 km/h
1583 03-03-2021 11:50:00 7.7 C 6.81 g/m*3 7.7 C 0 km/h
1584 03-03-2021 11:55:00 8 C 6.86 g/m*3 8 C 0 km/h
1585 03-03-2021 12:00:00 8.3 C 6.91 g/m*3 8.3 C 0 km/h
1586 03-03-2021 12:05:00 8.6 C 6.96 g/m*3 8.6 C 0 km/h
1587 03-03-2021 12:10:00 8.9 C 6.92 g/m*3 8.9 C 0 km/h
1588 03-03-2021 12:15:00 9.2 C 6.97 g/m*3 9.2 C 0 km/h
1589 03-03-2021 12:20:00 9.5 C 7.1 g/m*3 9.5 C 0 km/h
1590 03-03-2021 12:25:00 9.9 C 7.38 g/m*3 9.9 C 0 km/h
1591 03-03-2021 12:30:00 10.4 C 7.71 g/m*3 10.4 C 0 km/h
1592 03-03-2021 12:35:00 10.8 C 7.41 g/m*3 10.8 C 0 km/h
1593 03-03-2021 12:40:00 11.2 C 7.2 g/m*3 11.2 C 0 km/h
1594 03-03-2021 12:45:00 11.4 C 7.19 g/m*3 11.4 C 0 km/h
1595 03-03-2021 12:50:00 11.6 C 7.17 g/m*3 11.6 C 0 km/h
1596 03-03-2021 12:55:00 11.8 C 7.26 g/m*3 11.8 C 0 km/h
1597 03-03-2021 13:00:00 12.2 C 7.66 g/m*3 12.2 C 0 km/h
1598 03-03-2021 13:05:00 12.5 C 7.7 g/m*3 12.5 C 0 km/h
1599 03-03-2021 13:10:00 12.7 C 7.57 g/m*3 12.7 C 0 km/h
1600 03-03-2021 13:15:00 12.9 C 7.44 g/m*3 12.9 C 0 km/h
Sensor: Nr:Datum:Temp:Abs-Feuchte:Windchill:Wind:
Aussen-T/F 1601 03-03-2021 13:20:00 13.2 C 7.35 g/m*3 13.2 C 0 km/h
1602 03-03-2021 13:25:00 13.5 C 7.49 g/m*3 13.5 C 0 km/h
1603 03-03-2021 13:30:00 13.7 C 7.58 g/m*3 13.7 C 0 km/h
1604 03-03-2021 13:35:00 14 C 7.84 g/m*3 14 C 0 km/h
1605 03-03-2021 13:40:00 14.4 C 7.54 g/m*3 14.4 C 0 km/h
1606 03-03-2021 13:45:00 14.7 C 7.43 g/m*3 14.7 C 0 km/h
1607 03-03-2021 13:50:00 15 C 7.57 g/m*3 15 C 4.8 km/h
1608 03-03-2021 13:55:00 15.3 C 7.57 g/m*3 15.3 C 4.8 km/h
1609 03-03-2021 14:00:00 15.6 C 7.31 g/m*3 15.6 C 1.6 km/h
1610 03-03-2021 14:05:00 15.8 C 7.54 g/m*3 15.8 C 0 km/h
1611 03-03-2021 14:10:00 15.7 C 7.63 g/m*3 15.7 C 8.1 km/h
1612 03-03-2021 14:15:00 15.5 C 7.53 g/m*3 15.5 C 3.2 km/h
1613 03-03-2021 14:20:00 15.4 C 7.62 g/m*3 15.4 C 0 km/h
1614 03-03-2021 14:25:00 15.4 C 7.62 g/m*3 15.4 C 0 km/h
1615 03-03-2021 14:30:00 15.4 C 7.62 g/m*3 15.4 C 0 km/h
1616 03-03-2021 14:35:00 15.5 C 7.53 g/m*3 15.5 C 0 km/h
1617 03-03-2021 14:40:00 15.6 C 7.58 g/m*3 15.6 C 0 km/h
1618 03-03-2021 14:45:00 15.7 C 7.63 g/m*3 15.7 C 0 km/h
1619 03-03-2021 14:50:00 15.8 C 7.54 g/m*3 15.8 C 0 km/h
1620 03-03-2021 14:55:00 15.8 C 7.81 g/m*3 15.8 C 0 km/h
1621 03-03-2021 15:00:00 15.9 C 7.58 g/m*3 15.9 C 0 km/h
1622 03-03-2021 15:05:00 15.9 C 7.58 g/m*3 15.9 C 0 km/h
1623 03-03-2021 15:10:00 16 C 7.63 g/m*3 16 C 0 km/h
1624 03-03-2021 15:15:00 16.1 C 7.68 g/m*3 16.1 C 0 km/h
1625 03-03-2021 15:20:00 16.1 C 7.4 g/m*3 16.1 C 0 km/h
Sensor: Nr:Datum:Temp:Abs-Feuchte:Windchill:Wind:
Aussen-T/F 1626 03-03-2021 15:25:00 16.2 C 7.45 g/m*3 16.2 C 0 km/h
1627 03-03-2021 15:30:00 16.2 C 8 g/m*3 16.2 C 0 km/h
1628 03-03-2021 15:35:00 16.3 C 7.77 g/m*3 16.3 C 0 km/h
1629 03-03-2021 15:40:00 16.3 C 7.35 g/m*3 16.3 C 0 km/h
1630 03-03-2021 15:45:00 16.4 C 7.4 g/m*3 16.4 C 0 km/h
1631 03-03-2021 15:50:00 16.5 C 7.72 g/m*3 16.5 C 0 km/h
1632 03-03-2021 15:55:00 16.6 C 7.35 g/m*3 16.6 C 0 km/h
1633 03-03-2021 16:00:00 16.6 C 7.49 g/m*3 16.6 C 0 km/h
1634 03-03-2021 16:05:00 16.6 C 7.2 g/m*3 16.6 C 0 km/h
1635 03-03-2021 16:10:00 16.7 C 7.67 g/m*3 16.7 C 0 km/h
1636 03-03-2021 16:15:00 16.7 C 7.82 g/m*3 16.7 C 0 km/h
1637 03-03-2021 16:20:00 16.8 C 8.01 g/m*3 16.8 C 0 km/h
1638 03-03-2021 16:25:00 16.8 C 7.86 g/m*3 16.8 C 0 km/h
1639 03-03-2021 16:30:00 16.7 C 7.82 g/m*3 16.7 C 0 km/h
1640 03-03-2021 16:35:00 16.7 C 8.38 g/m*3 16.7 C 0 km/h
1641 03-03-2021 16:40:00 16.6 C 8.19 g/m*3 16.6 C 0 km/h
1642 03-03-2021 16:45:00 16.5 C 8.14 g/m*3 16.5 C 0 km/h
1643 03-03-2021 16:50:00 16.3 C 8.05 g/m*3 16.3 C 0 km/h
1644 03-03-2021 16:55:00 16.1 C 8.09 g/m*3 16.1 C 0 km/h
1645 03-03-2021 17:00:00 15.9 C 8.13 g/m*3 15.9 C 0 km/h
1646 03-03-2021 17:05:00 15.6 C 8.25 g/m*3 15.6 C 0 km/h
1647 03-03-2021 17:10:00 15.3 C 8.23 g/m*3 15.3 C 0 km/h
1648 03-03-2021 17:15:00 15.1 C 8.13 g/m*3 15.1 C 0 km/h
1649 03-03-2021 17:20:00 14.9 C 8.03 g/m*3 14.9 C 0 km/h
1650 03-03-2021 17:25:00 14.6 C 8.13 g/m*3 14.6 C 0 km/h
Sensor: Nr:Datum:Temp:Abs-Feuchte:Windchill:Wind:
Aussen-T/F 1651 03-03-2021 17:30:00 14.3 C 7.99 g/m*3 14.3 C 0 km/h
1652 03-03-2021 17:35:00 14 C 7.84 g/m*3 14 C 0 km/h
1653 03-03-2021 17:40:00 13.7 C 7.93 g/m*3 13.7 C 0 km/h
1654 03-03-2021 17:45:00 13.4 C 7.79 g/m*3 13.4 C 0 km/h
1655 03-03-2021 17:50:00 13.1 C 7.65 g/m*3 13.1 C 0 km/h
1656 03-03-2021 17:55:00 12.7 C 7.57 g/m*3 12.7 C 0 km/h
1657 03-03-2021 18:00:00 12.4 C 7.54 g/m*3 12.4 C 0 km/h
1658 03-03-2021 18:05:00 12.1 C 7.51 g/m*3 12.1 C 0 km/h
1659 03-03-2021 18:10:00 11.9 C 7.41 g/m*3 11.9 C 0 km/h
1660 03-03-2021 18:15:00 11.7 C 7.43 g/m*3 11.7 C 0 km/h
1661 03-03-2021 18:20:00 11.4 C 7.29 g/m*3 11.4 C 0 km/h
1662 03-03-2021 18:25:00 11.3 C 7.34 g/m*3 11.3 C 0 km/h
1663 03-03-2021 18:30:00 11.1 C 7.25 g/m*3 11.1 C 0 km/h
1664 03-03-2021 18:35:00 10.8 C 7.22 g/m*3 10.8 C 0 km/h
1665 03-03-2021 18:40:00 10.7 C 7.27 g/m*3 10.7 C 0 km/h
1666 03-03-2021 18:45:00 10.6 C 7.22 g/m*3 10.6 C 0 km/h
1667 03-03-2021 18:50:00 10.4 C 7.23 g/m*3 10.4 C 0 km/h
1668 03-03-2021 18:55:00 10.3 C 7.18 g/m*3 10.3 C 0 km/h
1669 03-03-2021 19:00:00 10.2 C 7.23 g/m*3 10.2 C 0 km/h
1670 03-03-2021 19:05:00 10.1 C 7.19 g/m*3 10.1 C 0 km/h
1671 03-03-2021 19:10:00 10 C 7.14 g/m*3 10 C 0 km/h
1672 03-03-2021 19:15:00 9.9 C 7.1 g/m*3 9.9 C 0 km/h
1673 03-03-2021 19:20:00 9.9 C 7.19 g/m*3 9.9 C 0 km/h
1674 03-03-2021 19:25:00 9.8 C 7.14 g/m*3 9.8 C 0 km/h
1675 03-03-2021 19:30:00 9.8 C 7.14 g/m*3 9.8 C 0 km/h
Sensor: Nr:Datum:Temp:Abs-Feuchte:Windchill:Wind:
Aussen-T/F 1676 03-03-2021 19:35:00 9.7 C 7.1 g/m*3 9.7 C 0 km/h
1677 03-03-2021 19:40:00 9.6 C 7.05 g/m*3 9.6 C 0 km/h
1678 03-03-2021 19:45:00 9.4 C 6.96 g/m*3 9.4 C 0 km/h
1679 03-03-2021 19:50:00 9.3 C 7.01 g/m*3 9.3 C 0 km/h
1680 03-03-2021 19:55:00 9.3 C 7.1 g/m*3 9.3 C 0 km/h
1681 03-03-2021 20:00:00 9.3 C 7.19 g/m*3 9.3 C 0 km/h
1682 03-03-2021 20:05:00 9.2 C 7.05 g/m*3 9.2 C 0 km/h
1683 03-03-2021 20:10:00 9.1 C 7.01 g/m*3 9.1 C 0 km/h
1684 03-03-2021 20:15:00 9 C 6.96 g/m*3 9 C 0 km/h
1685 03-03-2021 20:20:00 8.8 C 6.88 g/m*3 8.8 C 0 km/h
1686 03-03-2021 20:25:00 8.7 C 6.83 g/m*3 8.7 C 0 km/h
1687 03-03-2021 20:30:00 8.5 C 6.74 g/m*3 8.5 C 0 km/h
1688 03-03-2021 20:35:00 8.3 C 6.74 g/m*3 8.3 C 0 km/h
1689 03-03-2021 20:40:00 8.2 C 6.78 g/m*3 8.2 C 0 km/h
1690 03-03-2021 20:45:00 8.2 C 6.87 g/m*3 8.2 C 0 km/h
1691 03-03-2021 20:50:00 8.1 C 6.91 g/m*3 8.1 C 0 km/h
1692 03-03-2021 20:55:00 8.1 C 6.91 g/m*3 8.1 C 0 km/h
1693 03-03-2021 21:00:00 8.1 C 6.91 g/m*3 8.1 C 0 km/h
1694 03-03-2021 21:05:00 8.1 C 6.91 g/m*3 8.1 C 0 km/h
1695 03-03-2021 21:10:00 8 C 6.86 g/m*3 8 C 0 km/h
1696 03-03-2021 21:15:00 7.9 C 6.82 g/m*3 7.9 C 0 km/h
1697 03-03-2021 21:20:00 7.8 C 6.77 g/m*3 7.8 C 0 km/h
1698 03-03-2021 21:25:00 7.8 C 6.77 g/m*3 7.8 C 0 km/h
1699 03-03-2021 21:30:00 7.7 C 6.73 g/m*3 7.7 C 0 km/h
1700 03-03-2021 21:35:00 7.7 C 6.73 g/m*3 7.7 C 0 km/h
Sensor: Nr:Datum:Temp:Abs-Feuchte:Windchill:Wind:
Aussen-T/F 1701 03-03-2021 21:40:00 7.6 C 6.77 g/m*3 7.6 C 0 km/h
1702 03-03-2021 21:45:00 7.6 C 6.77 g/m*3 7.6 C 0 km/h
1703 03-03-2021 21:50:00 7.6 C 6.77 g/m*3 7.6 C 0 km/h
1704 03-03-2021 21:55:00 7.6 C 6.77 g/m*3 7.6 C 0 km/h
1705 03-03-2021 22:00:00 7.7 C 6.81 g/m*3 7.7 C 0 km/h
1706 03-03-2021 22:05:00 7.7 C 6.81 g/m*3 7.7 C 0 km/h
1707 03-03-2021 22:10:00 7.8 C 6.86 g/m*3 7.8 C 0 km/h
1708 03-03-2021 22:15:00 7.8 C 6.86 g/m*3 7.8 C 0 km/h
1709 03-03-2021 22:20:00 7.9 C 6.9 g/m*3 7.9 C 0 km/h
1710 03-03-2021 22:25:00 8 C 6.94 g/m*3 8 C 0 km/h
1711 03-03-2021 22:30:00 8.1 C 6.99 g/m*3 8.1 C 0 km/h
1712 03-03-2021 22:35:00 8.1 C 6.91 g/m*3 8.1 C 0 km/h
1713 03-03-2021 22:40:00 8 C 6.86 g/m*3 8 C 0 km/h
1714 03-03-2021 22:45:00 7.9 C 6.82 g/m*3 7.9 C 0 km/h
1715 03-03-2021 22:50:00 7.8 C 6.77 g/m*3 7.8 C 0 km/h
1716 03-03-2021 22:55:00 7.8 C 6.86 g/m*3 7.8 C 0 km/h
1717 03-03-2021 23:00:00 7.7 C 6.81 g/m*3 7.7 C 0 km/h
1718 03-03-2021 23:05:00 7.7 C 6.81 g/m*3 7.7 C 0 km/h
1719 03-03-2021 23:10:00 7.7 C 6.81 g/m*3 7.7 C 0 km/h
1720 03-03-2021 23:15:00 7.7 C 6.89 g/m*3 7.7 C 0 km/h
1721 03-03-2021 23:20:00 7.7 C 6.89 g/m*3 7.7 C 0 km/h
1722 03-03-2021 23:25:00 7.7 C 6.89 g/m*3 7.7 C 0 km/h
1723 03-03-2021 23:30:00 7.7 C 6.89 g/m*3 7.7 C 0 km/h
1724 03-03-2021 23:35:00 7.8 C 6.94 g/m*3 7.8 C 0 km/h
1725 03-03-2021 23:40:00 7.9 C 6.9 g/m*3 7.9 C 0 km/h
Sensor: Nr:Datum:Temp:Abs-Feuchte:Windchill:Wind:
Aussen-T/F 1726 03-03-2021 23:45:00 8 C 6.94 g/m*3 8 C 0 km/h
1727 03-03-2021 23:50:00 8 C 6.94 g/m*3 8 C 0 km/h
1728 03-03-2021 23:55:00 7.9 C 6.82 g/m*3 7.9 C 0 km/h
1729 04-03-2021 00:00:00 7.8 C 6.77 g/m*3 7.8 C 0 km/h
1730 04-03-2021 00:05:00 7.8 C 6.77 g/m*3 7.8 C 0 km/h
1731 04-03-2021 00:10:00 7.8 C 6.77 g/m*3 7.8 C 0 km/h
1732 04-03-2021 00:15:00 7.7 C 6.73 g/m*3 7.7 C 0 km/h
1733 04-03-2021 00:20:00 7.6 C 6.69 g/m*3 7.6 C 0 km/h
1734 04-03-2021 00:25:00 7.4 C 6.6 g/m*3 7.4 C 0 km/h
1735 04-03-2021 00:30:00 7.2 C 6.52 g/m*3 7.2 C 0 km/h
1736 04-03-2021 00:35:00 7 C 6.51 g/m*3 7 C 0 km/h
1737 04-03-2021 00:40:00 6.8 C 6.42 g/m*3 6.8 C 0 km/h
1738 04-03-2021 00:45:00 6.7 C 6.46 g/m*3 6.7 C 0 km/h
1739 04-03-2021 00:50:00 6.5 C 6.45 g/m*3 6.5 C 0 km/h
1740 04-03-2021 00:55:00 6.4 C 6.41 g/m*3 6.4 C 0 km/h
1741 04-03-2021 01:00:00 6.3 C 6.44 g/m*3 6.3 C 0 km/h
1742 04-03-2021 01:05:00 6.2 C 6.4 g/m*3 6.2 C 0 km/h
1743 04-03-2021 01:10:00 6.1 C 6.36 g/m*3 6.1 C 0 km/h
1744 04-03-2021 01:15:00 6.1 C 6.43 g/m*3 6.1 C 0 km/h
1745 04-03-2021 01:20:00 6.1 C 6.43 g/m*3 6.1 C 0 km/h
1746 04-03-2021 01:25:00 6.1 C 6.5 g/m*3 6.1 C 0 km/h
1747 04-03-2021 01:30:00 6.1 C 6.5 g/m*3 6.1 C 0 km/h
1748 04-03-2021 01:35:00 6.1 C 6.5 g/m*3 6.1 C 0 km/h
1749 04-03-2021 01:40:00 6.2 C 6.55 g/m*3 6.2 C 0 km/h
1750 04-03-2021 01:45:00 6.1 C 6.5 g/m*3 6.1 C 0 km/h
Sensor: Nr:Datum:Temp:Abs-Feuchte:Windchill:Wind:
Aussen-T/F 1751 04-03-2021 01:50:00 6 C 6.39 g/m*3 6 C 0 km/h
1752 04-03-2021 01:55:00 5.9 C 6.35 g/m*3 5.9 C 0 km/h
1753 04-03-2021 02:00:00 5.8 C 6.3 g/m*3 5.8 C 0 km/h
1754 04-03-2021 02:05:00 5.8 C 6.3 g/m*3 5.8 C 0 km/h
1755 04-03-2021 02:10:00 5.7 C 6.26 g/m*3 5.7 C 0 km/h
1756 04-03-2021 02:15:00 5.6 C 6.29 g/m*3 5.6 C 0 km/h
1757 04-03-2021 02:20:00 5.6 C 6.29 g/m*3 5.6 C 0 km/h
1758 04-03-2021 02:25:00 5.5 C 6.25 g/m*3 5.5 C 0 km/h
1759 04-03-2021 02:30:00 5.4 C 6.21 g/m*3 5.4 C 0 km/h
1760 04-03-2021 02:35:00 5.4 C 6.21 g/m*3 5.4 C 0 km/h
1761 04-03-2021 02:40:00 5.3 C 6.17 g/m*3 5.3 C 0 km/h
1762 04-03-2021 02:45:00 5.1 C 6.09 g/m*3 5.1 C 0 km/h
1763 04-03-2021 02:50:00 5 C 6.05 g/m*3 5 C 0 km/h
1764 04-03-2021 02:55:00 4.9 C 6.08 g/m*3 4.9 C 0 km/h
1765 04-03-2021 03:00:00 4.8 C 6.04 g/m*3 4.8 C 0 km/h
1766 04-03-2021 03:05:00 4.8 C 6.04 g/m*3 4.8 C 0 km/h
1767 04-03-2021 03:10:00 4.8 C 6.04 g/m*3 4.8 C 0 km/h
1768 04-03-2021 03:15:00 4.7 C 6 g/m*3 4.7 C 0 km/h
1769 04-03-2021 03:20:00 4.8 C 6.1 g/m*3 4.8 C 4.8 km/h
1770 04-03-2021 03:25:00 4.9 C 6.14 g/m*3 4.9 C 4.8 km/h
1771 04-03-2021 03:30:00 4.9 C 6.14 g/m*3 4.9 C 0 km/h
1772 04-03-2021 03:35:00 4.8 C 6.04 g/m*3 4.8 C 0 km/h
1773 04-03-2021 03:40:00 4.7 C 6 g/m*3 4.7 C 0 km/h
1774 04-03-2021 03:45:00 4.6 C 6.02 g/m*3 4.6 C 0 km/h
1775 04-03-2021 03:50:00 4.5 C 5.98 g/m*3 4.5 C 0 km/h
Sensor: Nr:Datum:Temp:Abs-Feuchte:Windchill:Wind:
Aussen-T/F 1776 04-03-2021 03:55:00 4.5 C 5.98 g/m*3 4.5 C 0 km/h
1777 04-03-2021 04:00:00 4.5 C 5.98 g/m*3 4.5 C 0 km/h
1778 04-03-2021 04:05:00 4.5 C 6.05 g/m*3 4.5 C 0 km/h
1779 04-03-2021 04:10:00 4.6 C 6.09 g/m*3 4.6 C 0 km/h
1780 04-03-2021 04:15:00 4.6 C 6.09 g/m*3 4.6 C 0 km/h
1781 04-03-2021 04:20:00 4.5 C 6.05 g/m*3 4.5 C 0 km/h
1782 04-03-2021 04:25:00 4.5 C 6.05 g/m*3 4.5 C 0 km/h
1783 04-03-2021 04:30:00 4.4 C 6.01 g/m*3 4.4 C 0 km/h
1784 04-03-2021 04:35:00 4.3 C 5.9 g/m*3 4.3 C 0 km/h
1785 04-03-2021 04:40:00 4.3 C 5.97 g/m*3 4.3 C 0 km/h
1786 04-03-2021 04:45:00 4.2 C 5.93 g/m*3 4.2 C 0 km/h
1787 04-03-2021 04:50:00 4.2 C 5.93 g/m*3 4.2 C 0 km/h
1788 04-03-2021 04:55:00 4.3 C 5.97 g/m*3 4.3 C 0 km/h
1789 04-03-2021 05:00:00 4.3 C 6.03 g/m*3 4.3 C 0 km/h
1790 04-03-2021 05:05:00 4.4 C 6.07 g/m*3 4.4 C 1.6 km/h
1791 04-03-2021 05:10:00 4.6 C 6.15 g/m*3 4.6 C 1.6 km/h
1792 04-03-2021 05:15:00 4.7 C 6.19 g/m*3 4.7 C 0 km/h
1793 04-03-2021 05:20:00 4.7 C 6.19 g/m*3 4.7 C 0 km/h
1794 04-03-2021 05:25:00 4.8 C 6.24 g/m*3 4.8 C 0 km/h
1795 04-03-2021 05:30:00 4.8 C 6.24 g/m*3 4.8 C 0 km/h
1796 04-03-2021 05:35:00 4.8 C 6.24 g/m*3 4.8 C 1.6 km/h
1797 04-03-2021 05:40:00 4.8 C 6.24 g/m*3 4.8 C 1.6 km/h
1798 04-03-2021 05:45:00 4.8 C 6.24 g/m*3 4.8 C 3.2 km/h
1799 04-03-2021 05:50:00 4.8 C 6.17 g/m*3 4.8 C 0 km/h
1800 04-03-2021 05:55:00 4.7 C 6.13 g/m*3 4.7 C 0 km/h
Sensor: Nr:Datum:Temp:Abs-Feuchte:Windchill:Wind:
Aussen-T/F 1801 04-03-2021 06:00:00 4.5 C 6.05 g/m*3 4.5 C 0 km/h
1802 04-03-2021 06:05:00 4.4 C 6.01 g/m*3 4.4 C 1.6 km/h
1803 04-03-2021 06:10:00 4.3 C 5.97 g/m*3 4.3 C 0 km/h
1804 04-03-2021 06:15:00 4.2 C 5.93 g/m*3 4.2 C 0 km/h
1805 04-03-2021 06:20:00 4.1 C 5.89 g/m*3 4.1 C 0 km/h
1806 04-03-2021 06:25:00 3.9 C 5.81 g/m*3 3.9 C 0 km/h
1807 04-03-2021 06:30:00 4 C 5.85 g/m*3 4 C 0 km/h
1808 04-03-2021 06:35:00 3.9 C 5.81 g/m*3 3.9 C 0 km/h
1809 04-03-2021 06:40:00 3.7 C 5.73 g/m*3 3.7 C 0 km/h
1810 04-03-2021 06:45:00 3.7 C 5.73 g/m*3 3.7 C 0 km/h
1811 04-03-2021 06:50:00 3.7 C 5.8 g/m*3 3.7 C 0 km/h
1812 04-03-2021 06:55:00 3.6 C 5.69 g/m*3 3.6 C 0 km/h
1813 04-03-2021 07:00:00 3.6 C 5.76 g/m*3 3.6 C 0 km/h
1814 04-03-2021 07:05:00 3.4 C 5.62 g/m*3 3.4 C 0 km/h
1815 04-03-2021 07:10:00 3.4 C 5.68 g/m*3 3.4 C 0 km/h
1816 04-03-2021 07:15:00 3.3 C 5.64 g/m*3 3.3 C 0 km/h
1817 04-03-2021 07:20:00 3.3 C 5.64 g/m*3 3.3 C 0 km/h
1818 04-03-2021 07:25:00 3.3 C 5.64 g/m*3 3.3 C 0 km/h
1819 04-03-2021 07:30:00 3.4 C 5.74 g/m*3 3.4 C 0 km/h
1820 04-03-2021 07:35:00 3.7 C 5.86 g/m*3 3.7 C 1.6 km/h
1821 04-03-2021 07:40:00 3.9 C 5.94 g/m*3 3.9 C 0 km/h
1822 04-03-2021 07:45:00 3.9 C 5.94 g/m*3 3.9 C 0 km/h
1823 04-03-2021 07:50:00 4 C 5.98 g/m*3 4 C 0 km/h
1824 04-03-2021 07:55:00 4.1 C 6.02 g/m*3 4.1 C 0 km/h
1825 04-03-2021 08:00:00 4.2 C 6.12 g/m*3 4.2 C 0 km/h
Sensor: Nr:Datum:Temp:Abs-Feuchte:Windchill:Wind:
Aussen-T/F 1826 04-03-2021 08:05:00 4.3 C 6.16 g/m*3 4.3 C 0 km/h
1827 04-03-2021 08:10:00 4.4 C 6.2 g/m*3 4.4 C 0 km/h
1828 04-03-2021 08:15:00 4.5 C 6.24 g/m*3 4.5 C 0 km/h
1829 04-03-2021 08:20:00 4.6 C 6.29 g/m*3 4.6 C 1.6 km/h
1830 04-03-2021 08:25:00 4.7 C 6.26 g/m*3 4.7 C 1.6 km/h
1831 04-03-2021 08:30:00 4.8 C 6.3 g/m*3 4.8 C 0 km/h
1832 04-03-2021 08:35:00 4.9 C 6.35 g/m*3 4.9 C 0 km/h
1833 04-03-2021 08:40:00 5 C 6.39 g/m*3 5 C 0 km/h
1834 04-03-2021 08:45:00 5.1 C 6.43 g/m*3 5.1 C 0 km/h
1835 04-03-2021 08:50:00 5.2 C 6.47 g/m*3 5.2 C 0 km/h
1836 04-03-2021 08:55:00 5.3 C 6.52 g/m*3 5.3 C 4.8 km/h
1837 04-03-2021 09:00:00 5.4 C 6.49 g/m*3 5.4 C 1.6 km/h
1838 04-03-2021 09:05:00 5.5 C 6.53 g/m*3 5.5 C 1.6 km/h
1839 04-03-2021 09:10:00 5.7 C 6.62 g/m*3 5.7 C 1.6 km/h
1840 04-03-2021 09:15:00 5.9 C 6.71 g/m*3 5.9 C 0 km/h
1841 04-03-2021 09:20:00 6.1 C 6.79 g/m*3 6.1 C 0 km/h
1842 04-03-2021 09:25:00 6.2 C 6.77 g/m*3 6.2 C 1.6 km/h
1843 04-03-2021 09:30:00 6.2 C 6.77 g/m*3 6.2 C 0 km/h
1844 04-03-2021 09:35:00 6.3 C 6.81 g/m*3 6.3 C 0 km/h
1845 04-03-2021 09:40:00 6.4 C 6.78 g/m*3 6.4 C 0 km/h
1846 04-03-2021 09:45:00 6.6 C 6.87 g/m*3 6.6 C 0 km/h
1847 04-03-2021 09:50:00 6.7 C 6.91 g/m*3 6.7 C 0 km/h
1848 04-03-2021 09:55:00 6.9 C 7.01 g/m*3 6.9 C 0 km/h
1849 04-03-2021 10:00:00 7.2 C 7.14 g/m*3 7.2 C 0 km/h
1850 04-03-2021 10:05:00 7.6 C 7.25 g/m*3 7.6 C 1.6 km/h
Sensor: Nr:Datum:Temp:Abs-Feuchte:Windchill:Wind:
Aussen-T/F 1851 04-03-2021 10:10:00 7.8 C 7.26 g/m*3 7.8 C 1.6 km/h
1852 04-03-2021 10:15:00 8 C 7.36 g/m*3 8 C 0 km/h
1853 04-03-2021 10:20:00 8.3 C 7.5 g/m*3 8.3 C 1.6 km/h
1854 04-03-2021 10:25:00 8.6 C 7.56 g/m*3 8.6 C 4.8 km/h
1855 04-03-2021 10:30:00 8.9 C 7.53 g/m*3 7.69 C 8.1 km/h
1856 04-03-2021 10:35:00 9.2 C 7.5 g/m*3 8.45 C 6.4 km/h
1857 04-03-2021 10:40:00 9.3 C 7.46 g/m*3 9.3 C 3.2 km/h
1858 04-03-2021 10:45:00 9.3 C 7.46 g/m*3 9.3 C 4.8 km/h
1859 04-03-2021 10:50:00 9.3 C 7.37 g/m*3 9.3 C 3.2 km/h
1860 04-03-2021 10:55:00 9.3 C 7.46 g/m*3 9.3 C 4.8 km/h
1861 04-03-2021 11:00:00 9.3 C 7.55 g/m*3 9.3 C 0 km/h
1862 04-03-2021 11:05:00 9.3 C 7.55 g/m*3 9.3 C 0 km/h
1863 04-03-2021 11:10:00 9.4 C 7.6 g/m*3 9.4 C 0 km/h
1864 04-03-2021 11:15:00 9.5 C 7.55 g/m*3 9.5 C 1.6 km/h
1865 04-03-2021 11:20:00 9.6 C 7.6 g/m*3 9.6 C 0 km/h
1866 04-03-2021 11:25:00 9.7 C 7.65 g/m*3 9.7 C 0 km/h
1867 04-03-2021 11:30:00 9.8 C 7.61 g/m*3 9.8 C 0 km/h
1868 04-03-2021 11:35:00 9.8 C 7.7 g/m*3 9.8 C 1.6 km/h
1869 04-03-2021 11:40:00 9.9 C 7.66 g/m*3 9.9 C 4.8 km/h
1870 04-03-2021 11:45:00 10 C 7.8 g/m*3 9.37 C 6.4 km/h
1871 04-03-2021 11:50:00 10.2 C 7.9 g/m*3 8.66 C 11.3 km/h
1872 04-03-2021 11:55:00 10.2 C 7.9 g/m*3 8.66 C 11.3 km/h
1873 04-03-2021 12:00:00 10.2 C 7.9 g/m*3 9.6 C 6.4 km/h
1874 04-03-2021 12:05:00 10.2 C 7.8 g/m*3 8.92 C 9.7 km/h
1875 04-03-2021 12:10:00 10.2 C 7.9 g/m*3 8.66 C 11.3 km/h
Sensor: Nr:Datum:Temp:Abs-Feuchte:Windchill:Wind:
Aussen-T/F 1876 04-03-2021 12:15:00 10.3 C 7.95 g/m*3 8.55 C 12.9 km/h
1877 04-03-2021 12:20:00 10.5 C 8.05 g/m*3 9.57 C 8.1 km/h
1878 04-03-2021 12:25:00 10.7 C 8.05 g/m*3 9.52 C 9.7 km/h
1879 04-03-2021 12:30:00 10.8 C 8.11 g/m*3 10.29 C 6.4 km/h
1880 04-03-2021 12:35:00 10.7 C 8.05 g/m*3 9.04 C 12.9 km/h
1881 04-03-2021 12:40:00 10.7 C 8.05 g/m*3 10.18 C 6.4 km/h
1882 04-03-2021 12:45:00 10.8 C 8.11 g/m*3 9.93 C 8.1 km/h
1883 04-03-2021 12:50:00 10.8 C 8.11 g/m*3 10.29 C 6.4 km/h
1884 04-03-2021 12:55:00 10.8 C 8.11 g/m*3 10.8 C 1.6 km/h
1885 04-03-2021 13:00:00 10.7 C 8.05 g/m*3 10.7 C 4.8 km/h
1886 04-03-2021 13:05:00 10.7 C 8.15 g/m*3 10.7 C 1.6 km/h
1887 04-03-2021 13:10:00 10.7 C 8.15 g/m*3 10.7 C 4.8 km/h
1888 04-03-2021 13:15:00 11 C 8.21 g/m*3 10.16 C 8.1 km/h
1889 04-03-2021 13:20:00 11.2 C 8.21 g/m*3 11.2 C 6.4 km/h
1890 04-03-2021 13:25:00 11.3 C 8.26 g/m*3 11.3 C 0 km/h
1891 04-03-2021 13:30:00 11.3 C 8.26 g/m*3 11.3 C 0 km/h
1892 04-03-2021 13:35:00 11.4 C 8.21 g/m*3 11.4 C 0 km/h
1893 04-03-2021 13:40:00 11.4 C 8.21 g/m*3 11.4 C 1.6 km/h
1894 04-03-2021 13:45:00 11.3 C 8.16 g/m*3 11.3 C 1.6 km/h
1895 04-03-2021 13:50:00 11.3 C 8.16 g/m*3 11.3 C 1.6 km/h
1896 04-03-2021 13:55:00 11.3 C 8.16 g/m*3 11.3 C 4.8 km/h
1897 04-03-2021 14:00:00 11.2 C 8.21 g/m*3 11.2 C 6.4 km/h
1898 04-03-2021 14:05:00 11.2 C 8.21 g/m*3 11.2 C 0 km/h
1899 04-03-2021 14:10:00 11.3 C 8.26 g/m*3 11.3 C 3.2 km/h
1900 04-03-2021 14:15:00 11.3 C 8.26 g/m*3 11.3 C 4.8 km/h
Sensor: Nr:Datum:Temp:Abs-Feuchte:Windchill:Wind:
Aussen-T/F 1901 04-03-2021 14:20:00 11.3 C 8.26 g/m*3 11.3 C 3.2 km/h
1902 04-03-2021 14:25:00 11.3 C 8.26 g/m*3 11.3 C 1.6 km/h
1903 04-03-2021 14:30:00 11.3 C 8.16 g/m*3 11.3 C 3.2 km/h
1904 04-03-2021 14:35:00 11.3 C 8.16 g/m*3 11.3 C 1.6 km/h
1905 04-03-2021 14:40:00 11.3 C 8.16 g/m*3 11.3 C 1.6 km/h
1906 04-03-2021 14:45:00 11.2 C 8.11 g/m*3 11.2 C 6.4 km/h
1907 04-03-2021 14:50:00 11.1 C 8.16 g/m*3 11.1 C 6.4 km/h
1908 04-03-2021 14:55:00 11 C 8.21 g/m*3 10.52 C 6.4 km/h
1909 04-03-2021 15:00:00 10.9 C 8.26 g/m*3 10.9 C 3.2 km/h
1910 04-03-2021 15:05:00 10.8 C 8.2 g/m*3 10.8 C 4.8 km/h
1911 04-03-2021 15:10:00 10.6 C 8.2 g/m*3 10.6 C 1.6 km/h
1912 04-03-2021 15:15:00 10.6 C 8.39 g/m*3 10.6 C 1.6 km/h
1913 04-03-2021 15:20:00 10.3 C 8.14 g/m*3 9.72 C 6.4 km/h
1914 04-03-2021 15:25:00 10.2 C 8.18 g/m*3 9.22 C 8.1 km/h
1915 04-03-2021 15:30:00 10 C 8.17 g/m*3 8.19 C 12.9 km/h
1916 04-03-2021 15:35:00 9.7 C 8.11 g/m*3 8.33 C 9.7 km/h
1917 04-03-2021 15:40:00 9.4 C 8.05 g/m*3 7.04 C 16.1 km/h
1918 04-03-2021 15:45:00 9.2 C 7.95 g/m*3 9.2 C 4.8 km/h
1919 04-03-2021 15:50:00 9.1 C 7.99 g/m*3 9.1 C 4.8 km/h
1920 04-03-2021 15:55:00 8.9 C 7.88 g/m*3 8.9 C 1.6 km/h
1921 04-03-2021 16:00:00 8.8 C 7.92 g/m*3 8.8 C 0 km/h
1922 04-03-2021 16:05:00 8.8 C 7.92 g/m*3 8.8 C 0 km/h
1923 04-03-2021 16:10:00 8.7 C 7.96 g/m*3 8.7 C 0 km/h
1924 04-03-2021 16:15:00 8.7 C 7.96 g/m*3 8.7 C 0 km/h
1925 04-03-2021 16:20:00 8.7 C 7.96 g/m*3 8.7 C 0 km/h
Sensor: Nr:Datum:Temp:Abs-Feuchte:Windchill:Wind:
Aussen-T/F 1926 04-03-2021 16:25:00 8.7 C 7.96 g/m*3 8.7 C 0 km/h
1927 04-03-2021 16:30:00 8.7 C 7.96 g/m*3 8.7 C 0 km/h
1928 04-03-2021 16:35:00 8.7 C 8.04 g/m*3 8.7 C 0 km/h
1929 04-03-2021 16:40:00 8.8 C 8.09 g/m*3 8.8 C 0 km/h
1930 04-03-2021 16:45:00 8.8 C 8.09 g/m*3 8.8 C 0 km/h
1931 04-03-2021 16:50:00 8.8 C 8.09 g/m*3 8.8 C 0 km/h
1932 04-03-2021 16:55:00 8.7 C 8.04 g/m*3 8.7 C 0 km/h
1933 04-03-2021 17:00:00 8.7 C 8.04 g/m*3 8.7 C 0 km/h
1934 04-03-2021 17:05:00 8.7 C 8.04 g/m*3 8.7 C 1.6 km/h
1935 04-03-2021 17:10:00 8.8 C 8.09 g/m*3 8.8 C 3.2 km/h
1936 04-03-2021 17:15:00 8.6 C 7.99 g/m*3 5.86 C 17.7 km/h
1937 04-03-2021 17:20:00 8.3 C 7.75 g/m*3 5.31 C 19.3 km/h
1938 04-03-2021 17:25:00 8 C 7.61 g/m*3 4.93 C 19.3 km/h
1939 04-03-2021 17:30:00 7.9 C 7.56 g/m*3 5.63 C 12.9 km/h
1940 04-03-2021 17:35:00 7.7 C 7.46 g/m*3 5.38 C 12.9 km/h
1941 04-03-2021 17:40:00 7.5 C 7.36 g/m*3 5.14 C 12.9 km/h
1942 04-03-2021 17:45:00 7.4 C 7.32 g/m*3 5.28 C 11.3 km/h
1943 04-03-2021 17:50:00 7.2 C 7.22 g/m*3 4.31 C 16.1 km/h
1944 04-03-2021 17:55:00 7.2 C 7.22 g/m*3 5.35 C 9.7 km/h
1945 04-03-2021 18:00:00 7.2 C 7.22 g/m*3 7.2 C 1.6 km/h
1946 04-03-2021 18:05:00 7.1 C 7.18 g/m*3 7.1 C 3.2 km/h
1947 04-03-2021 18:10:00 7.1 C 7.18 g/m*3 4.92 C 11.3 km/h
1948 04-03-2021 18:15:00 7 C 7.21 g/m*3 5.9 C 6.4 km/h
1949 04-03-2021 18:20:00 6.8 C 7.04 g/m*3 5.67 C 6.4 km/h
1950 04-03-2021 18:25:00 6.7 C 7.07 g/m*3 4.17 C 12.9 km/h
Sensor: Nr:Datum:Temp:Abs-Feuchte:Windchill:Wind:
Aussen-T/F 1951 04-03-2021 18:30:00 6.5 C 6.9 g/m*3 4.2 C 11.3 km/h
1952 04-03-2021 18:35:00 6.4 C 6.93 g/m*3 6.4 C 3.2 km/h
1953 04-03-2021 18:40:00 6.3 C 6.88 g/m*3 3.43 C 14.5 km/h
1954 04-03-2021 18:45:00 6.1 C 6.79 g/m*3 4.04 C 9.7 km/h
1955 04-03-2021 18:50:00 5.9 C 6.71 g/m*3 4.17 C 8.1 km/h
1956 04-03-2021 18:55:00 5.8 C 6.66 g/m*3 5.8 C 3.2 km/h
1957 04-03-2021 19:00:00 5.7 C 6.62 g/m*3 4.4 C 6.4 km/h
1958 04-03-2021 19:05:00 5.7 C 6.62 g/m*3 5.7 C 3.2 km/h
1959 04-03-2021 19:10:00 5.6 C 6.65 g/m*3 5.6 C 0 km/h
1960 04-03-2021 19:15:00 5.6 C 6.65 g/m*3 5.6 C 0 km/h
1961 04-03-2021 19:20:00 5.4 C 6.49 g/m*3 2.87 C 11.3 km/h
1962 04-03-2021 19:25:00 5.3 C 6.45 g/m*3 2.75 C 11.3 km/h
1963 04-03-2021 19:30:00 5.1 C 6.36 g/m*3 3.71 C 6.4 km/h
1964 04-03-2021 19:35:00 5 C 6.32 g/m*3 3.59 C 6.4 km/h
1965 04-03-2021 19:40:00 4.9 C 6.28 g/m*3 4.9 C 3.2 km/h
1966 04-03-2021 19:45:00 4.8 C 6.17 g/m*3 2.15 C 11.3 km/h
1967 04-03-2021 19:50:00 4.7 C 6.13 g/m*3 2.37 C 9.7 km/h
1968 04-03-2021 19:55:00 4.6 C 6.09 g/m*3 1.91 C 11.3 km/h
1969 04-03-2021 20:00:00 4.5 C 6.05 g/m*3 1.79 C 11.3 km/h
1970 04-03-2021 20:05:00 4.4 C 6.01 g/m*3 2.01 C 9.7 km/h
1971 04-03-2021 20:10:00 4.4 C 6.01 g/m*3 2.01 C 9.7 km/h
1972 04-03-2021 20:15:00 4.3 C 5.97 g/m*3 2.78 C 6.4 km/h
1973 04-03-2021 20:20:00 4.2 C 5.93 g/m*3 2.17 C 8.1 km/h
1974 04-03-2021 20:25:00 4.2 C 5.93 g/m*3 2.17 C 8.1 km/h
1975 04-03-2021 20:30:00 4.1 C 5.89 g/m*3 1.31 C 11.3 km/h
Sensor: Nr:Datum:Temp:Abs-Feuchte:Windchill:Wind:
Aussen-T/F 1976 04-03-2021 20:35:00 4 C 5.85 g/m*3 1.93 C 8.1 km/h
1977 04-03-2021 20:40:00 4 C 5.91 g/m*3 1.93 C 8.1 km/h
1978 04-03-2021 20:45:00 4 C 5.91 g/m*3 2.44 C 6.4 km/h
1979 04-03-2021 20:50:00 4 C 5.91 g/m*3 1.18 C 11.3 km/h
1980 04-03-2021 20:55:00 4 C 5.91 g/m*3 1.93 C 8.1 km/h
1981 04-03-2021 21:00:00 4 C 5.91 g/m*3 1.53 C 9.7 km/h
1982 04-03-2021 21:05:00 4 C 5.91 g/m*3 1.18 C 11.3 km/h
1983 04-03-2021 21:10:00 4 C 5.91 g/m*3 1.18 C 11.3 km/h
1984 04-03-2021 21:15:00 4 C 5.91 g/m*3 2.44 C 6.4 km/h
1985 04-03-2021 21:20:00 4.1 C 5.95 g/m*3 4.1 C 4.8 km/h
1986 04-03-2021 21:25:00 4.1 C 5.95 g/m*3 2.05 C 8.1 km/h
1987 04-03-2021 21:30:00 4.1 C 5.95 g/m*3 1.65 C 9.7 km/h
1988 04-03-2021 21:35:00 4.1 C 5.95 g/m*3 2.05 C 8.1 km/h
1989 04-03-2021 21:40:00 4.1 C 5.95 g/m*3 1.31 C 11.3 km/h
1990 04-03-2021 21:45:00 4.1 C 5.95 g/m*3 1.65 C 9.7 km/h
1991 04-03-2021 21:50:00 4.1 C 5.95 g/m*3 2.55 C 6.4 km/h
1992 04-03-2021 21:55:00 4.1 C 5.95 g/m*3 2.55 C 6.4 km/h
1993 04-03-2021 22:00:00 4.1 C 5.95 g/m*3 2.05 C 8.1 km/h
1994 04-03-2021 22:05:00 4.1 C 5.95 g/m*3 1.65 C 9.7 km/h
1995 04-03-2021 22:10:00 4.1 C 5.95 g/m*3 2.55 C 6.4 km/h
1996 04-03-2021 22:15:00 4.1 C 5.95 g/m*3 2.55 C 6.4 km/h
1997 04-03-2021 22:20:00 4.1 C 5.95 g/m*3 4.1 C 4.8 km/h
1998 04-03-2021 22:25:00 4.1 C 5.95 g/m*3 2.55 C 6.4 km/h
1999 04-03-2021 22:30:00 4.1 C 5.95 g/m*3 2.55 C 6.4 km/h
2000 04-03-2021 22:35:00 4.1 C 5.95 g/m*3 4.1 C 1.6 km/h
Sensor: Nr:Datum:Temp:Abs-Feuchte:Windchill:Wind:
Aussen-T/F 2001 04-03-2021 22:40:00 4.2 C 5.99 g/m*3 2.67 C 6.4 km/h
2002 04-03-2021 22:45:00 4.2 C 5.99 g/m*3 2.67 C 6.4 km/h
2003 04-03-2021 22:50:00 4.2 C 5.99 g/m*3 2.17 C 8.1 km/h
2004 04-03-2021 22:55:00 4.2 C 5.99 g/m*3 2.67 C 6.4 km/h
2005 04-03-2021 23:00:00 4.2 C 5.99 g/m*3 2.67 C 6.4 km/h
2006 04-03-2021 23:05:00 4.2 C 5.99 g/m*3 4.2 C 4.8 km/h
2007 04-03-2021 23:10:00 4.2 C 5.99 g/m*3 2.17 C 8.1 km/h
2008 04-03-2021 23:15:00 4.2 C 5.99 g/m*3 4.2 C 3.2 km/h
2009 04-03-2021 23:20:00 4.2 C 5.99 g/m*3 4.2 C 0 km/h
2010 04-03-2021 23:25:00 4.2 C 5.99 g/m*3 2.67 C 6.4 km/h
2011 04-03-2021 23:30:00 4.2 C 5.99 g/m*3 4.2 C 4.8 km/h
2012 04-03-2021 23:35:00 4.2 C 5.99 g/m*3 2.67 C 6.4 km/h
2013 04-03-2021 23:40:00 4.2 C 5.99 g/m*3 4.2 C 3.2 km/h
2014 04-03-2021 23:45:00 4.2 C 5.99 g/m*3 2.67 C 6.4 km/h
2015 04-03-2021 23:50:00 4.2 C 5.99 g/m*3 4.2 C 4.8 km/h
2016 04-03-2021 23:55:00 4.2 C 5.99 g/m*3 4.2 C 3.2 km/h

Legende:
   Min
   Max


Maximal/Minimal-Werte vom 26.02.2021 - 04.03.2021

Sensor Min Max Avg
Temp
(Aussen-T/F)
-1.8 °C
01-03-2021  07:20:00
16.8 °C
02-03-2021  14:20:00
5.78 °C
Abs-Feuchte
(Aussen-T/F)
4.06 g/m*3
01-03-2021  07:20:00
8.39 g/m*3
04-03-2021  15:15:00
6.02 g/m*3
Windchill
(Aussen-T/F)
-1.8 C
01-03-2021  07:20:00
16.8 C
02-03-2021  14:20:00
5.57 C

Die Daten stammen von einer Davis Vantage Pro 2 Wetter-Station und werden unter Linux mit der Software wview2wettercgi und aufbereitet. Alle Angaben erfolgen ohne Gewähr für ihre Vollständigkeit oder Richtigkeit.
Kontakt: Rainer Krienke krienke@uni-koblenz.de . Meine Webseiten an der Uni Koblenz oder privat.
Version: $Revision: 0.78 $